GFSSGP_con_sbcape_000.txt.gz
CAPE
0 0 0 0 0 0 0 0 0 0 0 0 0 0 0 0 0 0 0 0 0 0 0 1233 1704 1438 1027 1074 959 840 570 291 48 12 0 0 0 0 0 0 0 0 0 0 0 0 0 0 0
0 0 0 0 0 0 0 0 0 0 0 0 0 0 0 0 0 0 3 0 0 0 17 989 1829 1676 1444 1357 1256 1170 1044 598 273 107 14 0 4 0 0 4 4 14 34 27 1 0 2 1 1
0 0 0 0 0 0 0 0 0 0 0 0 0 0 0 0 0 0 0 0 0 0 174 729 1960 1878 1684 1584 1455 1341 1223 944 570 175 94 135 273 439 531 119 76 83 100 244 134 71 19 3 5
0 0 0 0 0 0 0 0 0 0 0 0 0 0 0 0 0 0 0 0 0 11 260 850 2078 1964 1909 1821 1679 1630 1351 1205 937 417 383 643 493 583 539 238 271 198 242 92 22 107 239 126 36
0 0 0 0 0 0 0 0 0 0 0 0 0 0 0 0 0 2 0 0 0 70 241 776 2099 2070 2044 1996 1863 1855 1666 1530 1473 917 663 808 706 640 489 396 329 215 208 102 58 91 386 357 185
0 0 0 0 0 0 0 0 0 0 0 0 0 0 0 0 0 49 0 0 0 34 167 650 2028 2164 2067 2062 2044 1966 1834 1688 1609 1514 1274 944 763 696 546 419 316 296 187 60 46 309 441 561 291
0 0 0 0 0 0 0 0 0 0 0 0 0 0 0 0 0 81 9 0 0 18 214 722 1597 1946 2193 2140 2013 1949 1786 1822 2025 1629 1078 729 463 68 11 2 34 88 95 54 48 72 289 411 244
0 0 0 0 0 0 0 0 0 0 0 0 0 0 0 0 0 0 0 0 36 86 214 637 1309 1523 1462 1704 2210 2099 2118 1781 1389 813 536 0 0 0 0 2 5 14 19 25 27 20 36 246 348
0 0 0 0 0 0 0 0 0 0 0 0 0 0 0 0 0 0 0 2 64 202 292 504 893 954 1001 1252 1698 2257 1326 1019 794 259 27 193 0 0 0 0 0 0 7 27 18 17 130 184 57
0 0 0 0 0 0 0 0 0 0 0 0 0 0 0 0 0 0 0 14 26 135 221 339 482 535 640 787 804 845 482 325 22 13 1 0 0 0 0 0 0 14 73 95 122 169 102 84 2
0 0 0 0 0 0 0 0 0 0 0 0 0 0 0 0 0 0 0 0 2 29 133 115 223 243 330 385 196 121 9 0 0 0 0 0 0 0 0 0 0 0 2 15 16 2 37 74 4
0 0 0 0 0 0 0 0 0 0 0 0 0 0 0 0 0 0 0 0 0 0 1 5 60 102 81 44 17 11 0 0 0 0 0 0 0 0 0 0 0 0 0 0 6 4 11 31 1
0 0 0 0 0 0 0 0 0 0 0 0 0 0 0 0 0 0 0 0 0 0 0 0 1 5 0 0 0 0 0 0 0 0 0 0 0 0 0 0 0 0 8 10 24 21 25 14 11
0 0 0 0 0 0 0 0 0 0 0 0 0 0 0 0 0 0 0 0 0 0 0 0 0 0 0 0 0 0 0 0 0 0 0 0 0 0 0 0 0 0 0 0 1 2 10 19 14
0 0 0 0 0 0 0 0 0 0 0 0 0 0 0 0 0 0 0 0 0 0 0 0 0 0 0 0 0 0 0 0 0 0 0 0 0 0 0 0 0 0 0 0 0 0 0 0 0
0 0 0 0 0 0 0 0 0 0 0 0 0 0 0 0 0 0 0 0 0 0 0 0 0 0 0 0 0 0 0 0 0 0 0 0 0 0 0 0 0 0 0 0 0 0 0 0 0
0 0 0 0 0 0 0 0 0 0 0 0 0 0 0 0 0 0 0 0 0 0 0 0 0 0 0 0 0 0 0 0 0 0 0 0 0 0 0 0 0 0 0 0 0 0 0 0 0
0 0 0 0 0 0 0 0 0 0 0 0 0 0 0 0 0 0 0 0 0 0 0 0 0 0 0 0 0 0 0 0 0 0 0 0 0 0 0 0 0 0 0 0 0 0 0 3 16
0 0 0 0 0 0 0 0 0 0 0 0 0 0 0 0 0 0 0 0 0 0 0 0 0 0 0 0 0 0 0 0 0 0 0 0 0 0 0 0 0 0 0 0 0 0 0 7 2
0 0 0 0 0 0 0 0 0 0 0 0 0 0 0 0 0 0 0 0 0 0 0 0 0 0 0 0 0 0 0 0 0 0 0 0 0 0 0 0 0 0 0 0 0 0 0 1 2
0 0 0 0 0 0 0 0 0 0 0 0 0 0 0 0 0 0 0 0 0 0 0 0 0 0 0 0 0 0 0 0 0 0 0 0 0 1 0 0 0 0 0 0 0 0 1 29 0
0 0 0 0 0 0 0 0 0 0 0 0 0 0 0 0 0 0 0 0 0 0 0 0 0 0 0 0 0 0 0 0 0 0 0 0 0 2 0 0 0 0 0 0 0 0 7 37 99
0 0 0 0 0 0 0 0 0 0 0 0 0 0 0 0 0 0 0 0 0 0 0 0 0 0 0 0 0 0 0 0 0 0 0 0 0 3 0 0 0 0 0 0 0 0 0 0 16
0 0 0 0 0 0 0 0 0 0 0 0 0 0 0 0 0 0 0 0 0 0 0 0 0 0 0 0 0 0 0 0 0 0 0 0 0 1 0 0 0 0 0 0 0 0 0 0 0
0 0 0 0 0 0 0 0 0 0 0 0 0 0 0 0 0 0 0 0 0 0 0 0 0 0 0 0 0 0 0 0 0 0 0 0 0 0 0 0 0 0 0 0 0 0 0 0 14
0 0 0 0 0 0 0 0 0 0 0 0 0 0 0 0 0 0 0 0 0 0 0 0 0 0 0 0 0 0 0 0 0 0 0 0 0 0 0 0 0 0 0 0 0 3 0 0 9
0 0 0 0 0 0 0 0 0 0 0 0 0 0 0 0 0 0 0 0 0 0 0 0 0 0 0 0 0 0 0 0 0 0 0 0 0 0 0 0 0 0 0 0 0 21 30 8 6
0 0 0 0 0 0 0 0 0 0 0 0 0 0 0 0 0 0 0 0 0 0 0 0 0 0 0 0 0 0 0 0 0 0 0 0 0 0 0 0 0 0 0 0 0 24 68 71 4
0 0 0 0 0 0 0 0 0 0 0 0 0 0 0 0 0 0 0 0 0 0 0 0 0 0 0 0 0 0 0 0 0 0 0 0 0 0 0 0 0 0 0 0 26 35 47 54 39
0 0 0 0 0 0 0 0 0 0 0 0 0 0 0 0 0 0 0 0 0 0 0 0 0 0 0 0 0 0 0 0 0 0 0 0 0 0 0 0 0 0 0 0 0 25 56 50 32

GFSSGP_con_sbcape_003.txt.gz
CAPE
0 0 0 0 0 0 0 0 0 0 0 0 0 0 0 0 7 0 5 44 10 0 8 1108 1839 1571 1239 1086 880 774 640 388 99 19 1 0 0 0 0 0 0 0 0 0 0 0 1 1 0
0 0 0 0 0 0 3 0 0 0 0 0 0 0 0 0 0 3 73 84 6 0 191 337 1968 1756 1570 1354 1251 1157 984 714 503 241 37 5 5 0 0 0 11 3 0 0 83 90 38 3 3
0 0 0 0 0 28 23 0 0 0 0 0 0 0 0 0 0 2 63 50 0 0 225 749 2098 1976 1807 1636 1597 1507 1384 1135 870 434 288 259 296 330 341 347 189 126 60 1 190 322 224 157 17
0 0 0 0 4 9 0 0 13 0 0 0 0 0 0 0 0 0 105 13 0 1 268 670 2113 2106 2011 1883 1832 1771 1722 1500 1245 785 704 607 812 815 647 452 442 391 298 221 236 90 421 349 313
0 1 0 0 0 0 0 24 0 0 0 0 0 0 0 0 0 14 159 64 12 10 338 563 2209 2263 2230 2155 2041 1918 1836 1652 1516 1255 968 1062 1235 878 735 712 513 441 442 387 326 511 584 658 446
0 0 0 0 0 0 0 0 0 0 0 0 0 0 0 0 0 71 183 197 62 104 255 731 2127 2381 2264 2215 2144 1977 1982 1886 1852 1712 1576 1436 1333 909 859 729 697 642 547 481 387 435 543 464 549
0 0 0 0 0 0 0 0 0 0 0 0 0 0 0 0 0 58 150 215 176 229 355 872 1315 2082 2281 2197 2110 2042 2095 2050 2024 1910 1785 1469 1034 723 225 92 102 169 287 364 346 214 357 439 285
0 0 0 0 0 0 0 0 0 0 0 0 0 0 0 0 0 85 125 152 123 283 420 737 1175 1350 1373 1452 2294 2276 2219 2080 2058 2133 1489 936 115 14 9 49 0 9 12 53 86 103 184 374 330
0 0 0 0 0 0 0 0 0 0 0 0 0 0 0 0 0 86 167 169 137 187 426 607 996 1391 1365 1146 1551 2239 1902 1863 1847 1185 845 296 83 33 0 0 0 0 4 25 39 43 72 95 88
0 0 0 0 0 0 0 0 0 0 0 0 0 0 0 0 0 35 168 147 162 234 288 424 1015 1216 1320 1173 1433 1386 1171 865 828 677 375 421 352 161 18 0 0 1 33 211 233 261 82 239 46
0 0 0 0 0 0 0 0 0 0 0 0 1 0 0 0 0 2 54 83 84 231 291 321 747 1218 1312 1206 1408 1432 1057 1003 923 557 505 432 278 144 65 49 97 67 2 4 9 10 4 64 180
0 0 0 0 0 0 0 0 0 0 0 0 1 0 0 0 0 0 5 82 94 192 299 456 665 1058 1389 1180 1165 941 808 734 516 466 567 561 477 298 223 69 144 131 7 53 95 64 90 188 236
0 0 0 0 0 0 0 0 0 0 0 0 0 0 0 0 0 0 0 21 86 139 210 485 720 954 1190 1125 799 713 583 430 393 490 493 565 559 588 409 347 335 296 40 264 336 173 147 202 282
0 0 0 0 0 0 0 0 0 0 0 1 0 0 0 0 0 0 0 0 22 95 90 169 596 1003 961 802 702 570 612 479 543 451 449 445 482 513 445 407 458 802 585 387 354 127 153 119 213
0 0 0 0 0 0 0 0 0 0 0 0 0 0 0 0 0 0 0 0 6 14 16 48 493 858 861 742 602 467 462 574 596 575 597 403 478 554 644 919 732 859 246 363 255 224 237 192 167
0 0 0 0 0 0 0 0 0 0 0 0 0 0 0 0 0 0 0 0 1 3 0 2 73 621 844 689 513 475 529 602 575 541 539 530 617 762 834 892 763 540 367 528 310 263 185 167 188
0 0 0 0 0 0 0 0 0 0 0 0 0 0 0 0 0 0 0 0 0 0 0 3 143 529 673 578 503 574 631 531 479 546 623 709 747 737 809 832 421 455 477 184 327 295 228 199 229
0 0 0 0 0 0 0 0 0 0 0 0 0 0 0 0 0 0 0 0 0 0 0 142 241 580 541 460 363 387 404 472 569 671 768 805 858 708 642 471 195 296 187 176 206 365 271 272 303
0 0 0 0 0 0 0 0 0 0 0 0 0 0 0 0 0 0 0 0 0 0 0 247 476 549 414 182 206 365 484 545 567 650 746 869 959 697 753 535 137 56 188 350 339 288 238 354 412
0 0 0 0 0 0 0 0 0 0 0 0 0 0 0 0 0 0 0 0 0 0 19 356 523 408 329 231 317 448 593 669 622 620 796 904 857 677 550 201 142 144 295 374 326 309 243 322 464
0 0 0 0 0 0 0 0 0 0 0 0 0 0 0 0 0 0 0 0 0 0 41 276 391 330 270 286 346 429 396 467 465 402 506 435 227 312 507 280 257 376 375 370 321 272 205 262 373
0 0 0 0 0 0 0 0 0 0 0 0 0 0 0 0 0 0 0 0 0 0 22 193 272 308 313 300 398 573 629 506 315 288 280 262 156 302 386 401 356 500 395 359 301 254 228 321 464
0 0 0 0 0 0 0 0 0 0 0 0 0 0 0 0 0 0 0 0 0 0 44 167 251 317 335 345 387 598 720 254 208 134 245 295 321 292 195 403 468 463 387 478 335 281 317 724 546
0 0 0 0 0 0 0 0 0 0 0 0 0 0 0 0 0 0 0 0 0 0 38 109 222 396 389 427 495 799 520 311 51 78 93 133 202 183 278 242 400 421 449 416 296 354 384 580 700
0 0 0 0 0 0 0 0 0 0 0 0 0 0 0 0 0 0 0 0 0 0 27 59 228 307 363 389 499 525 408 140 33 39 54 61 140 185 339 290 259 358 466 467 429 468 438 462 576
0 0 0 0 0 0 0 0 0 0 0 0 0 0 0 0 0 0 0 0 0 18 56 43 263 237 238 333 549 340 298 3 0 21 38 2 113 126 126 113 184 404 367 404 471 475 322 332 785
0 0 0 0 0 0 0 0 0 0 0 0 0 0 0 0 0 0 0 0 0 33 100 169 181 173 206 308 524 377 358 38 73 78 36 0 28 41 64 100 271 285 336 375 495 674 591 353 442
0 0 0 0 0 0 0 0 0 0 0 0 0 0 0 0 0 0 0 0 0 30 106 169 103 88 117 109 481 377 452 95 90 73 42 0 4 31 52 87 145 217 331 391 647 604 433 453 538
0 0 0 0 0 0 0 0 0 0 0 0 0 0 0 0 0 0 0 0 0 6 28 81 21 14 5 32 238 396 421 107 59 73 32 0 3 20 30 62 109 164 364 560 489 303 173 206 353
0 0 0 0 0 0 0 0 0 0 0 0 0 0 0 0 0 0 0 0 0 0 8 5 6 16 0 34 10 226 437 116 58 70 24 0 0 0 27 127 129 137 269 424 382 177 58 81 212

GFSSGP_con_sbcape_006.txt.gz
CAPE
0 0 0 0 0 0 0 0 0 0 0 0 0 0 0 0 0 0 83 206 117 0 180 952 1558 1346 1265 1102 876 718 577 284 54 1 0 0 0 0 0 0 0 0 0 0 0 1 4 0 0
0 0 0 0 0 0 5 3 13 0 0 0 0 0 0 0 0 0 12 215 96 3 261 250 1722 1465 1386 1282 1129 973 871 540 256 92 14 0 0 0 0 0 0 13 20 16 24 155 73 17 4
0 0 0 0 0 34 113 6 0 0 0 0 0 0 0 0 0 0 200 334 100 8 189 309 1874 1681 1597 1535 1329 1220 1142 976 642 250 141 108 107 197 211 19 17 127 135 100 49 231 396 230 83
0 0 0 0 106 194 228 5 0 12 0 0 0 0 0 0 0 2 207 267 138 31 89 506 1994 1887 1780 1732 1592 1528 1440 1283 1132 676 482 363 501 638 676 276 240 355 374 248 229 237 341 224 346
0 0 0 0 0 16 134 190 101 7 0 0 0 0 0 0 0 6 194 185 141 87 167 233 2159 2105 2013 1985 1904 1887 1867 1748 1623 1192 823 811 1022 1125 1012 700 756 716 497 504 465 515 743 658 153
0 0 0 0 0 0 0 0 0 0 0 0 0 0 0 1 0 22 113 219 135 104 269 449 2086 2316 2162 2131 2097 2041 2020 1979 1812 1642 1504 1430 1497 1379 1000 940 841 773 680 642 617 589 472 556 280
0 0 0 0 0 0 0 0 0 0 0 0 0 0 8 3 0 11 110 189 211 111 224 666 1380 2098 2295 2208 2150 2120 2013 1973 1906 1898 1929 1859 1593 1171 860 399 224 206 249 394 489 497 406 324 158
0 0 0 0 0 0 0 0 0 0 0 0 0 0 20 18 9 12 84 120 229 190 181 328 937 1247 1154 1173 2345 2220 2186 2157 2112 2161 2017 1810 1205 472 85 99 128 52 63 87 157 230 242 389 294
0 0 0 0 0 0 2 0 0 0 0 0 0 0 3 0 3 41 80 102 155 200 303 271 615 1029 916 648 1440 2220 2068 2098 2079 1677 1730 1068 273 268 305 24 0 0 0 4 40 69 111 119 161
0 0 0 0 0 0 1 0 0 0 0 0 1 0 11 0 0 10 16 54 158 239 260 412 798 961 948 458 975 1629 1113 990 696 570 606 686 440 578 254 68 0 0 4 39 305 323 284 120 102
0 0 0 0 0 2 0 0 0 0 0 0 1 8 47 9 7 15 12 24 34 198 283 349 849 1317 1159 792 1063 1331 838 880 860 891 718 642 638 625 479 363 262 356 236 94 171 260 214 111 81
0 0 0 0 0 0 0 0 0 0 0 0 0 5 30 0 13 21 28 37 14 75 256 380 547 1459 1734 945 1136 893 858 890 864 714 778 821 817 736 690 470 300 369 120 68 178 156 120 163 170
0 0 0 0 0 0 0 0 0 0 0 0 0 12 15 2 10 7 5 28 46 83 222 470 670 1332 1685 1788 1225 958 786 705 568 415 705 906 784 848 763 736 486 383 446 72 203 293 211 149 136
0 0 0 0 0 0 0 0 0 0 0 0 1 8 0 0 0 0 0 0 68 102 296 509 777 1602 1732 1994 1490 1178 974 610 571 396 667 880 897 861 876 998 1019 1177 1099 579 172 393 167 109 137
0 0 0 0 0 0 0 0 0 0 0 0 0 0 0 0 0 0 0 0 50 165 251 798 1025 1417 2081 1838 1534 1054 781 588 394 605 957 990 1085 1036 1129 1547 1380 1278 1683 994 424 209 298 119 121
0 0 0 0 0 0 0 0 0 0 0 0 0 0 0 0 0 0 0 0 60 246 260 581 651 1262 1951 1927 1540 767 526 463 460 711 792 994 1156 1171 1405 1518 1401 1395 1196 983 546 570 179 144 121
0 0 0 0 2 0 0 0 0 0 0 0 0 0 0 0 0 0 0 0 79 354 423 555 602 1038 1898 1948 1303 951 704 558 632 691 752 867 1132 1187 1527 1495 1328 1083 595 792 881 541 303 266 168
0 0 0 0 0 0 0 0 0 0 0 0 0 0 0 0 0 0 0 3 67 254 482 372 612 1440 1894 1558 1073 596 627 612 698 702 824 976 1172 1108 1332 1263 1021 454 547 896 699 416 520 282 231
0 0 0 0 0 0 2 0 0 0 0 0 0 0 0 0 0 0 0 12 49 185 273 365 650 1811 1774 1104 660 489 472 566 587 700 995 1192 1158 1075 1063 975 828 831 510 308 500 701 524 567 462
0 0 0 0 0 3 0 0 0 0 0 0 0 0 0 0 0 0 31 44 56 188 271 494 830 1477 1373 696 780 375 381 364 439 674 1051 1170 1047 993 940 897 786 460 195 372 508 517 823 771 520
0 0 0 0 0 0 0 0 0 0 0 0 0 0 0 0 0 0 73 64 105 201 422 706 1099 1060 705 684 682 874 847 675 606 766 760 845 873 809 690 678 619 489 605 809 693 575 427 541 540
0 0 0 0 0 0 0 0 0 0 0 0 0 0 0 0 0 1 71 80 162 257 429 793 886 696 633 594 545 463 193 239 339 348 407 587 570 481 459 654 582 652 728 669 576 463 586 530 702
0 0 0 0 0 0 0 0 0 0 0 0 0 0 0 0 0 6 139 111 147 276 525 717 729 679 665 551 531 504 343 417 313 191 544 633 555 391 300 587 563 657 663 651 514 445 520 587 666
0 0 0 0 0 0 0 0 0 0 0 0 0 0 0 0 23 34 45 90 155 301 502 619 674 622 642 562 627 575 775 514 208 301 378 373 678 409 367 347 489 622 687 664 536 518 524 731 817
0 0 0 0 0 0 0 0 0 0 0 0 0 0 4 38 85 43 81 111 176 276 356 458 450 542 519 485 577 777 942 574 510 387 329 319 563 306 375 430 555 713 728 712 594 676 612 746 867
0 0 0 0 0 0 0 0 0 0 0 0 0 0 0 71 134 139 111 139 144 207 251 181 400 427 404 309 637 759 709 309 155 304 202 235 442 133 385 457 475 502 473 544 729 792 717 674 796
0 0 0 0 0 0 0 0 0 0 0 0 0 0 0 148 185 165 130 143 137 198 176 300 293 229 194 379 678 815 673 299 309 349 302 286 195 167 254 292 332 354 295 395 655 685 796 674 584
0 0 0 0 0 0 0 0 0 0 0 0 0 0 117 190 169 160 149 153 194 217 255 301 191 83 161 506 543 637 586 428 394 286 141 145 169 60 114 156 243 357 359 360 623 817 610 687 665
0 0 0 0 0 0 0 0 0 0 0 0 24 122 251 190 146 125 140 170 252 272 290 290 25 83 208 347 537 524 511 396 360 334 147 95 114 91 65 64 187 182 344 551 671 500 400 461 634
0 0 0 0 0 0 0 0 0 0 6 2 7 162 259 190 116 92 106 146 188 226 215 48 33 45 69 222 379 494 392 433 396 311 217 51 44 48 28 82 84 91 281 405 484 348 178 301 562

GFSSGP_con_sbcape_009.txt.gz
CAPE
0 0 0 0 0 0 0 0 2 1 13 0 0 0 0 0 0 0 17 81 65 76 269 535 1234 1170 1111 912 742 548 390 107 0 0 0 0 0 0 0 0 0 0 0 0 0 1 0 0 0
0 0 0 0 0 0 7 6 25 62 5 0 0 0 0 1 0 0 40 116 98 116 524 191 1437 1291 1352 1123 965 847 665 312 129 18 0 0 0 0 0 0 0 0 0 0 0 38 134 51 3
0 0 0 0 0 0 127 72 56 16 0 0 0 0 0 0 0 0 150 118 88 92 632 398 1557 1405 1533 1429 1175 1049 951 771 400 140 84 56 37 37 44 27 15 16 125 131 118 70 273 381 184
0 0 0 0 0 47 61 166 54 31 35 0 0 0 0 0 0 0 33 113 97 80 525 1456 1568 1535 1615 1642 1476 1324 1191 1072 807 409 286 236 238 546 545 133 145 151 238 382 352 287 238 412 285
0 0 0 0 0 0 85 112 181 121 54 9 0 0 0 22 0 0 65 120 102 75 197 1322 1755 1812 1795 1924 1734 1597 1467 1419 1300 889 606 522 828 932 795 529 613 645 698 643 521 663 525 373 211
0 0 0 0 0 0 26 12 6 24 58 14 5 4 0 19 0 0 10 87 69 82 89 478 2027 1953 1948 1998 1913 1766 1755 1746 1672 1522 1352 1130 1226 1361 1187 965 1016 912 832 732 655 597 515 476 287
0 0 0 3 3 0 7 8 4 4 28 30 9 0 0 69 13 0 6 38 60 59 67 134 1860 2025 2129 2080 1987 1971 1980 2020 1985 1870 1735 1683 1402 1606 1255 971 736 484 369 321 344 440 506 467 333
0 0 0 10 2 0 3 10 0 0 2 30 0 0 8 49 6 13 4 19 35 113 72 163 516 1860 1605 1171 2251 2181 2173 2130 2038 1961 1842 1803 1368 1332 1048 358 242 119 89 114 130 192 272 395 512
0 0 0 0 3 1 2 18 4 24 0 0 0 0 0 0 0 10 3 7 19 47 161 127 189 771 1225 660 1125 2238 2068 2072 2029 1668 1673 1516 592 355 606 708 84 87 13 10 35 82 110 196 301
0 0 0 0 4 13 15 25 22 33 32 0 0 0 8 20 34 37 0 4 8 71 105 177 905 619 979 510 1003 1809 1219 1264 1092 748 525 1209 670 584 602 583 80 56 21 33 101 319 441 391 111
0 0 0 24 38 15 43 23 19 43 41 27 0 0 0 2 20 41 0 0 5 30 128 226 1421 1895 1428 921 729 1723 1260 1097 993 860 1183 1197 682 886 849 727 713 597 310 524 318 428 465 246 490
0 0 0 0 10 6 16 17 27 49 45 7 0 0 0 0 18 36 0 2 31 56 38 287 580 2093 2689 1121 615 958 1214 1183 889 1045 1459 1153 814 1229 1132 713 676 1001 508 528 280 243 698 251 307
0 0 0 0 0 2 19 7 2 48 12 0 0 0 0 3 29 0 0 0 6 49 52 119 1120 2464 2851 3088 968 1353 1329 901 1139 880 918 996 905 1412 986 1243 875 758 516 626 951 889 733 860 475
0 1 0 0 0 5 16 7 5 9 0 0 0 0 3 4 2 0 0 0 13 85 103 157 1207 2597 2784 2531 2925 2451 2431 1181 937 716 598 969 1151 1281 920 1005 1257 1416 1303 711 618 600 688 573 285
0 5 4 1 1 0 19 4 0 0 0 0 0 0 0 3 0 0 0 6 8 119 200 1342 2058 2576 3224 3245 3061 2067 1347 1045 832 673 841 858 1219 1420 1192 1011 1600 1650 1357 1222 972 973 813 403 436
0 9 0 0 0 0 21 0 0 0 2 1 15 3 3 0 0 0 0 69 306 456 743 1383 817 2425 3329 3276 2742 1946 1242 1060 562 529 713 1203 1259 1214 1130 1311 1580 1759 1533 1545 1302 670 563 719 255
0 0 0 0 0 3 41 3 0 17 1 12 10 9 0 0 0 5 0 52 289 761 1433 1340 2124 2032 3299 3545 2450 2192 2340 976 584 595 778 810 1021 1093 1605 1436 1565 1512 1498 1095 793 734 1228 896 532
0 0 0 0 0 9 20 36 23 60 1 1 0 9 1 0 0 0 30 52 255 1113 1687 2044 2002 2646 3449 2720 3012 1599 960 846 588 730 709 768 1063 1084 1712 1367 1354 1376 1129 829 898 1032 962 1003 1062
0 0 0 0 0 18 11 18 4 27 0 3 0 0 0 0 0 8 1 103 43 461 1002 1957 2045 2711 2802 2315 1853 1328 861 978 716 742 761 994 1142 1448 1384 1312 1118 1176 1284 1090 782 718 405 789 1046
0 0 0 0 0 26 16 5 0 0 1 0 0 0 0 0 0 0 3 0 462 566 984 1196 1514 2872 2892 2309 2061 1270 1178 703 708 634 936 1086 1036 1070 1271 1195 1082 1032 1205 944 495 583 687 663 1134
0 0 0 0 0 5 3 0 0 0 0 0 0 0 0 0 0 0 0 21 576 719 956 975 1290 2184 2754 2331 1772 1376 937 771 758 588 801 1008 904 868 1004 1012 914 848 936 715 813 826 671 860 824
0 0 0 0 0 0 4 0 0 0 0 0 0 0 0 0 0 0 0 691 685 769 955 1160 1549 1993 1829 1950 1424 2142 985 585 458 672 426 583 552 624 514 720 737 945 786 807 869 864 720 663 836
0 0 0 1 0 0 0 0 0 0 0 0 0 0 0 0 0 0 0 726 676 795 1039 1534 1595 1401 1409 1437 1665 812 866 511 412 239 581 873 842 584 440 636 639 652 910 888 865 634 577 989 1089
0 0 2 2 0 0 0 0 0 0 0 0 3 0 0 0 0 2 651 684 715 841 1217 1283 1052 1068 892 747 821 916 640 381 252 425 491 969 709 496 435 341 446 502 743 801 911 612 653 990 1001
0 5 3 2 0 0 0 0 0 0 0 0 0 0 0 46 196 419 605 638 747 918 999 974 942 877 721 680 640 767 826 738 648 604 731 551 608 829 538 310 432 624 882 788 661 708 698 987 1035
0 0 0 0 0 0 0 0 0 0 0 0 0 0 197 356 462 484 590 641 731 819 803 696 806 699 575 580 647 641 771 516 347 431 246 544 436 545 328 386 531 681 665 663 761 1370 814 760 922
0 3 0 1 8 9 3 1 0 0 1 0 0 0 0 479 621 597 623 660 635 679 630 703 680 578 502 451 599 676 693 308 756 580 499 521 807 254 191 264 454 542 619 491 696 962 773 795 888
1 0 0 0 8 13 2 1 0 0 0 0 0 24 332 620 678 664 631 595 589 523 598 681 591 494 342 511 484 649 484 484 564 474 318 161 204 48 82 147 309 334 346 373 677 994 958 937 820
0 7 0 0 7 10 10 0 0 0 0 41 8 90 646 692 622 588 554 581 509 539 584 542 346 264 407 405 661 970 847 331 474 392 202 155 120 39 54 73 98 100 195 545 756 838 635 536 1007
0 4 0 3 3 1 9 5 0 1 13 78 207 472 629 595 571 525 549 520 503 564 518 245 218 130 281 287 512 1004 988 470 536 445 171 79 53 15 36 60 88 70 626 472 648 427 339 558 696

GFSSGP_con_sbcape_012.txt.gz
CAPE
0 0 0 0 0 0 0 0 0 22 1 0 0 0 0 0 0 1 2 27 940 514 487 541 909 834 729 586 453 350 213 109 64 2 0 0 0 0 0 0 0 0 0 0 0 0 0 0 0
0 0 0 0 0 0 0 0 0 19 0 0 0 0 0 0 0 47 76 114 729 699 616 229 1007 970 958 840 690 594 478 295 205 130 27 0 0 0 0 0 0 0 3 0 0 4 17 47 13
0 0 0 0 0 0 0 0 0 13 0 0 0 0 0 0 0 14 144 106 790 870 623 292 1164 1151 1214 1116 960 779 654 531 420 279 177 36 23 15 23 10 8 17 36 87 67 72 48 377 319
0 0 0 0 0 0 1 124 83 1 18 0 0 0 0 0 0 0 23 30 185 997 557 1211 1179 1287 1402 1323 1143 1037 964 838 717 565 445 374 329 395 401 151 88 66 102 203 363 452 619 548 386
0 0 0 0 0 0 0 42 4 37 98 8 0 0 0 7 11 1 98 35 38 160 925 1330 1272 1391 1561 1564 1397 1273 1153 1070 987 826 703 617 662 719 714 550 339 522 586 660 586 830 743 651 415
0 0 0 0 0 0 0 0 0 0 0 0 5 10 3 19 7 1 0 23 18 3 526 1822 1483 1462 1586 1645 1603 1430 1274 1333 1309 1182 1109 1053 1061 1073 991 1065 936 899 828 763 688 679 592 444 436
0 0 0 0 0 0 0 0 0 0 0 0 0 2 0 15 12 0 0 11 11 53 102 2027 1628 1550 1709 1757 1725 1606 1558 1552 1531 1481 1521 1512 1391 1333 1328 1233 924 841 668 451 329 326 528 523 557
0 0 0 0 0 0 0 0 0 0 0 0 0 0 10 25 5 9 0 0 0 41 77 1624 2002 1728 1403 1254 2083 1948 1898 1878 1861 1861 1824 1703 1484 1350 1447 1402 876 533 252 163 165 166 231 557 775
0 0 0 0 0 0 0 0 0 0 4 0 1 1 0 0 0 3 6 1 0 2 216 351 1858 2118 1647 952 1359 2230 2092 2076 2053 1881 1802 1662 854 454 883 1118 654 571 411 303 80 67 125 183 375
0 0 0 0 0 0 0 0 0 0 5 4 6 10 5 2 5 1 2 5 7 22 80 186 1282 2136 1767 786 874 1669 1685 1690 1625 1232 1173 1191 824 1020 711 664 596 532 332 85 85 158 273 338 114
0 0 0 0 0 0 0 4 4 1 13 22 30 14 4 0 0 0 0 6 8 18 99 198 1144 1596 1560 949 1041 1809 1292 1319 1328 1256 1197 1286 1549 1250 930 757 711 467 315 106 206 179 345 414 271
0 0 0 0 0 0 0 0 0 0 1 4 9 53 0 0 0 0 0 4 3 46 115 912 720 1621 1578 1136 1306 1925 1722 1406 1307 1256 1459 1475 1666 1308 1292 957 1056 599 834 502 568 245 662 505 459
0 0 0 0 0 0 0 0 2 0 8 11 0 18 16 0 0 0 11 36 69 147 303 915 1060 1627 2029 2510 863 1618 1826 1490 1292 1304 1570 1480 1214 1199 1729 1554 1486 1515 1058 800 983 754 466 597 286
0 0 0 0 2 2 5 0 0 0 2 0 2 22 3 0 5 17 4 66 227 375 489 1349 1665 1674 2109 1471 2451 1700 2255 1457 1323 1282 1494 1530 1315 1542 1619 1767 1556 1538 1574 959 707 437 623 228 530
0 0 2 0 1 2 18 0 0 0 0 0 0 12 17 13 6 27 6 224 365 428 659 1961 2616 2267 2301 1972 2095 3029 1989 2100 1411 1545 1969 1308 1503 1855 1766 1448 1571 1751 1433 1069 766 614 267 117 437
0 0 0 0 0 0 34 9 0 0 0 11 0 22 31 5 40 19 74 347 425 1014 955 2593 497 2542 2595 2610 2124 2410 1819 1752 1401 1444 1377 1453 1912 1824 1770 1500 1516 1626 1459 1374 916 769 536 296 424
0 0 0 0 0 0 24 56 0 1 37 17 34 44 1 0 14 115 281 140 503 1310 2127 2374 1952 2454 2905 3096 2825 2472 3042 1926 1778 1249 1193 1512 1613 1615 1603 1489 1712 1551 1440 1121 848 754 547 522 355
0 0 0 0 0 0 15 66 0 0 31 61 62 34 0 0 4 143 277 220 240 1639 2234 2862 2863 3218 3097 3054 3054 2442 2452 2083 1727 1519 1612 1962 1620 1600 1636 1609 1688 1437 1232 1045 764 685 594 538 331
0 0 0 0 0 0 14 72 7 0 2 0 29 0 0 0 37 27 205 271 464 1462 3171 3712 3533 3786 2880 2722 2452 2341 1823 1572 1630 1802 1781 1439 1411 1492 1644 1506 1488 1250 1124 866 683 491 392 420 304
0 0 0 0 0 0 24 29 16 0 0 0 0 20 0 0 0 19 126 412 417 1991 3065 3328 3611 3462 2894 2739 2602 2370 1792 1294 1324 1511 1706 1672 1592 1781 1314 1312 1273 1107 982 867 586 536 434 430 181
0 0 0 0 0 0 25 6 0 0 0 0 0 0 0 0 0 0 1 77 1796 2194 2494 2515 2584 2801 2948 2953 2560 2948 2203 1752 1753 1897 1806 1613 1350 1299 1060 1230 1090 904 737 616 760 704 501 578 405
0 0 0 0 0 0 3 6 6 0 0 5 1 1 0 0 5 3 25 194 1603 1674 1714 1929 2143 3035 2727 3051 2427 1755 1238 1392 1419 1450 1419 1384 1130 849 726 927 790 1064 915 876 647 961 735 554 297
0 0 0 0 0 1 0 0 0 0 0 0 0 0 1 0 0 0 0 1351 1274 1442 1615 1887 2441 2542 2712 2392 1890 1722 1562 1930 1768 1417 1630 1456 1320 916 529 769 758 814 933 925 884 768 742 692 516
0 0 0 0 0 10 0 0 0 0 0 0 0 0 1 8 3 29 954 1184 1315 1414 1791 2274 2330 2239 1682 1783 1823 1811 2068 1742 1305 1096 1421 1335 1151 1070 760 601 613 687 797 999 801 786 579 480 367
0 14 0 0 0 0 0 0 0 0 0 0 0 0 0 248 759 1129 1050 1119 1177 1568 1837 1760 1654 1265 1612 1580 1422 1892 1793 1641 1417 1292 1382 1107 1038 1015 659 571 248 494 869 985 924 904 824 476 424
0 0 0 0 0 0 0 0 0 0 0 0 0 0 112 448 877 1053 1138 1077 1321 1577 1478 1233 1295 1243 1275 1194 1607 1723 1760 1070 1542 1182 1070 950 863 731 751 261 352 780 781 890 845 885 988 897 591
0 0 0 0 0 0 0 1 1 0 0 0 0 0 669 730 911 990 1113 1178 1275 1345 1307 1254 1171 1093 1160 1235 1513 1636 1506 1229 1451 1253 1334 995 762 531 647 538 698 753 690 673 531 333 837 756 1035
1 0 0 0 1 22 0 10 11 0 1 0 0 21 850 975 906 1056 1041 1223 1208 1140 1218 1253 1125 1011 1032 1209 1249 1104 1066 1288 1207 1115 715 715 768 722 589 331 595 657 519 264 499 754 886 745 904
0 0 0 21 2 2 19 26 19 0 0 0 0 499 1015 991 930 985 1020 1130 1140 1096 1239 1214 1062 946 975 1081 1354 1213 1064 687 733 708 576 669 554 440 311 218 218 320 215 478 657 592 777 764 768
0 0 4 5 0 0 14 46 195 0 0 6 444 890 943 968 895 831 877 874 804 917 885 964 717 540 813 764 942 1045 1174 621 805 699 203 716 569 252 204 147 68 335 475 710 406 592 362 619 644

GFSSGP_con_sbcape_015.txt.gz
CAPE
0 0 0 0 0 0 0 0 0 0 0 0 0 0 0 0 0 0 5 177 54 194 539 816 1009 764 642 496 371 185 112 64 33 0 0 0 0 0 0 0 0 0 0 0 0 0 0 0 0
0 0 0 0 0 0 0 0 0 1 2 0 0 0 0 2 7 0 173 260 95 144 394 387 1034 793 697 617 441 282 203 172 125 51 0 0 0 0 0 0 0 0 0 1 0 0 0 27 16
0 0 0 0 0 0 0 0 1 0 0 0 0 0 0 0 5 3 0 339 183 198 175 307 1022 936 793 681 580 437 347 326 318 118 45 0 0 0 0 0 0 0 0 28 64 61 36 33 395
0 0 0 0 0 0 0 0 24 0 0 0 0 0 0 0 0 0 329 352 305 306 70 867 1091 1010 917 831 738 681 589 562 511 372 189 100 90 252 261 51 0 0 19 66 188 323 427 325 446
0 0 0 0 0 0 0 0 21 27 11 1 0 0 0 0 8 9 155 510 368 210 31 717 1248 1287 1192 1135 1037 912 816 776 782 750 510 429 610 616 572 255 199 222 382 470 521 564 591 512 440
0 0 0 0 0 0 0 0 21 70 69 9 0 0 0 0 0 0 0 189 231 109 75 540 1284 1458 1440 1322 1253 1103 988 984 1019 991 921 905 920 922 715 574 548 662 715 741 674 651 684 780 536
0 0 0 0 0 0 0 0 0 0 0 0 0 0 0 0 0 0 0 0 180 202 429 557 670 1186 1692 1522 1381 1266 1136 1123 1135 1073 1079 1199 1218 1222 1193 1210 1251 1022 868 688 565 451 448 726 646
0 0 0 0 0 0 0 0 0 0 0 0 0 0 0 0 0 0 0 0 0 272 639 585 516 588 715 939 1728 1584 1431 1373 1320 1301 1302 1419 1464 1421 1444 1255 1337 896 683 525 492 255 239 325 843
0 0 0 0 0 0 0 0 0 0 0 0 0 0 0 0 0 0 0 0 0 216 860 705 619 510 559 510 1286 1749 1828 1667 1585 1547 1597 1449 948 874 717 1014 1235 1045 800 664 477 328 175 199 348
9 0 0 0 0 0 0 0 0 0 0 0 0 0 0 0 0 0 0 0 0 0 842 893 776 656 661 484 659 1153 1218 1270 1345 1268 1246 959 633 166 257 632 1621 1028 1154 969 554 308 150 200 60
0 0 0 0 0 0 0 0 0 0 0 0 0 0 0 0 0 0 0 0 0 0 124 961 878 829 785 581 680 997 984 1226 1285 1002 764 752 415 255 559 280 728 464 796 155 205 110 121 165 94
0 0 0 0 0 0 0 0 0 0 0 0 0 0 0 0 0 0 0 0 0 0 0 705 1021 1030 815 492 547 876 802 905 983 874 513 633 504 561 370 327 339 180 106 28 8 30 21 30 170
0 0 0 0 0 0 0 0 0 0 0 0 0 0 0 0 0 0 0 0 0 0 0 449 1110 1307 927 346 650 884 808 843 782 796 621 467 611 426 293 260 309 282 212 158 219 75 131 214 107
0 0 0 0 0 0 0 0 0 0 0 0 0 0 0 0 0 0 0 0 0 0 0 145 670 1115 947 544 809 934 916 915 791 804 768 666 567 382 455 670 645 405 315 214 117 155 143 16 0
0 0 0 0 0 0 0 0 0 0 0 0 0 0 0 0 0 0 0 0 0 12 2 437 447 617 852 712 437 919 1045 960 842 563 801 886 656 539 733 622 564 626 537 415 292 223 127 15 1
0 0 0 0 0 0 0 0 0 0 0 0 0 0 0 0 0 0 0 0 10 14 36 253 749 823 992 792 1171 738 989 806 683 573 903 809 615 684 737 602 505 690 664 581 381 144 112 20 8
0 0 0 0 0 0 0 0 0 0 0 0 0 0 0 0 0 0 0 0 18 12 0 435 1060 1143 1200 1081 1049 1257 1083 628 431 359 367 802 722 819 674 629 460 679 656 565 444 411 243 78 44
0 0 0 0 0 0 0 0 0 0 0 0 0 0 0 0 0 0 0 0 0 0 173 421 519 1412 1582 1758 1255 1477 1434 730 525 370 334 576 722 779 744 678 624 657 607 591 418 317 178 134 84
0 0 0 0 0 0 0 0 0 0 0 0 0 0 0 0 0 0 0 0 0 0 85 420 1071 1798 2046 1912 1690 1435 1365 766 569 442 596 722 766 816 757 591 643 636 436 364 243 210 201 76 43
0 0 0 0 0 0 0 0 0 0 0 0 0 0 0 0 0 0 0 0 0 0 545 1239 1856 2020 2020 1842 1627 1348 1005 599 551 629 393 478 475 508 734 556 585 418 361 343 233 205 128 82 0
0 0 0 0 0 0 0 0 0 0 0 0 0 0 0 0 0 0 0 0 0 1160 1532 2002 2241 1870 1702 1754 1631 1183 550 503 482 481 500 512 577 503 479 325 367 296 295 185 119 226 168 40 25
0 0 0 0 0 0 0 0 0 0 0 0 0 0 0 0 0 0 0 0 633 1291 1389 1483 2011 1812 1904 1677 1506 1045 600 568 468 344 498 711 414 237 235 265 218 183 57 127 121 154 104 72 72
0 0 0 0 0 0 0 0 0 0 0 0 0 0 0 0 0 0 0 21 893 960 1032 1198 1875 1678 1795 1400 970 432 522 457 361 266 224 177 104 169 198 166 149 83 85 58 107 116 152 80 58
0 0 0 0 0 0 0 0 0 0 0 0 0 0 0 16 0 25 619 757 859 1046 1304 1548 1515 1471 1143 903 532 330 533 359 221 208 228 247 101 33 3 20 5 0 0 95 126 39 41 90 111
0 0 0 0 0 0 0 0 0 0 0 0 0 0 56 405 471 583 703 839 1092 1432 1499 1457 996 987 882 487 629 340 323 242 194 92 136 52 83 21 1 0 0 0 58 251 230 37 17 49 60
0 0 0 0 0 0 0 0 0 0 0 0 0 0 425 544 556 587 609 976 1369 1349 1107 602 649 739 407 664 503 347 186 149 105 95 61 50 0 0 0 0 0 93 226 285 238 113 107 144 81
0 0 0 0 0 0 0 0 0 0 0 0 0 7 397 486 623 604 735 1110 1045 788 656 572 605 501 434 520 542 244 344 282 139 16 0 0 0 0 0 0 0 55 130 140 75 31 54 125 107
0 0 0 0 0 0 0 0 0 0 0 0 0 239 344 441 588 563 792 888 782 679 594 531 470 453 484 470 325 242 268 168 78 8 7 0 0 4 0 0 7 21 87 82 42 8 134 191 177
0 0 0 0 0 0 0 0 0 0 0 0 0 364 320 475 532 696 771 705 601 612 538 473 435 406 467 373 185 136 262 146 16 5 0 0 0 0 0 0 24 20 39 33 50 50 157 143 240
0 0 0 0 0 0 0 0 0 1 0 52 167 348 432 497 568 643 599 580 531 563 477 406 351 296 356 403 258 208 79 90 7 0 5 0 0 0 0 4 22 141 175 11 5 64 55 177 120

GFSSGP_con_sbcape_018.txt.gz
CAPE
0 0 0 0 0 0 0 0 0 0 0 0 0 0 0 0 0 0 8 0 24 160 595 978 1020 889 741 523 349 225 130 66 32 0 0 0 0 0 0 0 0 0 0 0 0 0 0 0 0
0 0 0 0 0 0 0 0 0 0 0 0 0 0 0 1 0 59 112 91 4 280 526 585 1062 931 796 524 394 233 153 105 70 21 0 0 0 0 0 0 0 0 0 0 0 0 0 3 16
0 0 0 0 0 0 0 0 0 14 0 0 0 0 0 3 5 29 35 91 101 245 341 475 1099 950 857 639 449 248 197 199 109 25 15 0 0 0 0 0 0 0 0 0 0 0 8 2 160
0 0 0 0 0 0 0 0 0 6 0 0 0 0 0 0 5 3 202 141 122 197 212 972 1105 948 928 793 570 355 327 396 324 157 70 54 38 79 53 0 0 0 0 42 100 209 197 200 166
0 0 0 0 0 0 0 0 0 6 3 0 0 0 0 0 1 301 250 178 93 71 97 868 1169 990 1002 957 774 556 516 515 559 504 346 224 370 328 147 109 99 100 132 201 332 405 642 456 391
0 0 0 0 0 0 0 0 0 0 27 5 1 0 0 0 36 372 259 186 88 2 26 565 1254 1177 1097 1060 884 768 710 690 709 758 731 692 752 699 505 332 281 330 467 621 741 692 640 648 631
0 0 0 0 0 0 0 0 0 0 5 4 6 8 0 0 0 101 281 190 112 0 3 236 523 985 1466 1210 1035 902 808 794 807 888 907 947 1002 988 996 914 780 709 973 954 769 602 586 598 611
0 0 0 0 0 0 0 0 0 0 0 0 0 0 0 0 0 0 6 147 108 34 63 144 145 285 568 814 1431 1049 966 951 859 1000 1049 1070 1188 1141 1162 1046 1256 1145 1144 1012 854 537 337 346 489
0 0 0 0 0 0 0 0 0 0 0 0 0 0 0 0 0 0 0 0 169 175 206 222 184 164 294 341 916 1227 1220 1160 1063 1074 1147 1007 782 858 804 1070 1027 1437 1353 1094 791 584 422 284 211
0 0 0 0 0 0 0 0 0 0 0 0 0 0 0 0 0 0 0 0 47 214 421 361 326 192 207 225 381 807 664 715 709 649 693 723 613 428 647 651 1425 1611 1498 1094 892 795 469 158 39
0 0 0 0 0 0 0 0 0 0 0 0 0 0 0 0 0 0 0 0 0 9 520 535 422 331 164 68 207 741 563 646 697 635 662 755 528 369 328 182 811 1130 1139 669 772 503 198 49 36
0 0 0 0 0 0 0 0 0 0 0 0 0 0 0 0 0 0 0 0 0 0 346 723 543 494 326 147 119 507 507 646 737 734 679 625 297 171 107 156 193 321 316 208 15 0 2 0 32
0 0 0 0 0 0 0 0 0 0 0 0 0 0 0 0 0 0 0 0 0 0 0 572 646 640 524 311 336 357 419 595 719 720 563 514 329 232 189 146 105 126 50 52 9 0 29 0 0
0 0 0 0 0 0 0 0 0 0 0 0 0 0 0 0 0 0 0 0 0 0 0 163 642 703 643 470 366 501 445 379 532 620 521 472 407 329 264 193 83 158 95 43 38 98 70 68 31
0 0 0 0 0 0 0 0 0 0 0 0 0 0 0 0 0 0 0 0 0 0 0 14 544 786 711 549 307 562 569 578 547 523 515 502 447 322 298 301 393 261 198 139 71 45 21 31 0
0 0 0 0 0 0 0 0 0 0 0 0 0 0 0 0 0 0 0 0 0 0 0 0 442 874 813 657 388 657 676 699 641 535 632 665 524 324 362 402 313 292 270 165 104 25 0 0 0
0 0 0 0 0 0 0 0 0 0 0 0 0 0 0 0 0 0 0 0 0 0 0 0 197 534 709 699 392 706 777 790 611 537 741 755 598 515 522 441 326 339 410 373 309 258 89 8 3
0 0 0 0 0 0 0 0 0 0 0 0 0 0 0 0 0 0 0 0 0 0 0 0 303 447 599 446 602 550 529 483 384 551 722 685 648 613 492 406 292 303 404 389 278 278 92 125 38
0 0 0 0 0 0 0 0 0 0 0 0 0 0 0 0 0 0 0 0 0 0 0 0 371 595 813 745 1067 873 789 392 212 301 491 578 556 569 300 298 312 362 442 368 152 116 195 29 0
0 0 0 0 0 0 0 0 0 0 0 0 0 0 0 0 0 0 0 0 0 0 0 1 282 1015 1189 1157 1103 1043 612 294 272 151 285 280 438 385 408 343 279 293 141 99 0 35 0 0 0
0 0 0 0 0 0 0 0 0 0 0 0 0 0 0 0 0 0 0 0 0 0 0 94 657 1298 1395 1111 800 501 281 180 216 175 252 220 268 288 321 130 162 78 13 0 0 0 0 0 0
0 0 0 0 0 0 0 0 0 0 0 0 0 0 0 0 0 0 0 0 0 9 651 1181 1238 1290 1195 1262 1102 887 619 428 235 227 111 170 214 213 123 85 71 4 0 0 0 0 0 0 0
0 0 0 0 0 0 0 0 0 0 0 0 0 0 0 0 0 0 0 0 50 776 1136 1372 1326 1509 1267 1017 803 540 417 197 129 170 170 25 16 21 62 41 1 0 0 0 0 0 0 0 0
0 0 0 0 0 0 0 0 0 0 0 0 0 0 0 0 0 0 77 393 590 825 1373 1339 1451 1112 978 667 337 421 189 196 71 48 46 21 7 1 10 0 0 0 0 0 0 0 0 0 0
0 0 0 0 0 0 0 0 0 0 0 0 0 0 0 80 142 384 591 661 848 1076 1091 996 1035 780 394 195 136 113 59 51 28 41 33 24 4 0 0 0 0 0 0 0 0 0 0 0 7
0 0 0 0 0 0 0 0 0 0 0 0 0 0 76 262 228 428 729 1011 1099 1036 747 610 580 145 160 47 9 2 0 0 0 14 0 0 0 0 0 0 0 0 0 7 34 0 0 0 0
0 0 0 0 0 0 0 0 0 0 0 0 0 0 253 322 419 783 976 1044 715 598 343 353 105 151 93 7 0 0 0 0 0 0 0 0 0 0 0 0 0 0 0 20 6 0 5 15 0
0 0 0 0 0 0 0 0 0 0 0 0 0 21 215 304 472 791 877 596 422 224 155 49 67 138 66 0 12 1 0 0 0 0 0 0 0 0 0 0 0 0 0 0 2 3 7 21 12
0 0 0 0 0 0 0 0 0 0 0 0 0 57 276 304 579 762 667 430 383 212 125 35 78 114 39 1 12 14 0 0 0 0 0 0 0 0 0 0 0 5 3 0 0 11 2 74 49
0 0 0 0 0 0 0 0 0 0 0 0 84 298 278 331 641 664 519 508 341 243 113 80 66 68 26 0 4 16 0 0 0 0 0 0 0 0 0 0 4 17 15 0 0 8 86 33 43

GFSSGP_con_sbcape_024.txt.gz
CAPE
0 0 0 0 0 0 0 0 0 0 0 0 0 0 0 0 0 0 0 0 0 40 921 1374 1530 1299 930 787 616 508 326 115 12 0 0 0 0 0 0 0 0 0 0 0 0 0 0 0 0
0 0 0 0 0 0 0 0 0 0 0 0 0 0 0 0 0 2 0 5 3 167 634 857 1564 1278 1154 858 646 529 359 161 50 0 0 0 0 0 0 0 0 0 0 0 0 0 0 0 0
0 0 0 0 0 0 0 0 0 0 0 0 0 0 0 0 0 14 0 57 61 212 491 512 1582 1341 1288 1014 701 526 367 230 120 43 26 25 25 24 9 0 0 0 0 0 0 0 0 0 0
0 0 0 0 0 0 0 0 0 0 0 0 0 0 0 0 0 0 18 111 96 137 340 595 1504 1366 1295 1164 911 599 484 369 236 185 131 88 53 60 49 0 0 0 0 2 0 0 0 0 0
0 0 0 0 0 0 0 0 0 0 0 0 0 0 0 0 0 21 38 105 103 159 208 462 1534 1413 1417 1302 1031 757 624 482 365 309 232 150 170 115 52 30 31 39 46 92 153 211 302 394 464
0 0 0 0 0 0 0 0 0 0 0 0 0 0 0 0 0 22 41 24 25 116 132 207 1376 1421 1437 1335 1102 842 689 585 510 430 358 280 283 224 90 77 74 104 162 220 272 367 567 953 766
0 0 0 0 0 0 0 0 0 0 0 0 0 0 0 0 0 58 38 9 8 19 50 94 744 995 1583 1310 1033 880 776 657 568 518 472 465 457 446 368 382 353 246 422 510 645 850 945 882 823
0 0 0 0 0 0 0 0 0 0 0 0 0 0 0 0 0 78 34 22 0 0 0 11 335 547 602 724 1294 1056 981 843 739 751 719 718 679 678 694 594 696 554 685 798 958 1005 898 695 645
0 0 0 0 0 0 0 0 0 0 0 0 0 0 0 0 0 0 34 41 43 25 1 7 102 191 267 303 567 1162 1016 1114 910 948 979 714 460 553 507 739 726 880 1115 1187 1290 1206 997 594 452
0 0 0 0 0 0 0 0 0 0 0 0 0 0 0 0 0 0 0 0 45 79 50 3 43 113 132 146 182 489 443 426 501 488 521 476 352 354 498 672 824 1017 1241 1304 1355 1278 873 558 172
0 0 0 0 0 0 0 0 0 0 0 0 0 0 0 0 0 0 0 0 0 42 65 23 34 67 61 67 42 213 350 303 401 363 347 406 330 426 667 350 597 642 1044 971 1295 1114 689 305 65
0 0 0 0 0 0 0 0 0 0 0 0 0 0 0 0 0 0 0 0 0 0 29 91 76 64 54 52 16 51 225 210 300 328 279 308 338 254 417 244 170 364 595 864 635 407 313 178 50
0 0 0 0 0 0 0 0 0 0 0 0 0 0 0 0 0 0 0 0 0 0 0 13 102 79 20 15 0 0 102 141 149 241 296 288 285 175 195 175 29 63 228 431 375 176 92 39 16
0 0 0 0 0 0 0 0 0 0 0 0 0 0 0 0 0 0 0 0 0 0 0 0 51 96 68 6 0 0 1 88 81 174 347 306 234 84 38 38 21 18 49 148 174 75 27 13 23
0 0 0 0 0 0 0 0 0 0 0 0 0 0 0 0 0 0 0 0 0 0 0 0 0 52 56 25 0 0 0 45 71 150 320 384 209 33 12 7 0 15 21 49 4 12 5 25 28
0 0 0 0 0 0 0 0 0 0 0 0 0 0 0 0 0 0 0 0 0 0 0 0 0 10 98 141 100 5 0 47 81 176 363 393 226 32 19 3 10 7 12 3 9 0 19 55 93
0 0 0 0 0 0 0 0 0 0 0 0 0 0 0 0 0 0 0 0 0 0 0 0 0 0 59 171 204 132 39 49 115 235 393 438 235 138 97 66 67 94 93 28 12 1 49 69 25
0 0 0 0 0 0 0 0 0 0 0 0 0 0 0 0 0 0 0 0 0 0 0 0 0 0 19 126 182 116 102 192 156 189 355 363 320 262 165 125 140 125 95 36 15 84 4 21 1
0 0 0 0 0 0 0 0 0 0 0 0 0 0 0 0 0 0 0 0 0 0 0 0 0 0 0 132 97 111 272 254 240 308 325 337 314 281 185 170 128 51 158 146 83 23 25 2 2
0 0 0 0 0 0 0 0 0 0 0 0 0 0 0 0 0 0 0 0 0 0 0 0 0 0 52 197 178 218 257 154 254 349 426 436 376 284 237 156 94 68 65 67 4 0 1 1 2
0 0 0 0 0 0 0 0 0 0 0 0 0 0 0 0 0 0 0 0 0 0 0 0 0 0 62 80 10 0 0 0 144 331 424 486 382 324 277 154 106 41 35 25 0 0 0 0 1
0 0 0 0 0 0 0 0 0 0 0 0 0 0 0 0 0 0 0 0 0 0 0 0 0 0 2 77 121 148 68 129 112 299 253 291 297 250 135 105 66 20 0 0 0 0 0 0 0
0 0 0 0 0 0 0 0 0 0 0 0 0 0 0 0 0 0 0 0 0 0 0 0 0 5 36 75 53 68 119 0 7 55 109 159 101 130 114 40 9 10 0 0 0 0 0 0 0
0 0 0 0 0 0 0 0 0 0 0 0 0 0 0 0 0 0 0 2 1 74 21 103 109 90 38 91 25 2 0 1 23 35 64 18 4 11 20 6 0 0 0 0 0 0 0 0 0
0 0 0 0 0 0 0 0 0 0 0 0 0 0 0 0 0 0 0 70 248 213 220 211 193 64 3 0 0 0 3 28 10 33 3 1 0 0 0 0 0 0 0 0 0 0 0 0 0
0 0 0 0 0 0 0 0 0 0 0 0 0 0 0 0 0 0 137 261 341 320 254 82 34 0 0 0 0 0 0 3 0 1 0 0 0 0 0 0 0 0 0 0 0 0 0 0 0
0 0 0 0 0 0 0 0 0 0 0 0 0 0 0 0 0 53 127 388 243 128 22 2 0 0 0 0 0 0 0 0 0 0 0 0 0 0 0 0 0 0 0 0 0 0 0 0 0
0 0 0 0 0 0 0 0 0 0 0 0 0 0 0 0 56 119 279 112 3 0 0 0 0 0 0 0 0 0 0 0 0 0 0 0 0 0 0 0 0 0 0 0 0 0 0 0 0
0 0 0 0 0 0 0 0 0 0 0 0 0 0 0 0 207 186 89 15 0 0 0 0 0 0 0 0 0 0 0 0 0 0 0 0 0 0 0 0 0 0 0 0 0 0 0 0 0
0 0 0 0 0 0 0 0 0 0 0 0 0 4 0 223 245 138 46 0 0 0 0 0 0 0 0 0 0 0 0 0 0 0 0 0 0 0 0 0 0 0 0 0 0 0 15 0 0

GFSSGP_con_sbcape_027.txt.gz
CAPE
0 0 0 0 0 0 0 0 0 0 0 0 0 0 3 3 1 16 2 98 62 144 705 1235 1559 1421 1219 992 909 879 808 767 618 521 396 171 100 34 0 0 0 0 0 0 0 0 0 0 0
0 0 0 0 0 0 0 0 0 0 0 0 0 0 0 0 0 0 6 118 95 549 1067 436 1606 1442 1275 1049 855 677 524 450 317 192 84 44 44 16 0 0 0 0 0 0 0 0 0 0 0
0 0 0 0 0 0 0 0 0 0 0 0 0 0 0 0 0 2 12 172 144 659 875 840 1661 1429 1356 1117 887 671 456 290 149 73 58 56 32 30 13 0 0 0 0 0 0 0 0 0 0
0 0 0 0 0 0 0 0 0 0 0 0 0 0 0 0 21 47 116 177 331 524 537 835 1658 1439 1436 1257 994 734 494 340 193 131 118 106 100 73 34 23 11 0 0 0 16 19 23 13 11
0 0 0 0 0 0 0 0 0 0 0 0 0 0 0 0 47 226 304 298 367 529 737 467 1734 1508 1568 1443 1137 850 639 458 281 221 205 197 158 150 115 66 14 15 29 45 65 115 258 312 345
0 0 0 0 0 0 0 0 0 0 0 0 0 0 0 0 59 334 374 489 420 582 792 419 1552 1541 1531 1539 1291 944 727 620 469 374 347 316 272 244 190 189 104 81 130 216 309 376 429 580 641
0 0 0 0 0 0 0 0 0 0 0 0 0 0 0 0 1 319 370 356 427 534 582 401 694 1136 1531 1455 1211 1067 830 751 586 476 421 463 526 390 338 351 367 426 553 661 742 679 748 988 919
0 0 0 0 0 0 0 0 0 0 0 0 0 0 0 0 177 334 315 297 295 375 429 387 474 655 454 465 1408 1213 1023 934 795 675 628 622 652 551 512 441 563 664 770 830 924 921 1017 927 727
0 0 0 0 0 0 0 0 0 0 0 0 0 0 0 0 167 331 401 360 307 205 335 369 304 706 423 263 551 1289 1243 1153 905 792 759 525 162 209 253 283 673 988 1067 1125 1093 1174 1277 891 657
0 0 0 0 0 0 0 0 0 0 0 0 0 0 0 0 0 0 6 40 310 490 341 251 420 510 584 155 479 727 522 445 632 374 386 409 379 334 221 390 798 1136 1187 1125 1292 1453 1209 773 461
0 0 0 0 0 0 0 0 0 0 0 0 0 0 0 0 0 0 0 0 0 1 329 365 349 527 567 463 402 660 955 786 1027 634 892 888 641 435 427 374 597 561 966 971 1271 1217 1033 705 599
0 0 0 0 0 0 0 0 0 0 0 0 0 0 0 0 0 0 0 0 0 0 0 516 390 554 960 586 301 214 368 593 519 535 1029 964 741 679 849 426 420 704 486 933 1301 1238 1182 1048 783
0 0 0 0 0 0 0 0 0 0 0 0 0 0 0 0 0 0 0 0 0 0 0 0 465 680 744 910 448 336 421 509 479 367 762 875 668 936 632 750 577 652 556 788 1258 1310 1260 1056 844
0 0 0 0 0 0 0 0 0 0 0 0 0 0 0 0 0 0 0 0 0 0 0 0 59 894 760 830 934 657 485 539 484 518 752 796 670 784 492 638 500 593 516 506 1048 1288 1241 1120 792
0 0 0 0 0 0 0 0 0 0 0 0 0 0 0 0 0 0 0 0 0 0 0 8 15 243 1215 1126 920 722 364 329 541 390 930 670 952 926 914 534 614 739 672 793 1182 1072 1084 1023 897
0 0 0 0 0 0 0 0 0 0 0 0 0 0 0 0 0 0 0 0 0 0 0 0 0 3 1146 1302 930 622 591 322 336 376 363 622 736 693 691 500 523 729 750 566 723 948 909 993 1068
0 0 0 0 0 0 0 0 0 0 0 0 0 0 0 0 0 0 0 0 0 0 0 0 0 0 691 1172 900 910 814 340 343 407 403 658 722 630 501 441 590 733 430 467 923 988 945 1435 1371
0 0 0 0 0 0 0 0 0 0 0 0 0 0 0 0 0 0 0 0 0 0 0 0 0 0 24 199 830 730 644 331 390 495 550 733 840 625 773 686 766 583 517 634 1015 1139 1220 1362 1313
0 0 0 0 0 0 0 0 0 0 0 0 0 0 0 0 0 0 0 0 0 0 0 0 0 0 0 150 432 684 753 671 581 598 786 860 825 717 880 676 730 681 667 933 1214 1201 1343 1174 658
0 0 0 0 0 0 0 0 0 0 0 0 0 0 0 0 0 0 0 0 0 0 0 0 0 0 0 249 722 724 845 854 870 756 814 939 957 1038 936 862 763 899 696 1376 1005 975 765 787 256
0 0 0 0 0 0 0 0 0 0 0 0 0 0 0 0 0 0 0 0 0 0 0 0 0 0 75 459 787 889 870 539 663 911 1085 1130 1065 1092 1057 899 712 783 1096 1035 853 1461 1257 989 61
6 0 0 0 0 0 0 0 0 0 0 0 0 0 0 0 0 0 0 0 0 0 0 0 0 0 108 807 870 1021 1044 830 806 664 1149 973 1163 1048 962 775 685 1011 1153 803 1430 1233 1174 868 551
1 0 0 0 0 0 0 0 0 0 0 0 0 0 0 0 0 0 0 0 0 0 0 227 8 0 89 781 1043 1222 1160 1179 1243 1225 912 663 1114 1188 876 831 1072 1354 778 780 1175 911 726 496 467
0 0 0 0 0 0 0 0 0 0 0 0 0 0 0 0 0 0 0 0 0 68 389 377 309 99 277 749 1058 1274 1347 1120 1169 1231 826 1037 1300 1171 1057 1050 1216 1272 1197 1114 771 635 611 493 405
0 1 0 1 2 0 0 0 0 0 0 0 0 0 0 0 0 0 0 0 196 618 617 316 619 605 700 888 1033 1185 1307 1282 1391 1404 1328 1259 1154 1153 1112 1135 1102 1006 810 578 486 562 553 510 509
17 0 0 0 0 0 0 0 0 0 0 0 0 0 0 0 0 0 0 314 701 915 643 1001 1029 947 918 875 851 960 1049 1131 1231 1322 1037 896 969 990 878 862 770 529 300 334 482 513 583 670 589
39 18 0 0 0 0 0 0 0 0 0 0 0 0 0 0 0 0 412 791 771 747 1161 1255 1117 926 821 701 678 778 840 1067 1154 1026 969 816 807 668 584 512 342 155 212 378 611 648 791 734 582
64 23 14 7 0 0 0 0 0 0 0 0 0 0 0 6 1 195 528 639 898 1291 1104 1101 1037 867 724 683 685 725 816 775 736 811 789 756 588 447 406 303 257 221 267 448 811 1047 884 811 670
0 47 16 4 0 0 0 0 0 0 0 0 0 0 106 10 206 395 621 834 1191 1009 981 871 788 720 669 621 580 611 533 533 624 631 556 484 389 320 198 106 113 201 385 623 821 867 677 402 699
0 0 33 32 0 0 0 0 0 0 0 0 0 0 153 299 334 425 654 1047 1152 1001 879 766 782 749 592 530 542 502 422 422 460 415 360 213 148 116 43 50 51 120 181 392 452 447 300 234 543

GFSSGP_con_sbcape_030.txt.gz
CAPE
0 0 0 0 0 0 0 0 0 0 0 0 0 0 2 0 2 103 59 153 121 187 322 1233 1597 1577 1587 1430 1173 909 844 924 1045 1062 951 658 438 166 33 0 0 0 0 0 0 0 0 0 0
0 0 0 0 0 0 0 0 0 0 0 0 0 0 0 2 0 26 31 244 118 511 518 121 1489 1419 1480 1402 1305 1097 986 829 816 837 780 540 454 212 31 0 0 0 0 0 0 0 0 0 0
0 0 0 0 0 0 0 0 0 0 0 0 0 0 0 6 1 0 48 339 305 771 682 99 1501 1426 1456 1328 1233 1152 1114 964 916 875 697 474 256 97 46 22 9 0 0 0 4 1 0 0 0
0 0 0 0 0 0 0 0 0 0 0 0 0 0 0 23 70 0 245 285 610 750 572 802 1446 1445 1401 1327 1161 1022 915 853 782 653 460 230 112 85 71 63 33 3 0 0 9 19 25 45 72
0 0 0 0 0 0 0 0 0 0 0 0 0 2 0 47 220 237 311 294 516 690 635 713 1575 1531 1455 1389 1180 1021 820 556 423 316 226 188 166 156 149 115 60 38 13 29 38 79 139 136 178
0 0 0 0 0 0 0 0 0 0 0 0 0 0 1 114 268 315 245 291 310 552 711 514 1612 1581 1444 1364 1216 985 705 589 429 331 292 283 245 203 181 180 145 181 235 177 189 249 404 542 598
0 0 0 0 0 0 0 0 0 0 0 2 2 5 0 6 162 387 407 377 553 802 1189 1066 949 1141 1501 1439 1214 1024 788 648 516 404 380 402 393 363 316 330 350 431 585 721 754 521 555 657 937
0 0 0 0 0 0 0 0 0 0 0 0 0 0 0 0 169 524 485 586 710 910 932 958 953 526 336 376 1505 1264 1017 897 706 578 632 599 572 558 448 435 494 663 799 868 855 685 792 1067 894
0 0 0 0 0 0 0 0 0 0 0 0 0 0 0 8 289 310 424 400 336 420 919 1079 846 881 433 83 348 1357 1206 1166 992 786 813 547 108 149 125 155 491 859 947 893 872 944 1107 1086 792
0 0 0 0 0 0 0 0 0 0 0 0 0 0 0 0 24 67 116 117 200 295 519 899 1263 1053 832 173 238 701 200 236 224 104 123 167 132 165 87 231 813 1002 1094 1006 1057 1247 1371 992 646
0 0 0 0 0 0 0 0 0 0 0 0 0 0 0 0 0 0 0 0 0 1 1 370 1083 1421 1077 648 248 450 627 570 444 201 681 474 196 334 215 235 363 442 852 841 1192 1373 1158 918 777
0 0 0 0 0 0 0 0 0 0 0 0 0 0 0 0 0 0 0 0 0 0 0 0 855 1691 1772 1111 812 664 552 805 526 353 1180 918 857 1027 547 285 429 708 287 689 1311 1140 1275 1262 1041
0 0 0 0 0 0 0 0 0 0 0 0 0 0 0 0 0 0 0 0 0 0 3 0 196 1466 1890 2095 1457 1455 1026 882 946 591 997 983 528 1222 738 736 405 613 442 680 1322 1292 1375 1432 1291
0 0 0 0 0 0 0 0 0 0 0 0 0 0 0 0 0 0 0 0 0 0 2 9 0 580 1712 1987 2093 1972 2184 1334 1103 885 741 1411 802 1364 521 869 583 559 611 634 1036 1318 1348 1319 1164
0 0 0 0 0 0 0 0 0 0 0 0 0 0 0 0 0 0 0 0 2 0 1 71 135 202 1841 2025 1947 1849 1377 1409 1063 1094 1768 1026 1570 1457 1257 593 642 428 770 1097 827 1137 1443 1254 1128
0 0 0 0 0 0 0 0 0 0 0 0 0 0 0 0 0 0 0 0 0 13 1 6 4 0 760 2003 1607 1234 958 1082 1090 1033 1126 1209 1372 1475 1552 592 646 453 765 694 532 1229 1098 1169 1161
0 0 0 0 0 0 0 0 0 0 0 0 0 0 0 0 0 0 0 0 0 0 0 14 39 0 625 897 795 1393 2173 1383 1001 1007 1170 1195 1215 1289 1191 765 599 1485 579 545 706 705 934 1101 1549
0 0 0 0 0 0 0 0 0 0 0 0 0 0 0 0 0 0 0 0 0 0 56 312 249 768 321 229 755 764 975 1184 1100 1032 1102 1213 1336 1330 1404 964 1067 1137 543 561 526 855 1076 1803 1680
0 0 0 0 0 0 0 0 0 0 0 0 0 0 0 0 0 0 0 0 0 0 169 169 525 1764 292 8 356 883 1050 1277 1170 1028 1214 1243 1367 1319 1385 1099 1035 1013 823 877 1132 1073 1685 1861 1648
0 0 0 0 0 0 0 0 0 0 0 0 0 0 0 0 0 0 0 0 0 1 112 575 599 670 491 124 1104 1021 1329 1278 1337 1176 1332 1398 1258 1443 1417 1392 1261 1131 685 1108 1455 1560 1413 1724 1694
1 3 1 0 1 0 0 0 0 0 0 0 0 0 0 0 0 0 0 0 0 0 20 106 306 426 573 487 817 1564 1515 1504 1583 1537 1312 1175 1478 1391 1486 1573 1483 1238 817 931 1306 2346 1421 1727 1136
2 1 11 13 16 0 0 0 0 0 0 0 0 0 0 0 0 0 0 0 0 0 0 0 1 17 19 653 1609 2361 1573 1380 1469 1592 1192 1614 1524 1619 1546 1397 1536 1372 793 1410 1957 1896 1344 1574 1251
17 10 39 27 33 20 0 1 0 0 0 0 0 0 0 0 0 0 0 0 0 0 0 0 2 542 474 837 1845 1808 1747 1662 1789 1618 1815 1494 1587 1432 1386 1604 1370 1161 1059 2061 1604 1611 1615 1444 775
44 20 25 58 36 41 1 15 0 0 0 0 0 0 0 0 0 0 0 0 0 0 0 39 880 1395 692 1008 1612 1976 1997 1982 1931 2115 1036 1215 1308 1473 1531 1436 1562 1768 1860 1934 1603 1412 1375 1042 523
59 81 89 67 102 57 9 24 0 0 0 0 0 0 0 0 0 0 0 0 0 22 399 947 1395 1324 975 1125 1520 1898 2209 2206 2407 1278 1556 1956 1771 1618 1785 1912 2055 2084 1872 1542 1373 1305 825 767 589
96 90 95 61 41 15 19 20 0 0 0 0 0 0 0 0 0 0 0 0 0 517 1438 1587 1502 1375 1340 1479 1743 2011 2253 2175 2230 2167 2114 2006 1965 1940 2041 2007 1877 1736 1671 1321 1011 684 548 665 769
88 74 126 45 9 60 0 9 0 0 0 0 0 0 0 14 97 20 0 372 1176 1765 1984 1861 1804 1832 1850 1950 2106 2201 2207 2286 2281 2339 2130 1853 1885 1883 1816 1794 1726 1332 916 765 823 402 671 740 1010
213 61 134 69 19 73 11 0 0 0 0 0 0 0 0 561 2 15 557 1608 1936 2248 2281 2260 2180 2061 2035 2078 2090 2196 2325 2265 2142 1858 1583 1544 1597 1480 1539 1356 1017 684 526 572 768 587 824 942 1634
86 198 227 109 65 60 45 0 0 1 0 0 0 0 207 663 439 698 1265 1942 2229 2220 2350 2280 2132 2053 2023 1892 1941 1898 1840 1726 1621 1582 1554 1509 1439 1236 898 626 511 347 419 625 958 959 834 767 953
28 201 113 249 140 10 6 56 0 0 0 0 0 0 245 440 473 950 1446 2057 2105 2175 2140 2134 2006 1911 1813 1765 1739 1642 1469 1403 1417 1362 1289 1038 805 521 320 203 132 197 486 722 738 700 593 567 548

GFSSGP_con_sbcape_033.txt.gz
CAPE
0 0 0 0 0 0 0 0 0 0 0 0 0 0 14 112 56 196 10 1 1 340 688 1045 1829 1741 1358 1245 1623 1861 1962 2059 2122 2005 1754 1328 1055 592 168 33 0 0 0 0 0 0 0 0 0
0 0 0 0 0 0 0 0 0 0 0 0 0 2 38 106 117 117 68 26 79 766 646 82 1780 1801 1602 1228 1100 1341 1531 1658 1759 1701 1322 960 745 437 82 32 0 0 0 0 0 0 0 0 0
0 0 0 0 0 0 0 0 0 10 6 0 0 0 2 85 45 29 196 104 159 797 694 219 1711 1713 1754 1509 1195 1038 1082 1241 1347 1269 1128 903 700 567 215 54 5 0 0 0 0 0 0 0 0
0 0 0 0 0 0 0 2 3 42 1 0 0 0 0 35 52 12 131 123 486 750 616 1280 1548 1589 1711 1661 1391 1242 1094 1025 1070 1005 935 816 632 424 135 81 51 6 0 3 15 20 14 29 79
0 0 0 0 0 0 0 0 22 7 26 39 0 16 1 16 41 51 117 222 462 616 627 1454 1501 1542 1574 1637 1532 1375 1316 1161 1130 1090 932 651 491 223 144 117 56 34 27 18 26 26 64 84 115
0 0 0 0 0 0 0 0 0 0 17 58 28 88 36 105 151 6 14 146 190 375 590 1252 1528 1626 1528 1472 1376 1210 1112 1104 1046 884 757 530 325 252 183 160 128 138 155 144 98 109 199 273 388
0 0 0 0 0 0 0 0 0 0 0 78 117 109 167 146 174 0 0 34 89 244 543 1162 1660 1079 1600 1450 1258 1112 955 838 705 551 457 407 356 334 294 259 239 288 395 561 643 485 510 658 719
0 0 0 0 0 0 0 0 0 0 0 92 64 111 124 74 20 1 7 54 131 241 429 621 1728 539 362 399 1424 1220 1015 880 673 598 576 528 502 456 452 351 385 596 696 882 979 815 778 826 1112
0 0 0 0 0 0 0 0 0 0 0 54 32 81 50 25 164 69 69 132 131 183 345 645 1083 1036 372 113 469 1223 1114 1035 813 702 678 451 8 33 22 76 317 789 954 1058 1078 918 1057 1162 1198
0 0 0 0 0 0 0 0 0 0 0 0 35 0 0 85 164 101 81 145 166 190 273 658 1267 1280 991 201 426 751 192 210 168 58 138 105 79 71 10 92 424 817 1083 1142 1188 1325 1366 1238 650
0 0 0 0 0 0 0 0 0 0 0 2 68 1 1 2 102 203 139 159 129 120 211 278 2294 2389 1631 940 343 1290 1027 689 572 536 404 590 101 165 173 185 199 365 758 464 874 1080 1043 1002 916
0 0 0 0 0 6 0 0 0 0 0 0 72 110 26 9 0 1 0 11 26 17 0 0 196 2544 2830 1338 786 449 797 1300 808 652 1058 757 531 618 783 303 326 888 416 712 840 940 1215 1178 1477
0 0 0 0 0 0 0 0 0 0 0 0 0 22 2 0 0 6 0 0 0 1 1 15 36 2378 3048 3409 1425 1541 1369 1165 1386 975 1329 1309 595 932 565 917 475 853 418 526 1098 1336 1670 1823 1347
0 0 0 0 0 0 0 0 0 0 0 0 0 0 0 0 0 1 0 0 1 10 6 0 19 2645 3048 3127 3563 3302 3030 1750 1720 1583 1803 1788 1117 1195 1002 1325 1008 845 823 753 930 1287 1445 1431 1553
0 0 0 0 0 0 0 0 0 0 0 0 0 0 0 6 26 0 0 137 0 15 61 549 426 980 3533 3981 3733 2903 1465 1978 1443 1570 2717 2631 2142 1791 1710 1421 1139 904 1147 1699 1494 2011 1458 1395 1404
0 0 0 0 0 0 0 0 0 0 0 0 2 8 1 14 19 19 0 7 119 270 236 678 73 446 2849 3407 3010 2308 1478 1030 1135 1349 1664 2676 2844 2406 2392 1162 1293 1277 1254 1210 915 1030 875 1479 1372
0 0 0 0 0 0 0 0 0 0 0 1 4 10 7 30 60 121 3 39 0 30 137 439 776 150 1596 2354 1353 1634 2335 1382 1047 1185 1203 2569 2513 2318 2311 1646 1453 2068 1218 1082 1031 1129 1330 1352 1208
0 0 0 0 0 0 0 0 0 0 0 0 1 0 0 0 3 15 13 0 0 245 625 836 523 1041 1970 982 1839 530 445 1129 1399 1262 1368 2575 2387 1960 2577 1892 1910 1826 1229 1084 1022 1408 1185 1293 1153
0 0 0 0 0 0 0 0 0 0 0 0 0 0 2 12 0 0 2 0 0 154 376 868 902 1851 1052 112 124 106 101 878 1236 1517 2594 2391 2112 2223 2589 1798 2017 1805 1422 1484 1798 1450 1896 1493 1794
0 0 0 0 0 0 0 0 0 0 0 0 0 0 0 0 0 0 0 0 111 170 278 623 1144 1680 2021 569 982 398 1187 796 1289 1563 2397 2158 1785 2141 2197 2195 2045 2050 1323 2200 2079 1878 1197 1150 1897
0 0 0 0 0 2 0 0 0 0 0 0 0 0 0 0 0 0 0 7 48 49 257 324 841 1515 2035 1512 1259 2038 1930 2345 1594 1856 1732 1890 1726 1980 2208 1955 2240 2579 1726 1202 2016 1673 1858 1490 1799
3 0 0 0 4 3 0 1 0 0 0 0 0 0 0 0 0 0 0 0 2 2 4 260 670 1462 1960 2775 1032 2331 1591 1484 1567 1980 1973 1890 1930 1696 1841 1932 1935 2257 1530 1792 1550 1716 1989 2177 1741
8 4 3 1 3 13 2 5 0 0 0 0 0 0 0 0 0 0 0 0 0 0 3 201 849 1530 1735 1996 1697 956 2316 1535 1815 1861 2416 2276 2213 2059 1666 1839 1935 2000 1563 1944 2100 2712 2420 1791 1235
21 12 30 28 18 56 15 13 1 0 0 0 0 0 0 0 0 0 0 0 0 0 0 5 798 1269 1734 2142 2581 3396 3448 3056 2350 2324 1970 2128 1782 1724 1599 1570 1927 1884 1824 2940 2366 2475 1848 1631 1451
66 55 45 61 54 43 40 54 26 0 3 1 0 0 0 0 0 0 0 0 0 0 0 0 1 832 1769 1633 1907 2163 2960 4077 3728 2606 1646 1606 1502 1610 1829 2163 2244 1818 2624 2234 2087 1814 1608 1352 1028
96 120 119 64 67 64 45 54 25 13 13 1 0 0 0 0 0 0 0 0 0 0 78 468 796 1447 1704 1480 1878 2194 2693 2466 2689 2032 1661 1837 1785 2170 2400 2372 2706 2117 1858 1525 1622 1417 1130 1162 695
263 167 204 183 133 49 14 13 44 11 22 0 0 0 0 0 0 2 8 0 0 37 1085 1586 1795 1819 1669 1793 2084 2523 2412 3288 2341 3089 3190 2308 2946 2366 2150 2311 1970 1728 1442 1463 1517 892 734 1078 1210
241 202 204 228 139 82 117 45 81 34 26 2 1 0 0 257 351 150 19 65 895 1794 2174 2139 2083 2105 2159 2260 2407 2744 3110 3053 2644 3045 2256 2424 2817 2581 2106 1809 1661 1416 1253 1063 940 825 649 893 1419
16 43 162 189 44 118 173 138 55 42 0 4 1 0 379 895 592 284 1079 1625 2173 2396 2410 2455 2352 2308 2389 2534 2539 2539 2302 2270 2324 2140 2186 1972 2125 1560 1318 1198 1110 955 720 615 825 862 706 720 1066
203 230 152 104 189 217 41 0 65 276 103 57 10 3 325 929 1021 1116 1630 2089 2249 2330 2299 2338 2383 2313 2226 2223 2128 2122 2322 2200 2358 1684 1509 1329 1268 1116 906 710 531 329 308 621 760 758 661 729 809

GFSSGP_con_sbcape_036.txt.gz
CAPE
0 0 0 0 0 0 0 0 0 0 0 0 0 0 7 33 54 86 0 66 1141 428 816 1463 1604 1406 1903 2273 2415 2458 2376 2323 2289 2251 2002 1664 1391 1042 684 319 32 0 0 0 0 0 0 0 0
0 0 0 0 0 0 0 0 0 0 1 1 0 0 5 193 74 1 1 61 1313 419 652 615 1728 1446 1551 1999 2204 2208 2256 2304 2276 2076 1806 1477 1247 863 307 63 25 0 0 0 0 0 0 0 0
0 0 0 0 0 0 0 0 0 0 45 0 0 0 50 208 100 67 132 771 1375 615 299 804 1840 1575 1459 1490 1816 1875 1964 2065 2112 1913 1649 1354 980 691 341 90 52 2 0 0 0 0 0 0 0
0 0 0 0 0 0 0 0 0 14 94 0 31 2 9 144 35 168 148 1037 1182 827 276 1629 1814 1720 1572 1373 1330 1509 1663 1756 1775 1704 1485 1191 824 680 370 136 53 36 0 0 0 0 0 0 18
0 0 0 0 0 0 0 0 0 16 37 1 7 0 23 117 160 123 138 571 732 825 445 1319 1702 1794 1755 1616 1318 1187 1264 1295 1418 1413 1257 1012 807 635 290 119 87 75 54 33 67 70 91 85 84
0 0 0 0 0 0 0 0 0 2 9 27 10 20 15 81 164 183 163 332 367 628 812 1468 1540 1686 1678 1642 1408 1202 1069 1061 1099 1088 1060 915 791 463 241 135 116 111 114 149 174 169 240 254 250
0 0 0 0 0 0 0 0 0 0 0 28 75 43 136 8 109 43 134 182 168 489 1333 1451 1058 1352 1667 1587 1463 1284 1185 1110 1064 1022 954 860 688 396 260 197 176 182 215 306 409 469 603 773 824
0 0 0 0 0 0 0 0 0 0 0 0 11 61 13 162 189 0 5 26 79 315 1016 1761 1348 696 665 807 1473 1271 1173 1079 964 927 815 639 513 447 385 266 270 310 408 587 707 787 918 1090 1082
0 0 0 0 0 0 0 0 0 0 0 0 27 115 5 117 60 4 1 9 84 98 341 1958 2018 1049 370 228 730 1324 1120 1049 864 782 714 480 128 99 72 98 118 431 591 803 959 1118 1188 1186 1300
0 0 0 0 0 0 0 0 0 0 0 0 9 33 26 58 66 30 30 33 137 269 351 1020 2291 1056 413 123 351 805 737 675 556 340 249 250 48 20 15 65 184 431 815 991 1081 1220 1282 1216 743
0 0 0 0 0 0 0 0 0 0 0 0 1 84 9 130 249 61 6 101 160 304 250 783 2296 1758 933 460 772 961 362 326 334 225 130 173 71 29 57 7 53 390 703 503 817 953 987 746 666
0 0 0 0 0 0 0 0 0 0 0 0 1 51 88 43 148 174 235 152 108 36 9 998 2369 2860 2519 1434 1308 1378 910 512 302 201 160 137 129 78 72 44 115 144 214 225 277 456 627 715 918
0 0 0 0 0 0 0 0 0 0 0 0 0 3 143 76 105 171 199 131 164 166 353 556 2747 3179 3415 3703 2540 1524 1341 1144 662 508 362 186 341 112 106 206 176 142 259 273 295 554 786 1091 1157
0 0 0 0 0 0 0 0 0 0 0 0 0 0 23 7 1 85 158 241 379 347 384 574 940 3703 3697 3111 3095 3569 2224 1613 1678 1007 820 473 340 369 288 221 326 581 321 400 378 702 845 1339 1566
0 0 0 0 0 0 0 0 0 0 0 0 0 0 0 53 77 0 49 177 324 377 693 1132 1272 4218 3728 3362 3294 2842 3096 1957 2205 1629 1798 993 905 624 333 525 410 268 741 688 464 657 1432 1749 1522
0 0 0 0 0 0 0 0 0 0 0 2 1 4 14 10 2 69 142 324 633 497 402 769 27 1344 3638 3571 3440 3169 2447 2353 2237 1842 2130 2374 1299 851 1225 695 767 814 523 685 1102 778 995 1154 1191
0 0 0 0 0 0 0 0 0 0 0 0 2 19 14 55 93 118 172 243 639 888 1295 1925 1715 1448 3699 3945 3413 3253 2799 2709 1990 1873 1860 2539 2243 1468 1087 1330 1183 1110 1010 977 645 991 1200 1080 1581
0 0 0 0 0 0 0 0 0 0 0 0 0 0 12 48 17 179 259 268 405 1122 1295 1834 2042 2092 2252 2985 2968 1904 1722 1481 1586 1446 1470 2545 2398 2163 1732 1566 1382 2092 903 870 1121 852 861 1108 1385
0 0 0 0 0 0 0 0 0 0 0 0 0 0 0 0 0 3 194 129 785 1088 1406 2177 1931 1765 1826 1830 1365 993 830 662 1009 1710 2457 3015 2851 2317 2169 1646 2052 1291 1467 974 1252 1183 1096 1268 1422
0 0 0 0 0 0 0 0 0 0 0 0 0 0 0 0 8 56 21 69 879 831 1169 1828 2216 2465 2096 1257 1078 1081 1197 654 675 1713 2631 2982 3018 2342 2227 2109 1605 1813 1520 1377 1618 1112 941 1426 1406
0 0 0 0 0 0 0 0 0 0 0 0 0 1 0 0 0 0 41 409 734 584 1191 1216 1161 1344 1466 1199 1350 1885 1767 2006 2243 2689 2899 2784 2676 2577 2281 2118 1853 2010 1435 1306 1403 1521 1063 957 1307
0 0 0 0 0 0 0 0 0 0 0 0 0 0 0 0 0 0 0 0 258 336 293 1208 1451 967 1099 1831 1359 1540 961 1083 1701 3097 2529 2536 2413 2420 2212 2146 1825 2391 1432 1591 1422 1309 1183 1179 1641
5 6 1 0 2 1 0 0 0 0 0 0 0 0 0 0 0 0 0 0 0 0 0 0 57 791 1127 1338 1321 1158 2204 2012 2697 2725 3583 2507 2681 2225 1791 2007 1817 2229 1470 1495 1242 1373 1227 1287 1709
21 17 15 3 2 26 0 3 0 0 0 0 13 21 1 0 0 0 0 0 0 0 2 84 749 833 1583 1443 2310 2183 1921 1619 2440 3307 2503 2255 2005 1791 1528 1758 1604 1712 1400 1794 1543 1312 1637 1789 1399
67 37 26 27 32 4 0 19 2 0 0 0 7 0 0 4 1 0 0 0 0 0 0 147 1150 1775 1699 1551 1576 2217 1478 3336 3618 3331 2280 2029 1654 1564 1384 1352 1673 1395 1674 2098 2218 1955 1579 1376 1112
3 10 34 16 39 14 2 18 0 0 11 3 0 8 0 2 0 0 0 0 0 0 79 182 181 887 1094 1431 2178 2462 2298 3369 3815 2619 1870 1566 1408 1453 1457 1703 1554 1755 1862 2095 1881 1617 1234 1232 1110
161 114 139 119 55 33 34 0 2 0 0 0 0 9 21 14 0 0 0 35 0 7 415 596 724 837 1953 2575 2358 2958 3048 3561 2870 2442 1620 1592 1501 1495 1500 2064 1993 2181 1886 1542 1394 1291 1288 1295 1177
88 102 129 213 51 7 12 16 38 1 1 0 3 60 65 10 0 16 207 270 513 440 1933 2432 2792 2695 2337 2545 2791 2955 3163 3359 2623 2310 1943 2190 2309 2066 1972 2109 1945 1788 1503 1349 1501 1437 1145 1279 1247
296 152 66 123 119 108 77 17 1 204 54 29 31 123 66 48 512 1440 581 532 1731 2320 2668 2897 2560 2583 2469 2421 2612 2986 3044 2841 2923 2631 2373 2446 2307 2130 1908 1767 1581 1422 1418 1426 1322 1246 975 991 991
18 209 173 186 45 2 11 4 6 1 0 0 40 35 204 573 1220 1654 1411 1483 1716 2380 2455 2712 2557 2396 2279 2210 2003 1946 1846 1788 1961 1924 1777 1882 1965 1846 1612 1428 1112 988 954 1156 1175 955 788 764 927

GFSSGP_con_sbcape_039.txt.gz
CAPE
0 0 0 0 0 0 0 0 0 0 0 0 0 0 7 61 19 4 24 309 162 600 954 1071 1635 2166 2445 2500 2470 2366 2195 2100 2117 2099 1921 1661 1439 1020 591 405 124 5 0 0 0 0 0 0 0
0 0 0 0 0 0 0 0 0 0 0 0 4 6 53 58 0 250 580 232 181 654 815 494 1508 2013 2371 2422 2350 2278 2245 2204 2162 2059 1872 1623 1434 1081 378 72 12 0 0 0 0 0 0 0 0
0 0 0 0 0 0 0 0 0 0 0 0 0 0 51 80 16 0 644 227 134 540 574 640 1428 1818 2265 2357 2233 2147 2192 2190 2136 2028 1850 1508 1316 937 517 193 66 1 0 0 0 0 0 0 0
0 0 0 0 0 0 0 0 0 0 0 67 0 12 74 59 18 309 779 258 199 202 417 1354 1321 1418 1920 2202 2137 2078 2149 2181 2113 1969 1778 1458 1062 808 491 262 143 19 0 0 0 6 28 0 20
0 0 0 0 0 0 0 0 0 0 0 2 4 0 101 83 99 1130 857 509 190 85 599 1181 1355 1299 1431 1888 1948 1959 1999 1961 1975 1924 1736 1391 1086 786 521 333 92 58 73 9 23 120 134 164 184
0 0 0 0 0 0 0 0 0 0 0 0 0 3 30 55 126 734 798 526 248 82 884 898 1530 1374 1211 1257 1481 1571 1640 1656 1709 1694 1605 1370 1033 813 523 337 193 190 176 161 212 248 273 284 366
0 0 0 0 0 0 0 0 0 0 0 2 21 12 13 13 34 284 419 503 388 359 701 688 995 1366 1491 1223 1039 1036 1127 1191 1235 1204 1177 1101 967 730 448 291 234 248 243 274 348 404 467 576 635
0 0 0 0 0 0 0 0 0 0 0 0 0 0 18 26 0 3 208 325 383 1069 810 690 632 1008 1067 1097 1304 1072 952 891 877 909 953 933 912 675 450 246 241 274 348 433 566 618 689 853 1018
0 0 0 0 0 0 0 0 0 0 0 0 0 28 59 35 13 1 8 130 517 1156 853 675 512 525 599 770 1121 1271 1120 1079 927 893 948 683 304 264 160 177 209 345 418 575 714 801 893 1060 1149
0 0 0 0 0 0 0 0 0 0 0 0 1 70 12 36 32 102 1 0 342 1314 1229 732 558 307 124 238 464 646 548 588 498 352 332 199 13 2 54 120 290 355 497 704 801 965 1143 1147 671
0 0 0 0 0 0 0 0 0 0 0 0 0 30 86 45 17 1 1 1 0 65 1675 1386 867 336 55 63 133 391 318 316 266 137 50 71 8 0 23 0 74 73 276 254 543 722 825 623 555
0 0 0 0 0 0 0 0 0 0 0 0 0 0 0 79 28 0 0 0 3 0 1092 1636 1065 368 123 22 142 237 132 126 96 94 6 26 0 0 0 0 0 0 75 132 128 302 495 417 358
0 0 0 0 0 0 0 0 0 0 0 0 0 0 0 6 5 30 0 0 0 0 78 289 1042 644 292 158 368 298 250 134 34 43 15 0 17 0 0 0 0 0 47 103 29 103 275 322 386
0 0 0 0 0 0 0 0 0 0 0 0 0 0 0 0 22 0 0 0 0 0 0 670 1307 1214 809 557 734 640 459 304 153 88 52 12 5 1 0 0 0 0 13 65 20 54 238 349 481
0 0 0 0 0 0 0 0 0 0 0 0 0 0 0 0 0 0 0 0 0 0 0 1177 1712 1998 2188 1644 1443 1315 632 697 549 310 180 71 5 26 0 0 0 0 1 44 54 60 296 384 772
0 0 0 0 0 0 0 0 0 0 0 0 0 0 0 0 0 0 0 0 0 0 0 27 1732 2414 2128 2003 1771 1451 1750 1435 1007 863 475 300 116 33 35 1 2 32 43 36 91 104 249 597 578
0 0 0 0 0 0 0 0 0 0 0 0 0 0 0 0 0 0 0 0 0 0 0 0 168 2224 2261 2245 2194 2088 1782 1475 1331 961 803 811 285 252 170 42 104 25 92 146 184 150 170 299 510
0 0 0 0 0 0 0 0 0 0 0 0 0 0 0 0 0 0 0 5 0 9 3 241 187 1149 2329 2582 2310 2253 2107 1844 1441 1114 871 879 893 563 171 342 189 152 168 170 212 215 277 295 672
0 0 0 0 0 0 0 0 0 0 0 0 0 0 0 0 0 0 0 0 34 152 206 245 243 358 1470 1659 2194 1745 1618 1044 775 720 794 680 1528 1026 581 338 626 684 346 370 336 222 245 430 551
0 0 0 0 0 0 0 0 0 0 0 0 0 0 0 0 0 0 0 0 10 180 125 77 47 14 76 90 203 200 186 47 115 88 491 764 1588 1517 975 859 1012 697 713 380 309 484 308 449 489
0 0 0 0 0 0 0 0 0 0 0 0 0 0 0 0 0 0 0 0 0 145 126 165 57 12 8 32 110 156 46 38 178 464 372 924 1797 1532 1431 1134 964 1052 634 748 580 439 324 492 543
0 0 0 0 0 0 0 0 0 0 0 0 0 0 0 0 0 0 0 0 0 28 1 26 90 153 170 109 141 445 260 184 26 0 1292 1561 1744 1492 1411 1341 1056 985 955 718 707 622 342 298 480
5 11 1 0 0 0 0 0 0 0 0 0 0 0 0 0 0 0 0 0 0 0 11 134 42 0 0 14 66 130 229 173 149 326 1400 1415 1316 1484 1475 1318 1209 1161 1235 749 817 640 556 345 566
24 6 0 0 0 0 0 0 0 0 0 0 0 0 0 0 0 0 0 0 0 0 0 0 0 3 0 0 304 195 190 366 627 1191 1466 1281 1267 1063 1269 1360 1301 1183 1225 941 836 727 475 516 627
4 1 0 0 0 0 0 0 0 0 0 0 0 0 0 0 0 0 0 0 0 0 0 0 0 0 0 127 306 220 147 189 339 1582 1337 1144 1149 916 873 1137 1191 1214 1092 1097 679 657 723 722 621
0 13 1 23 0 0 4 1 0 0 0 0 0 0 0 0 0 0 0 0 0 0 0 0 0 36 438 289 844 814 530 393 1009 1643 1117 874 1010 881 898 966 1150 1099 1117 1160 955 787 700 554 354
39 0 11 1 22 0 0 0 0 0 0 0 0 0 0 0 0 0 0 0 0 0 0 0 0 90 542 705 723 876 1034 630 1698 960 793 865 858 948 932 1051 1179 1124 1121 1107 811 587 459 467 281
4 9 0 9 1 4 0 0 0 14 0 0 0 0 0 0 0 0 0 0 0 0 0 0 0 7 195 633 1035 1499 1596 1853 1077 887 801 817 754 911 972 1216 1103 1210 1109 926 526 429 394 436 110
0 65 16 0 25 22 0 0 73 0 0 0 0 0 0 0 0 0 564 732 27 394 731 1004 1566 1343 1540 1582 1628 1939 1976 1720 1225 914 1006 1020 1005 950 1043 1286 1152 1025 761 570 372 362 166 249 220
0 47 0 23 6 6 2 0 5 0 0 0 0 0 0 0 0 77 849 1058 954 1955 1773 1575 1558 1603 1665 1777 1904 1862 1721 1780 1639 1434 1712 1408 1254 1148 1121 1050 918 696 620 501 171 225 353 248 96

GFSSGP_con_sbcape_042.txt.gz
CAPE
0 0 0 0 0 0 0 0 0 0 0 0 0 0 0 17 39 11 2 7 75 154 587 1673 2235 2594 2628 2458 2316 2123 1963 1908 1914 1748 1576 1430 1222 636 330 372 154 6 0 0 0 0 0 0 0
0 0 0 0 0 0 0 0 0 0 0 0 0 0 12 61 109 155 92 63 23 265 463 820 2221 2450 2571 2446 2249 2040 2020 1994 1945 1799 1657 1473 1301 882 215 62 0 0 0 0 0 0 0 0 0
0 0 0 0 0 0 0 0 0 0 0 0 0 0 9 47 286 169 157 20 130 238 292 513 2149 2340 2477 2438 2210 2073 2065 2036 2003 1904 1756 1566 1341 1078 613 253 79 0 0 0 0 0 0 0 0
0 0 0 0 0 0 0 0 0 0 0 0 0 13 34 47 140 334 113 30 56 199 173 891 1911 2213 2334 2407 2248 2144 2132 2136 2066 1998 1841 1647 1344 1000 595 356 212 45 0 0 0 0 15 12 16
0 0 0 0 0 0 0 0 0 0 0 0 0 0 82 85 484 238 92 55 53 160 147 922 1774 2081 2230 2358 2267 2169 2158 2038 2026 2003 1866 1592 1345 911 562 354 131 70 49 5 1 98 168 174 119
0 0 0 0 0 0 0 0 0 0 0 0 0 11 12 197 486 245 55 14 15 59 218 577 1507 1834 1999 2139 2134 2073 2034 2000 1974 1916 1827 1667 1332 976 679 472 272 231 228 160 177 300 295 313 428
0 0 0 0 0 0 0 0 0 0 0 0 0 16 12 3 388 477 68 1 0 96 331 405 723 1273 1815 1845 1860 1867 1808 1803 1797 1717 1654 1574 1312 1004 717 514 421 334 367 346 382 480 426 467 515
0 0 0 0 0 0 0 0 0 0 0 0 0 3 46 0 202 199 206 14 16 342 206 466 542 699 784 1073 1680 1640 1621 1625 1569 1569 1547 1452 1285 1041 781 401 386 362 441 486 550 627 568 630 738
0 0 0 0 0 0 0 0 0 0 0 0 0 2 18 22 108 140 225 208 479 403 356 331 602 614 569 523 840 1240 1396 1408 1330 1354 1361 998 607 509 309 284 245 355 428 513 572 694 715 761 866
0 0 0 0 0 0 0 0 0 0 0 0 0 6 75 14 57 20 198 295 589 518 446 254 283 424 501 594 524 501 477 503 458 404 436 353 142 103 100 175 326 372 469 566 633 769 912 749 490
0 0 0 0 0 0 0 0 0 0 0 0 0 0 37 60 62 68 18 114 532 901 771 362 183 142 257 279 440 466 378 339 253 158 120 128 26 32 115 12 152 75 266 139 365 486 642 492 440
0 0 0 0 0 0 0 0 0 0 0 0 0 0 1 94 8 39 3 44 100 793 1281 994 612 227 34 10 193 254 254 233 162 128 14 20 0 0 0 0 0 0 4 50 69 157 423 416 341
0 0 0 0 0 0 0 0 0 0 0 0 0 0 0 40 107 10 22 48 153 1245 1814 1564 1132 580 257 0 82 138 74 51 44 16 21 5 0 0 0 0 0 0 0 25 20 39 213 326 291
0 0 0 0 0 0 0 0 0 0 0 0 0 0 0 0 23 11 19 68 62 42 402 806 468 233 324 39 36 90 143 71 0 0 0 0 0 0 0 0 0 0 0 3 11 0 44 121 152
0 0 0 0 0 0 0 0 0 0 0 0 0 0 0 0 0 3 5 1 3 16 22 350 16 7 13 209 123 231 246 160 56 3 0 0 0 0 0 0 0 0 0 0 2 0 0 37 130
0 0 0 0 0 0 0 0 0 0 0 0 0 0 0 0 0 0 0 0 0 0 0 27 351 424 566 428 536 533 408 318 240 106 19 1 0 0 0 0 0 0 0 0 0 0 0 42 146
0 0 0 0 0 0 0 0 0 0 0 0 0 0 0 0 0 0 0 0 0 0 0 35 491 827 938 989 1100 1113 1001 582 541 385 200 88 27 0 1 0 0 0 0 0 0 0 0 75 195
0 0 0 0 0 0 0 0 0 0 0 0 0 0 0 0 0 0 0 0 0 0 0 3 638 1173 1244 1403 1286 1355 1067 1208 844 709 641 315 203 127 16 23 8 0 0 0 0 11 0 2 147
0 0 0 0 0 0 0 0 0 0 0 0 0 0 0 0 0 0 0 0 0 0 0 0 0 1074 1424 1675 1612 1612 1552 1206 874 605 698 576 676 351 101 62 30 20 0 0 12 2 77 42 120
0 0 0 0 0 0 0 0 0 0 0 0 0 0 0 0 0 0 0 0 0 0 0 10 2 127 1280 1401 1531 1320 1314 471 1090 923 663 423 626 915 495 137 105 58 72 6 21 45 16 192 110
0 0 0 0 0 0 0 0 0 0 0 0 0 0 0 0 0 0 0 0 0 0 0 27 27 87 1002 927 190 23 14 21 95 62 10 142 248 1023 788 372 187 257 242 108 27 128 160 138 119
0 0 0 0 0 0 0 0 0 0 0 0 0 0 0 0 0 0 0 0 0 0 0 54 67 36 39 0 38 132 62 15 4 1 8 75 220 946 955 599 408 437 369 254 146 91 143 209 320
0 0 0 0 0 0 0 0 0 0 0 0 0 0 0 0 0 0 0 0 0 0 0 1 21 10 0 0 0 0 0 0 0 0 0 1 628 954 1106 796 552 452 392 292 293 315 187 146 223
0 0 0 0 0 0 0 0 0 0 0 0 0 0 0 0 0 0 0 0 0 0 0 0 0 0 0 0 0 0 0 0 0 2 87 272 605 693 1045 869 687 574 678 506 413 418 381 167 253
0 0 0 0 0 0 0 0 0 0 0 0 0 0 0 0 0 0 0 0 0 0 0 0 0 0 0 0 0 0 0 0 0 12 368 601 546 528 737 830 796 764 906 788 548 525 349 246 264
0 0 3 2 0 0 0 0 0 0 0 0 0 0 0 0 0 0 0 0 0 0 0 0 0 0 0 0 0 0 0 0 0 150 844 828 822 592 541 677 683 799 692 718 550 489 382 271 181
0 0 3 12 4 38 0 0 0 0 0 0 0 0 0 0 0 0 0 0 0 0 0 0 0 0 0 0 0 1 1 0 169 657 743 541 431 465 330 460 565 684 855 808 586 467 500 302 49
0 0 0 0 2 13 0 0 0 0 0 0 0 0 0 0 0 0 0 0 0 0 0 0 0 0 0 5 48 311 186 103 555 663 654 612 553 642 382 442 613 823 836 689 553 396 374 266 20
0 0 0 0 0 0 0 0 1 0 0 0 0 0 0 0 0 0 0 0 0 0 0 0 0 0 97 301 482 720 856 829 698 717 621 579 480 475 490 521 666 721 650 413 406 327 214 179 11
0 0 0 0 0 10 0 0 0 0 0 0 0 0 0 0 0 0 0 0 0 0 325 183 156 276 419 667 1053 1180 1332 876 687 601 632 568 451 473 677 774 798 754 545 278 249 151 95 55 14

GFSSGP_con_sbcape_045.txt.gz
CAPE
0 0 0 0 0 0 0 0 0 0 0 0 0 0 0 0 0 0 0 0 30 92 1375 2134 2418 2460 2414 2253 2147 1834 1753 1699 1566 1444 1341 1217 1031 803 592 524 331 62 0 0 0 0 0 0 0
0 0 0 0 0 0 0 0 0 0 0 0 0 0 0 0 13 0 0 0 8 167 1135 1795 2471 2501 2439 2235 2019 1800 1758 1738 1621 1476 1403 1296 1071 771 348 233 58 0 0 0 0 0 0 0 0
0 0 0 0 0 0 0 0 0 0 0 0 0 0 0 2 113 10 13 7 1 191 833 1342 2461 2472 2480 2321 2019 1845 1761 1763 1662 1627 1549 1396 1162 854 493 279 150 0 0 0 0 0 0 0 0
0 0 0 0 0 0 0 0 0 0 0 0 0 0 0 0 87 78 27 0 44 175 325 1687 2235 2387 2371 2306 2064 1888 1830 1840 1770 1743 1693 1535 1304 1024 654 363 270 72 0 0 0 0 0 0 13
0 0 0 0 0 0 0 0 0 0 0 0 0 0 0 0 259 95 11 5 6 112 166 1411 2054 2242 2314 2322 2191 2005 1882 1818 1845 1843 1779 1611 1402 1070 672 452 276 148 28 0 0 11 91 97 56
0 0 0 0 0 0 0 0 0 0 0 0 0 0 0 218 205 56 19 0 10 51 196 1011 1945 2116 2115 2194 2157 1994 1848 1818 1840 1851 1799 1698 1434 1087 733 490 355 333 183 144 119 164 214 273 225
0 0 0 0 0 0 0 0 0 0 0 0 0 0 1 0 222 0 0 0 0 27 203 569 1168 1809 2057 2026 1971 1959 1811 1736 1760 1723 1672 1661 1493 1137 799 554 463 490 389 325 319 387 390 388 285
0 0 0 0 0 0 0 0 0 0 0 0 0 0 12 56 226 22 0 0 68 72 101 280 687 1291 1458 1591 1997 1976 1909 1802 1704 1730 1733 1703 1548 1268 970 547 538 543 486 518 497 608 592 534 566
0 0 0 0 0 0 0 0 0 0 0 0 0 0 0 300 228 32 0 158 212 125 143 218 328 478 519 715 1502 1901 1960 1943 1792 1776 1743 1435 1082 891 578 452 380 627 548 598 627 755 748 689 519
0 0 0 0 0 0 0 0 0 0 0 0 0 0 0 204 379 193 2 11 123 142 165 231 248 308 275 314 389 838 1073 1361 1322 1260 1243 985 412 275 280 342 377 605 554 620 683 785 845 588 249
0 0 0 0 0 0 0 0 0 0 0 0 0 0 0 1 5 156 71 4 8 78 160 134 165 205 218 173 137 233 218 324 436 394 374 394 115 206 300 87 205 132 300 94 311 372 518 297 224
0 0 0 0 0 0 0 0 0 0 0 0 0 0 0 0 28 19 11 72 345 333 250 152 28 47 102 25 117 219 150 88 94 103 26 45 3 0 25 1 0 20 1 43 15 68 219 273 202
0 0 0 0 0 0 0 0 0 0 0 0 0 0 0 0 0 0 19 59 181 739 591 357 96 28 5 0 2 44 70 44 5 6 16 15 2 0 0 0 0 0 0 0 0 0 21 162 184
0 0 0 0 0 0 0 0 0 0 0 0 0 0 0 0 0 5 44 110 313 887 1165 789 412 130 31 0 0 2 27 9 0 0 6 9 0 0 0 0 0 0 0 0 0 0 0 32 93
0 0 0 0 0 0 0 0 0 0 0 0 0 0 0 0 0 0 5 106 300 739 1455 1162 711 440 303 169 1 0 13 3 0 0 0 7 0 0 0 0 0 0 0 0 0 0 0 0 0
0 0 0 0 0 0 0 0 0 0 0 0 0 0 0 0 0 0 0 8 3 2 81 1120 1155 454 222 185 95 1 21 27 5 0 0 1 0 0 0 0 0 0 0 0 0 0 0 0 0
0 0 0 0 0 0 0 0 0 0 0 0 0 0 0 0 0 0 0 0 0 0 0 0 93 62 3 23 107 117 100 96 107 85 53 48 17 0 0 0 0 0 0 0 0 0 0 0 0
0 0 0 0 0 0 0 0 0 0 0 0 0 0 0 0 0 0 0 0 0 0 0 0 0 175 189 137 199 308 351 350 320 265 213 130 58 31 0 0 0 0 0 0 0 0 0 0 0
0 0 0 0 0 0 0 0 0 0 0 0 0 0 0 0 0 0 0 0 0 0 0 0 0 10 404 680 603 649 796 826 784 546 419 239 157 119 0 0 0 0 0 0 0 0 0 0 0
0 0 0 0 0 0 0 0 0 0 0 0 0 0 0 0 0 0 0 0 0 0 0 0 0 0 152 802 913 871 897 964 1108 901 572 476 363 240 99 10 0 0 0 0 0 0 0 0 0
0 0 0 0 0 0 0 0 0 0 0 0 0 0 0 0 0 0 0 0 0 0 0 0 0 0 0 694 921 8 25 10 581 422 482 438 448 651 402 111 20 0 0 0 0 0 0 0 0
0 0 0 0 0 0 0 0 0 0 0 0 0 0 0 0 0 0 0 0 0 0 0 0 0 0 0 183 667 737 747 769 187 760 643 271 231 374 708 438 99 5 1 3 0 0 0 10 111
0 0 0 0 0 0 0 0 0 0 0 0 0 0 0 0 0 0 0 0 0 0 0 0 0 0 8 174 633 677 372 112 0 0 0 8 0 29 513 506 171 87 96 60 0 0 1 40 137
0 0 0 0 0 0 0 0 0 0 0 0 0 0 0 0 0 0 0 0 0 0 0 0 0 0 0 2 125 209 378 0 0 0 0 0 0 134 431 482 256 220 172 13 32 109 79 70 149
0 0 0 0 0 0 0 0 0 0 0 0 0 0 0 0 0 0 0 0 0 0 0 0 0 0 0 0 9 0 0 0 0 0 0 0 79 319 458 486 278 196 249 202 247 267 231 92 138
0 0 0 0 0 0 0 0 0 0 0 0 0 0 0 0 0 0 0 0 0 0 0 0 0 0 0 0 0 0 0 0 0 0 0 2 168 286 369 553 421 389 494 481 373 344 214 142 174
0 0 0 0 0 0 0 0 0 0 0 0 0 0 0 0 0 0 0 0 0 0 0 0 0 0 0 0 0 0 0 0 0 0 3 122 235 245 339 372 474 555 553 446 296 338 267 163 58
0 0 0 0 8 2 0 0 0 0 0 0 0 0 0 0 0 0 0 0 0 0 0 0 0 0 0 0 0 0 0 0 0 0 214 344 230 338 358 441 470 481 548 505 423 317 158 52 12
0 0 0 0 0 4 0 0 0 0 3 0 0 0 0 0 0 0 0 0 0 0 0 0 0 0 0 0 0 0 0 0 63 293 312 316 295 302 350 351 350 523 554 493 372 206 139 134 12
0 0 0 0 0 0 0 0 46 1 0 0 0 0 0 0 0 0 0 0 0 0 0 0 9 0 0 0 2 67 182 270 372 423 350 249 275 329 404 520 589 582 456 268 198 137 109 36 8

GFSSGP_con_sbcape_048.txt.gz
CAPE
0 0 0 0 0 0 0 0 0 0 0 0 0 0 0 0 0 0 0 13 0 107 1154 1551 2192 2350 2150 1941 1910 1709 1581 1470 1379 1319 1261 1252 1270 1281 1213 1053 785 367 37 0 0 0 0 0 0
0 0 0 0 0 0 0 0 0 0 0 0 0 0 0 0 0 0 0 0 0 165 1184 1540 2272 2313 2208 1939 1837 1722 1658 1561 1416 1330 1246 1187 1099 1016 828 615 278 29 0 0 0 0 0 0 0
0 0 0 0 0 0 0 0 0 0 0 0 0 0 0 0 38 0 0 0 0 260 1010 1436 2319 2303 2254 2014 1827 1765 1707 1585 1497 1417 1297 1166 1036 860 679 484 271 10 0 0 0 0 0 0 0
0 0 0 0 0 0 0 0 0 0 0 0 0 0 0 0 77 30 0 0 21 348 947 1559 2211 2226 2172 2040 1884 1783 1746 1629 1571 1543 1409 1280 1077 792 553 442 294 113 0 0 0 0 0 0 0
0 0 0 0 0 0 0 0 0 0 0 0 0 0 0 122 97 1 0 0 21 328 582 1582 2143 2192 2222 2091 1893 1830 1783 1611 1606 1603 1512 1395 1133 805 585 458 436 280 124 18 13 32 56 64 27
0 0 0 0 0 0 0 0 0 0 0 0 0 0 0 140 117 0 0 0 51 186 309 1494 2023 2145 2112 2044 1869 1823 1738 1645 1621 1607 1595 1486 1273 931 661 495 495 423 251 120 76 126 160 166 127
0 0 0 0 0 0 0 0 0 0 0 0 0 0 0 18 18 0 0 0 9 57 522 974 1482 1901 2181 2011 1861 1805 1713 1631 1608 1539 1572 1534 1406 1076 734 509 454 535 357 269 255 294 296 296 161
0 0 0 0 0 0 0 0 0 0 0 0 0 0 0 60 0 0 3 3 0 54 247 506 810 1297 1555 1822 2056 1905 1824 1700 1603 1610 1590 1593 1490 1227 888 460 452 611 518 478 476 484 554 436 376
0 0 0 0 0 0 0 0 0 0 0 0 0 0 0 277 41 0 15 43 21 46 55 217 548 788 942 1188 1713 1982 1940 1835 1734 1726 1686 1458 1193 1018 675 428 460 612 641 611 631 657 719 627 346
0 0 0 0 0 0 0 0 0 0 0 0 0 0 0 325 289 88 0 5 3 33 91 145 296 492 544 932 1179 1395 1316 1394 1282 1321 1322 1111 749 463 354 447 545 721 686 685 698 771 829 449 178
0 0 0 0 0 0 0 0 0 0 0 0 0 0 0 0 11 81 177 0 0 5 43 146 196 231 323 333 273 517 493 823 794 739 736 754 214 365 509 174 331 219 535 127 421 472 468 197 146
0 0 0 0 0 0 0 0 0 0 0 0 0 0 0 0 0 0 66 114 1 0 1 73 92 120 100 24 87 175 319 175 251 190 187 208 30 9 61 14 5 40 32 56 7 31 101 127 72
0 0 0 0 0 0 0 0 0 0 0 0 0 0 0 0 0 0 0 64 217 155 64 81 54 69 62 5 48 81 121 101 83 38 7 15 12 0 0 0 0 0 0 0 0 0 14 74 72
0 0 0 0 0 0 0 0 0 0 0 0 0 0 0 0 0 0 0 47 219 403 194 234 66 37 28 18 0 28 63 59 19 14 1 17 5 0 0 0 0 0 0 0 0 0 0 3 32
0 0 0 0 0 0 0 0 0 0 0 0 0 0 0 0 0 0 0 9 97 412 485 329 112 1 4 0 1 0 3 23 1 9 0 9 0 0 0 0 0 0 0 0 0 0 0 0 0
0 0 0 0 0 0 0 0 0 0 0 0 0 0 0 0 0 0 0 0 37 183 878 793 465 142 5 0 0 0 0 0 0 0 0 0 5 0 0 0 0 0 0 0 0 0 0 0 0
0 0 0 0 0 0 0 0 0 0 0 0 0 0 0 0 0 0 0 0 0 2 11 583 1017 596 295 169 64 2 2 0 1 0 0 0 0 0 0 0 0 0 0 0 0 0 0 0 0
0 0 0 0 0 0 0 0 0 0 0 0 0 0 0 0 0 0 0 0 0 0 0 0 105 324 91 3 25 51 64 54 85 75 52 10 0 0 0 0 0 0 0 0 0 0 0 0 0
0 0 0 0 0 0 0 0 0 0 0 0 0 0 0 0 0 0 0 0 0 0 0 0 0 16 156 36 125 145 249 252 285 244 193 55 22 21 0 0 0 0 0 0 0 0 0 0 0
0 0 0 0 0 0 0 0 0 0 0 0 0 0 0 0 0 0 0 0 0 0 0 0 0 0 0 184 288 255 288 301 505 504 345 231 187 108 67 4 3 0 0 0 0 0 0 0 0
0 0 0 0 0 0 0 0 0 0 0 0 0 0 0 0 0 0 0 0 0 0 0 0 0 0 0 38 205 121 26 25 322 473 646 538 357 255 172 49 36 4 4 0 0 0 0 0 2
0 0 0 0 0 0 0 0 0 0 0 0 0 0 0 0 0 0 0 0 0 0 0 0 0 0 0 0 205 317 436 489 493 614 734 518 565 573 298 190 92 46 4 0 0 0 0 0 0
0 0 0 0 0 0 0 0 0 0 0 0 0 0 0 0 0 0 0 0 0 0 0 0 0 0 0 0 0 151 225 176 327 58 454 342 204 387 485 507 216 116 3 0 0 0 0 0 0
0 0 0 0 0 0 0 0 0 0 0 0 0 0 0 0 0 0 0 0 0 0 0 0 0 0 0 0 0 1 53 191 9 0 31 67 24 29 96 312 353 203 98 12 0 0 0 0 158
0 0 0 0 0 0 0 0 0 0 0 0 0 0 0 0 0 0 0 0 0 0 0 0 0 0 0 0 0 52 152 276 56 120 66 0 0 9 42 152 206 155 140 20 22 3 30 109 158
0 0 0 0 0 0 0 0 0 0 0 0 0 0 0 0 0 0 0 0 0 0 0 0 0 0 0 0 0 0 74 196 122 67 0 0 0 0 50 269 274 223 204 134 128 184 270 174 181
0 0 0 0 0 0 0 0 0 0 0 0 0 0 0 0 0 0 0 0 0 0 0 0 0 0 0 0 0 0 0 0 0 0 0 0 0 1 122 328 316 286 380 361 291 315 302 301 166
0 0 0 0 0 0 0 0 0 0 0 0 0 0 0 0 0 0 0 0 0 0 0 0 0 0 0 0 0 0 0 0 0 0 0 0 1 153 242 329 451 469 508 395 276 271 258 140 41
0 0 0 0 0 0 0 0 0 0 0 0 0 0 0 0 0 0 0 0 0 0 0 0 0 0 0 0 0 0 0 0 0 0 0 11 101 275 400 523 573 604 534 391 355 381 182 73 75
0 0 0 0 0 0 0 0 0 0 0 0 0 0 0 0 0 0 0 0 0 0 0 0 0 0 0 0 0 0 0 0 0 0 15 160 347 410 533 566 616 623 552 376 376 238 137 181 26

GFSSGP_con_sbcape_051.txt.gz
CAPE
0 0 0 0 0 0 0 0 0 0 0 0 0 0 0 0 0 0 78 157 40 104 976 1803 2079 2151 1998 1879 1927 1893 1850 1949 2064 2123 2071 2018 2016 1941 1807 1639 1376 871 317 0 0 0 0 0 0
0 0 0 0 0 0 0 0 0 0 0 0 0 0 0 0 0 0 0 127 83 435 1678 1307 2140 2117 2029 1777 1692 1614 1712 1765 1758 1758 1851 1854 1744 1629 1443 1172 787 304 27 0 0 0 0 0 0
0 0 0 0 0 0 0 0 0 0 0 0 0 0 0 0 0 0 67 28 87 319 1185 1634 2139 2085 2032 1841 1618 1457 1513 1537 1527 1511 1498 1440 1360 1256 1111 888 714 131 0 0 0 0 0 0 0
0 0 0 0 0 0 0 0 0 0 0 0 0 0 0 181 229 277 157 0 148 296 429 1726 2085 2031 1967 1947 1704 1518 1506 1494 1446 1436 1398 1282 1189 1037 812 703 455 170 9 0 0 0 0 0 0
0 0 0 0 0 0 0 0 0 0 0 0 0 0 0 46 7 105 66 0 107 245 360 1531 2109 2085 1986 1979 1861 1708 1671 1536 1509 1527 1435 1296 1165 916 714 595 399 289 191 64 23 36 80 68 9
0 0 0 0 0 0 0 0 0 0 0 0 0 0 0 0 136 75 27 0 65 256 397 1059 2136 2111 1983 1867 1840 1687 1625 1582 1593 1553 1501 1399 1111 853 676 573 498 476 312 146 109 129 140 131 112
0 0 0 0 0 0 0 0 0 0 0 0 0 0 0 0 131 36 2 0 114 202 367 1127 1410 2039 2105 1944 1764 1695 1625 1535 1520 1479 1439 1365 1149 853 668 544 578 592 395 239 196 225 229 193 134
0 0 0 0 0 0 0 0 0 0 0 0 0 0 0 0 115 95 31 55 96 175 230 760 985 1363 1518 1532 1922 1848 1756 1625 1512 1516 1486 1398 1227 954 723 451 516 634 529 390 367 373 392 341 232
0 0 0 0 0 0 0 0 0 0 0 0 0 0 0 0 144 146 83 44 44 165 373 648 1034 1293 1315 958 1453 1904 1813 1756 1615 1599 1599 1248 709 770 496 189 317 643 629 525 551 523 568 485 191
0 0 0 0 0 0 0 0 0 0 0 0 0 0 0 0 82 217 170 70 16 64 343 569 1036 1167 1310 1097 1343 1558 1418 1336 1345 1355 1431 1262 1122 1082 577 409 429 613 685 628 639 660 711 332 39
0 0 0 0 0 0 0 0 0 0 0 0 0 0 0 0 0 0 230 153 32 36 113 352 901 1218 1132 910 1375 1480 1430 1460 1368 1277 1345 1294 996 983 990 604 454 252 368 54 142 127 59 44 82
0 0 0 0 0 0 0 0 0 0 0 0 0 0 0 0 0 0 0 166 112 16 38 210 542 942 1122 894 975 1086 1100 1519 1014 923 1049 1210 797 840 942 690 432 490 209 166 124 53 70 117 93
0 0 0 0 0 0 0 0 0 0 0 0 0 0 0 0 0 0 0 127 247 63 102 139 363 588 725 656 545 874 863 1090 920 897 1139 1111 757 849 824 722 511 338 219 158 137 61 87 66 63
0 0 0 0 0 0 0 0 0 0 0 0 0 0 0 0 0 0 0 45 297 361 170 208 319 475 551 502 559 684 863 723 763 677 767 1011 907 1034 613 618 444 302 222 119 88 61 38 19 2
0 0 0 0 0 0 0 0 0 0 0 0 0 0 0 0 0 0 0 0 36 470 633 506 576 582 648 378 471 430 257 272 375 387 543 490 637 751 588 318 252 186 158 159 104 115 72 10 0
0 0 0 0 0 0 0 0 0 0 0 0 0 0 0 0 0 0 0 0 0 201 786 833 235 278 365 405 366 163 89 203 201 147 122 290 231 181 301 95 58 42 48 26 22 53 29 13 1
0 0 0 0 0 0 0 0 0 0 0 0 0 0 0 0 0 0 0 0 0 8 613 1421 1142 364 313 308 263 152 34 27 74 91 58 119 88 104 166 51 90 65 6 24 34 42 32 30 26
0 0 0 0 0 0 0 0 0 0 0 0 0 0 0 0 0 0 0 0 0 0 7 615 1889 1549 853 507 274 32 140 70 38 79 68 89 52 67 50 36 88 37 1 50 76 84 101 76 90
0 0 0 0 0 0 0 0 0 0 0 0 0 0 0 0 0 0 0 0 0 0 0 0 360 1648 1727 1345 871 636 253 516 738 517 484 404 66 90 59 177 138 91 149 212 245 225 258 286 133
0 0 0 0 0 0 0 0 0 0 0 0 0 0 0 0 0 0 0 0 0 0 0 0 0 102 862 1176 1394 1264 975 1053 912 849 902 696 323 344 479 807 546 380 325 367 402 349 484 448 308
0 0 0 0 0 0 0 0 0 0 0 0 0 0 0 0 0 0 0 0 0 0 0 0 0 0 13 485 1235 1377 1210 1235 1312 1430 1604 1544 970 1024 1213 1078 977 761 541 711 675 604 685 1052 408
0 0 0 0 0 0 0 0 0 0 0 0 0 0 0 0 0 0 0 0 0 0 0 0 0 0 0 6 321 1364 1318 1377 1469 1730 1795 1869 1446 1501 1437 1557 1149 1086 949 1140 961 701 844 884 1000
0 0 0 0 0 0 0 0 0 0 0 0 0 0 0 0 0 0 0 0 0 0 0 0 0 0 0 0 4 237 975 918 1531 1527 2505 2916 2153 1830 1795 1825 1499 1441 1322 1227 1138 731 873 867 920
0 0 0 0 0 0 0 0 0 0 0 0 0 0 0 0 0 0 0 0 0 0 0 0 0 0 0 0 0 20 454 1141 1051 1384 1217 1495 1696 1980 2181 1953 1822 1801 1551 1351 1329 1054 1054 983 924
0 0 0 0 0 0 0 0 0 0 0 0 0 0 0 0 0 0 0 0 0 0 0 0 0 0 0 0 0 1 97 500 955 1283 931 1378 1247 1314 1715 1856 1930 1820 1867 1783 1505 1166 1133 1072 1122
0 0 0 0 0 0 0 0 0 0 0 0 0 0 0 0 0 0 0 0 0 0 0 0 0 0 0 0 0 0 23 138 447 880 794 1053 1035 1052 1514 1396 1675 1780 1498 1473 1297 1183 1221 1284 1344
0 0 0 0 3 1 0 0 0 0 0 0 0 0 0 0 0 0 0 0 0 0 0 0 0 0 0 0 0 0 0 188 631 1689 1742 1028 1418 818 1011 1179 1462 1524 1583 1568 1581 1536 1638 1614 1570
0 0 4 24 8 0 0 0 0 0 0 0 0 0 0 0 0 0 0 0 0 0 0 0 0 0 0 0 0 0 0 34 342 807 958 1255 858 686 842 1239 1629 1738 1759 1984 1931 1922 1868 1826 1724
0 0 1 3 20 19 3 0 0 0 0 0 0 0 0 0 0 0 0 0 0 0 0 0 0 0 0 0 0 0 0 5 55 256 442 623 788 783 918 1267 1585 1818 2234 2132 2139 2041 1864 1778 1311
0 0 3 26 19 18 22 0 0 0 0 0 0 0 0 0 0 0 0 0 0 0 0 0 0 0 0 0 0 0 0 10 32 149 259 473 743 827 1014 1335 1622 2091 2238 2186 2042 1975 1555 1310 1153

GFSSGP_con_sbcape_054.txt.gz
CAPE
0 0 0 0 0 0 0 0 0 0 0 0 0 0 0 0 0 23 145 209 29 53 1003 1711 2042 2204 2511 2580 2521 2432 2329 2286 2224 2037 1998 2021 2154 2149 2035 1873 1581 1064 504 79 0 0 0 0 0
0 0 0 0 0 0 0 0 0 0 0 0 0 0 0 0 0 0 0 166 33 207 1157 873 1991 2133 2379 2441 2361 2256 2256 2285 2277 2157 2135 2161 2164 2066 1896 1626 1221 706 202 11 0 0 0 0 0
0 0 0 0 0 0 0 0 0 0 0 0 0 0 0 0 0 44 376 188 127 404 1027 894 2043 2034 2227 2309 2194 2050 2112 2165 2202 2209 2186 2149 1992 1814 1614 1426 1154 463 49 0 0 0 0 0 0
0 0 0 0 0 0 0 0 0 0 0 0 0 0 0 0 0 5 74 340 177 415 642 1984 2033 1972 2065 2104 2069 1968 2001 2018 2026 2129 2077 1938 1742 1475 1277 1146 952 488 0 0 0 0 0 0 0
0 0 0 0 0 0 0 0 0 0 0 0 0 0 0 0 0 206 305 396 206 343 310 2294 2149 1995 2114 2017 1917 1868 1857 1773 1787 1852 1821 1667 1418 1209 1042 944 724 456 281 101 33 36 68 61 4
0 0 0 0 0 0 0 0 0 0 0 0 0 0 0 0 0 197 246 412 219 209 245 1560 2114 2057 2027 2036 1816 1675 1610 1580 1587 1584 1534 1426 1204 1035 869 779 597 531 454 228 128 127 120 129 88
2 0 0 0 0 0 0 0 0 0 0 0 0 0 0 0 0 188 248 275 227 158 208 1358 1756 2135 2104 1977 1839 1697 1591 1497 1472 1415 1366 1284 1154 919 738 612 553 626 556 326 249 225 177 171 72
0 3 0 0 0 0 0 0 0 0 0 0 0 0 0 0 0 159 299 214 218 156 179 784 1199 1659 1522 1344 1914 1811 1697 1576 1494 1456 1436 1319 1144 889 689 502 556 733 687 461 377 326 281 194 165
0 0 3 0 0 0 0 0 0 0 0 0 0 0 0 0 0 49 437 250 305 175 141 392 664 1030 893 507 1297 1780 1720 1671 1585 1526 1527 1015 261 363 267 56 447 746 769 586 533 469 400 259 60
0 0 0 0 1 0 0 0 0 0 0 0 0 0 0 0 0 0 0 371 245 230 161 269 625 722 642 244 752 1194 1136 1163 1112 848 1007 700 254 373 129 162 374 592 793 673 661 645 524 145 0
0 0 0 0 0 0 0 0 0 0 0 0 0 0 0 0 0 0 0 42 107 202 252 291 1170 1924 836 334 540 912 813 840 885 890 1057 916 676 917 672 345 448 167 314 39 114 92 38 0 0
0 0 0 0 0 0 0 0 0 0 0 0 0 0 0 0 0 0 0 0 275 158 142 289 642 1364 1547 621 748 657 572 800 855 983 1436 1226 1225 1075 835 405 299 307 130 96 36 49 59 49 33
0 0 0 0 0 0 0 0 0 0 0 0 0 0 0 0 0 0 0 0 4 324 188 203 426 1232 1566 1457 726 782 646 747 857 815 1336 1174 933 877 742 561 482 279 224 137 183 100 62 84 91
0 0 0 0 0 0 0 0 0 0 0 0 0 0 0 0 0 0 0 0 24 0 361 209 267 759 1492 1733 1542 1084 1394 1203 978 719 877 1363 939 841 590 801 667 403 265 161 134 132 66 63 25
0 0 0 0 0 0 0 0 0 0 0 0 0 0 0 0 0 0 0 0 0 0 96 797 779 683 1491 1833 1470 1109 837 764 708 739 937 1054 1326 1116 1045 593 518 323 549 467 327 229 135 79 27
0 0 0 0 0 0 0 0 0 0 0 0 0 0 0 0 0 0 0 0 0 0 328 970 646 561 1658 1780 1529 844 314 422 341 356 370 1072 1180 1166 1138 465 650 307 311 237 165 154 146 102 112
0 0 0 0 0 0 0 0 0 0 0 0 0 0 0 0 0 0 0 0 0 0 0 576 1699 863 1406 1543 1216 948 1104 463 81 152 72 548 685 671 939 482 262 1244 314 185 189 144 211 306 499
0 0 0 0 0 0 0 0 0 0 0 0 0 0 0 0 0 0 0 0 0 0 0 68 1773 2269 1361 1228 1120 420 282 289 224 236 138 305 650 377 485 202 522 757 397 223 306 792 592 691 876
0 0 0 0 0 0 0 0 0 0 0 0 0 0 0 0 0 0 0 0 0 0 0 0 225 2177 2690 2107 1112 555 214 311 130 155 588 444 357 257 767 301 353 425 655 770 815 1224 1181 1245 1293
0 0 0 0 0 0 0 0 0 0 0 0 0 0 0 0 0 0 0 0 0 0 0 0 0 45 1507 2790 2663 2162 1707 913 330 265 928 804 558 874 589 819 919 1072 918 1153 1626 1665 1477 1604 1815
0 0 0 0 0 0 0 0 0 0 0 0 0 0 0 0 0 0 0 0 0 0 0 0 0 0 0 209 1285 2085 2024 2000 1813 1575 1538 1543 1322 837 1358 1404 1451 2759 2033 1689 2273 2075 1999 1743 1856
0 0 0 0 0 0 0 0 0 0 0 0 0 0 0 0 0 0 0 0 0 0 0 0 0 0 0 0 155 1648 1317 1355 1666 2026 2349 2424 2048 1604 1567 1863 2288 3522 2512 2783 2553 2201 2208 2397 2028
0 0 0 0 0 0 0 0 0 0 0 0 0 0 0 0 0 0 0 0 0 0 0 0 0 0 0 1 66 59 1248 905 962 1604 3037 4177 3858 2553 2085 2413 3114 3542 2691 3042 3067 2466 2460 2062 1946
0 0 0 0 0 0 0 0 0 0 0 0 0 0 0 0 0 0 0 0 0 0 0 0 0 0 0 16 14 148 223 1188 792 1261 1360 1816 2189 2692 2849 2550 2953 3347 3054 3190 2841 2831 2340 2312 2320
0 3 1 0 0 0 0 0 0 0 0 0 0 0 0 0 0 0 0 0 0 0 0 0 0 0 0 0 0 0 123 412 1291 2158 1330 1496 1005 1307 3227 3051 3721 3260 3205 3310 2727 2650 2450 2506 2428
22 28 26 4 0 3 0 0 0 0 0 0 0 0 0 0 0 0 0 0 0 0 0 0 0 0 0 0 0 0 13 91 225 758 543 624 877 1027 3154 2866 2908 3017 2982 2927 2911 2483 2189 2292 2334
28 9 17 17 6 4 0 0 0 0 0 0 0 0 0 0 0 0 0 0 0 0 0 0 0 0 0 0 0 0 0 125 372 1274 1525 1117 1565 1335 2313 2299 2751 2917 3005 2945 2578 1939 2427 2296 2382
20 42 32 24 17 20 6 0 8 0 0 0 0 0 0 0 0 0 0 0 0 0 0 0 0 0 0 0 0 0 0 3 256 940 1742 2373 2458 2348 1686 2272 2589 2780 2508 2250 2517 2283 2747 2469 2707
47 23 23 52 58 44 11 1 2 0 0 0 0 2 0 0 0 0 0 0 0 0 0 0 0 0 0 0 0 0 0 0 57 376 788 1631 2058 1864 1739 2086 2310 2336 2243 2401 2861 2901 2802 2939 2889
13 46 50 80 52 54 34 0 0 0 0 0 0 10 13 3 0 0 0 0 0 0 0 0 0 0 0 0 0 0 0 0 136 304 770 828 1246 1669 1814 1936 1988 1908 1970 2618 2984 3064 2794 2854 2746

GFSSGP_con_sbcape_057.txt.gz
CAPE
0 0 0 0 0 0 0 0 0 0 0 0 0 0 0 1 25 37 64 64 0 770 661 1577 2456 2750 2929 2797 2602 2432 2249 1911 1961 2022 1938 1947 2099 2177 2072 1872 1658 1171 496 110 0 0 0 0 0
0 0 0 0 0 0 0 0 0 0 0 0 0 0 0 0 0 0 94 120 1 1038 963 846 2332 2678 2865 2815 2614 2443 2355 2176 2061 2091 2035 2121 2173 2170 1978 1780 1354 811 302 35 0 0 0 0 0
0 0 0 0 0 0 0 0 0 0 0 0 0 0 0 0 0 0 7 206 62 1056 956 947 2261 2598 2795 2752 2579 2385 2395 2333 2216 2193 2177 2250 2205 2080 1891 1660 1418 630 135 0 0 0 0 0 0
0 0 0 0 0 0 0 0 0 0 0 0 0 0 0 0 0 0 159 206 219 673 922 1667 2048 2408 2641 2691 2523 2389 2424 2430 2334 2296 2254 2277 2164 1906 1665 1525 1271 753 29 0 0 0 0 0 0
0 0 0 0 0 0 0 0 0 0 0 0 0 0 0 0 0 1 368 257 333 404 863 1861 1831 2239 2505 2615 2428 2307 2355 2315 2311 2329 2303 2248 1994 1683 1468 1324 1104 689 259 47 0 3 30 21 0
0 0 0 0 0 0 0 0 0 0 0 0 0 0 0 0 0 17 565 455 291 322 625 2011 1702 2023 2214 2350 2214 2073 2027 2064 2149 2199 2166 2060 1725 1450 1256 1124 904 596 455 233 125 105 77 86 31
0 25 15 2 4 5 0 0 0 0 0 0 0 0 0 0 0 19 674 529 464 360 422 1997 1068 1760 2129 2063 1910 1771 1652 1633 1660 1643 1661 1592 1423 1209 1032 869 700 679 589 379 292 259 172 140 59
0 8 21 32 15 5 5 0 0 0 0 0 0 0 0 0 0 0 611 495 580 357 296 1271 688 1111 1195 1411 1919 1828 1709 1542 1439 1446 1422 1365 1257 1051 871 601 539 725 716 518 474 361 283 198 152
0 0 3 14 45 44 23 9 0 0 0 0 0 0 0 0 0 0 0 638 518 394 288 873 534 840 753 484 1392 1707 1673 1580 1508 1382 1414 953 230 349 278 97 394 733 821 603 505 412 332 228 64
0 0 0 3 28 71 77 35 6 0 0 0 0 0 0 0 0 0 0 142 519 530 273 474 1221 839 603 207 949 831 783 861 857 672 742 644 400 362 60 137 631 597 799 700 567 534 363 92 0
0 0 0 0 12 41 30 51 20 8 0 0 1 0 0 0 0 0 0 0 182 567 337 249 1539 2082 1023 314 692 619 470 596 716 668 1242 1005 368 548 244 193 130 144 314 18 121 63 11 0 0
0 0 0 0 1 19 15 0 3 25 19 0 0 0 0 0 0 0 0 0 46 286 394 239 1083 1610 2239 495 447 685 329 757 660 670 1728 1783 887 1729 1467 398 386 1001 127 171 78 69 247 68 19
0 0 0 0 0 0 0 0 0 0 0 0 0 0 0 0 0 0 0 0 2 87 354 431 563 1471 2221 3076 871 895 651 617 620 721 1404 1156 918 2052 1393 1513 474 664 286 237 432 202 293 153 117
0 0 0 0 0 0 0 0 0 0 0 0 0 0 0 0 0 0 0 0 11 57 229 310 490 2176 2151 2577 3397 2134 1814 986 927 1026 1454 2068 1573 2330 949 1294 637 464 269 205 266 468 279 220 130
0 0 0 0 0 0 0 0 0 0 0 0 0 0 0 0 0 0 0 0 0 33 61 891 745 1587 2935 3221 2836 2444 1263 1091 1084 1250 2502 2396 2646 2361 1976 720 768 853 967 1973 1131 619 380 187 129
0 0 0 0 0 0 0 0 0 0 0 0 0 0 0 0 0 0 0 0 0 0 79 779 407 1082 2144 2448 2535 2019 1416 1423 976 1293 1397 2099 2670 2389 2339 956 1136 1075 1134 638 1050 624 231 215 254
0 0 0 0 0 0 0 0 0 0 0 0 0 0 0 0 0 0 0 0 0 0 1 716 1817 1110 2175 2132 1878 2111 1967 1088 1062 1158 1204 1884 2017 2027 2214 1553 1339 1779 791 704 1146 966 778 705 648
1 0 0 0 0 0 0 0 0 0 0 0 0 0 0 0 0 0 0 0 0 0 0 20 714 1720 2242 1849 2055 1421 1246 1214 807 518 692 922 1702 1722 2124 1423 1481 1016 873 512 801 1149 1091 999 995
0 0 0 0 0 0 0 0 0 0 0 0 0 0 0 0 0 0 0 0 0 0 1 0 6 1533 1511 2160 1284 1626 1173 1046 936 888 1269 1382 1446 1590 1784 1175 976 898 847 1330 1915 1407 1707 1348 1684
0 0 0 0 0 0 0 0 0 0 0 0 0 0 0 0 0 0 0 0 0 0 0 1 1 5 1170 1567 1479 1548 1219 686 553 672 500 1040 1312 1583 1512 1015 705 1094 785 2249 2290 2328 1638 1864 2077
0 0 0 0 0 0 0 0 0 0 0 0 0 0 0 0 0 0 0 0 0 0 0 0 0 13 29 596 2177 2620 3400 3547 2111 1324 912 1100 1151 1450 1234 1468 572 1027 1754 1885 2540 2776 3126 1843 2151
0 0 0 0 0 0 0 0 0 0 0 0 0 0 0 0 0 0 0 0 0 0 0 0 0 5 63 389 361 1391 2203 1903 2051 2549 2168 1519 2150 1861 1721 1178 1649 2066 2390 2574 3263 3118 3230 3312 2291
0 0 0 0 0 0 0 0 0 0 0 0 0 0 0 0 0 0 0 0 0 0 0 0 0 0 68 145 235 401 871 1492 984 118 1140 2864 2832 1689 1379 1656 2508 3466 3018 3487 3610 4421 4259 2860 2446
0 0 0 0 0 0 0 0 0 16 0 0 0 0 0 0 0 0 0 0 0 0 0 0 0 7 0 3 285 691 840 914 828 1238 960 1371 2071 2336 2596 2552 3493 3843 4037 4147 4187 4558 4495 3708 3299
7 12 5 18 27 2 12 0 2 0 0 0 0 0 0 0 0 0 0 0 0 0 0 0 0 0 3 23 9 184 442 994 1486 1041 1404 1438 1140 1910 3924 3410 4034 3987 4907 4394 4176 4667 4445 3928 3147
11 40 49 35 70 39 9 1 29 0 0 0 0 0 0 0 0 0 0 0 0 0 0 0 0 0 0 0 0 51 224 4 76 479 490 928 1634 2218 3437 4713 3973 4457 4444 4323 4533 3792 3562 3607 3359
11 24 25 14 9 13 1 7 2 0 0 0 0 0 0 0 0 0 0 0 0 0 0 0 0 0 0 0 27 110 114 219 162 905 1785 493 1317 1285 2554 4552 4346 4501 4211 4305 4527 3725 4010 3682 3689
31 20 39 68 23 19 5 23 44 35 41 8 0 0 0 0 0 1 2 2 0 0 0 0 1 0 0 1 18 1 29 101 207 735 1292 1431 2018 1944 1783 2767 3714 3902 4127 4189 4388 4087 3955 3553 2896
62 24 28 45 61 83 80 18 39 17 29 22 11 1 1 1 0 3 2 3 4 0 0 4 0 0 0 0 0 2 1 0 56 311 897 1179 2195 2682 2857 2171 2773 3615 3876 4114 4478 3683 3077 3307 3658
57 77 94 85 32 65 105 62 21 1 43 49 16 17 12 23 14 11 5 0 0 0 1 0 0 0 0 0 0 0 0 0 78 243 556 1278 1891 2271 2323 2382 2445 2639 3598 4053 3898 3129 2348 3152 2867

GFSSGP_con_sbcape_060.txt.gz
CAPE
0 0 0 0 0 0 0 0 0 0 0 0 0 0 0 0 0 119 32 133 708 460 1596 2088 2657 2891 2712 2516 2270 2101 1762 1803 1908 1868 1767 1931 2056 2056 1882 1724 1554 1200 634 91 0 0 0 0 0
0 0 0 0 0 0 0 0 0 0 0 0 0 0 0 0 25 89 223 46 959 718 1552 1686 2665 2805 2784 2539 2283 2078 1837 1917 1940 1871 1842 2006 2094 2000 1810 1658 1437 985 294 0 0 0 0 0 0
0 0 0 0 0 0 0 0 0 0 0 0 0 0 0 0 0 0 15 108 1289 1064 1193 2055 2628 2746 2856 2762 2405 2133 1929 1943 1975 1953 1942 2094 2101 1958 1747 1585 1328 834 135 6 0 0 0 0 0
0 0 0 0 0 0 0 0 0 0 0 0 0 0 0 0 0 0 77 231 1246 1282 717 2033 2513 2647 2758 2791 2556 2324 2155 2026 2024 2057 2057 2146 2079 1879 1666 1538 1281 800 206 21 4 0 0 0 0
0 0 0 0 0 0 0 0 0 0 0 0 0 0 0 0 0 0 157 176 145 1391 890 1860 2358 2575 2702 2761 2616 2449 2374 2170 2129 2167 2172 2207 2001 1736 1590 1474 1221 791 221 85 40 23 14 3 0
0 0 0 0 0 0 0 0 0 0 0 0 0 0 0 0 0 0 289 293 148 985 1243 2068 2214 2446 2507 2593 2463 2345 2272 2225 2234 2219 2228 2184 1892 1615 1462 1290 1129 667 315 170 106 49 43 40 17
0 0 0 0 0 0 0 0 0 0 0 0 0 0 0 0 0 0 220 356 390 547 1427 1886 1465 2316 2500 2361 2232 2157 2021 1997 2008 1962 1943 1886 1657 1374 1212 1063 845 638 508 293 212 179 134 128 77
0 0 0 1 7 0 0 0 0 0 0 0 0 0 3 0 0 0 0 428 393 306 1141 1933 1119 1558 2032 2066 2165 2044 1975 1843 1721 1714 1668 1523 1359 1132 976 641 584 679 660 470 405 340 262 244 195
0 0 0 0 0 4 5 0 0 0 0 0 0 0 0 0 0 0 0 31 503 403 844 1592 810 1256 1188 1464 1904 1963 1996 1848 1722 1518 1496 1030 955 668 486 231 339 690 749 603 531 446 374 365 332
0 0 0 0 0 0 1 19 52 0 0 0 0 0 0 0 0 0 0 0 563 631 374 843 879 972 851 576 1672 1619 1666 1575 1516 1356 1337 1078 676 512 66 128 446 552 749 727 591 559 506 342 0
0 0 0 0 0 0 0 0 9 0 0 0 0 0 0 0 0 0 0 0 11 75 368 841 1116 1170 821 413 1658 1041 1077 1115 1254 1178 1275 987 521 713 182 207 53 189 493 71 227 173 118 0 0
0 0 0 0 0 0 0 0 0 0 0 0 0 0 0 0 0 0 0 0 0 281 216 1016 1284 1707 1772 644 1481 782 781 873 979 934 1176 1204 912 727 1048 259 138 180 128 29 17 23 23 13 13
0 0 0 0 0 0 0 0 0 0 0 0 0 0 0 0 0 0 0 0 3 290 319 1131 1714 2085 1552 3039 1123 960 515 790 903 1049 1203 1259 662 1351 1378 1859 1014 735 485 179 137 44 264 193 201
0 0 0 0 0 0 0 0 0 0 0 0 0 0 0 0 0 0 0 0 70 118 432 1001 1612 2615 2566 2634 3083 3633 680 983 931 1048 1121 1222 1657 904 1904 1952 1933 1475 1223 830 373 498 670 618 279
0 0 0 0 0 0 0 0 0 0 0 0 0 0 0 0 0 0 0 0 312 228 263 669 1919 2437 2693 2850 3233 2949 2861 1512 982 1058 1565 1341 1693 2457 1579 1591 1306 1345 1266 1881 1943 1574 1502 877 499
0 0 0 0 0 0 0 0 0 0 0 0 0 0 0 0 0 0 0 8 9 162 458 356 692 1933 2655 2609 2598 2957 2674 1937 2231 1715 2536 2023 1831 2390 2857 1625 1379 1197 1722 1635 1215 1218 910 611 290
0 0 0 0 0 0 0 0 0 0 0 0 0 0 0 0 0 0 5 24 41 83 392 918 2036 2203 2173 2811 2328 2692 2541 2654 2337 2644 1654 2402 2526 1945 2028 1748 1316 1988 1615 1180 1401 1582 1155 765 543
0 0 0 0 0 0 0 0 0 0 0 0 0 0 0 0 0 2 16 0 0 99 79 693 1513 2070 2470 2263 2451 1942 2172 2046 1603 1646 1308 1773 1827 2099 1926 1771 2028 2366 1379 948 1139 1395 1173 801 774
0 0 0 0 0 0 0 0 0 0 0 0 0 0 0 0 0 0 0 0 0 3 264 261 1312 2306 1844 1882 1684 1453 1594 1355 857 818 755 1063 1151 1596 1916 1897 1709 1755 1178 859 1150 1300 1112 866 1381
0 0 0 0 0 0 0 0 0 0 0 0 0 0 0 0 0 0 0 0 0 212 326 488 643 1941 1864 1101 1718 1308 1422 1466 1345 769 925 1338 1178 1438 1540 1592 1366 1170 724 791 783 1474 1052 1130 1297
0 0 0 0 0 0 0 0 0 0 0 0 0 0 0 0 0 0 0 0 0 14 287 100 324 628 1077 2217 2235 1933 1912 2458 2378 840 701 520 643 497 1442 1576 1019 836 697 436 995 1606 1636 1100 1912
0 0 0 0 0 0 0 0 0 0 0 0 0 0 0 0 0 0 0 0 0 27 29 0 138 156 368 719 1554 2393 2156 1234 1615 1847 1678 1048 1191 1048 1481 1077 1015 604 912 772 929 1702 1754 1728 1406
0 3 2 0 0 0 0 0 0 0 0 0 0 0 0 0 0 0 0 0 0 0 0 176 139 58 49 415 715 909 1229 1377 424 551 1262 729 69 1625 1159 1275 1094 795 1079 878 1358 1522 2310 2572 2424
2 0 1 6 1 0 0 0 0 0 9 2 0 0 0 0 0 0 0 0 0 0 1 42 313 44 88 248 459 1120 807 977 1258 954 282 237 122 7 84 1453 1064 945 700 662 1629 2082 2709 3047 3031
0 8 9 34 46 0 0 9 0 14 0 3 0 0 0 0 0 0 0 0 0 0 0 0 0 248 86 160 145 185 634 585 678 1060 967 292 156 296 202 1075 141 0 0 7 77 27 794 4031 3080
6 6 24 12 60 41 2 2 21 30 1 0 0 0 0 0 0 0 0 5 0 0 0 0 1 20 32 83 121 159 212 415 275 244 273 439 984 444 214 642 240 0 0 24 104 517 2806 3583 3550
12 1 0 43 2 47 0 0 53 1 0 0 0 0 0 0 0 1 11 13 11 15 20 7 0 0 1 40 247 413 372 372 142 256 464 414 1077 757 838 850 160 111 493 1889 1703 2959 3208 3414 3355
56 26 23 47 14 13 0 0 1 69 70 1 0 0 0 0 0 6 4 14 49 70 45 211 196 60 16 9 74 28 162 226 224 435 392 420 486 567 1229 1030 2073 2434 2696 3020 3716 3553 3558 3477 3199
172 37 70 77 74 69 28 0 44 51 15 0 0 0 0 0 0 0 0 23 29 22 16 101 188 166 36 0 32 141 59 134 209 199 200 223 701 989 1133 1083 1712 2643 3436 3661 3548 3648 3492 3400 2960
25 112 155 196 51 70 114 2 3 26 3 3 14 1 5 0 0 0 3 3 0 0 0 0 22 35 16 23 41 88 200 359 351 101 150 637 531 1062 1115 1469 1606 1388 1456 2873 3525 3713 3550 3188 2625

GFSSGP_con_sbcape_063.txt.gz
CAPE
0 0 0 0 0 0 0 0 0 0 0 0 0 25 26 9 93 39 9 217 892 1328 2114 2574 2505 2463 2437 2284 1959 1723 1664 1698 1580 1614 1694 1811 1821 1715 1583 1477 1278 1092 388 37 0 0 0 0 0
0 0 0 0 0 0 0 0 0 0 0 0 0 0 9 7 108 29 436 419 709 1266 1651 2200 2556 2446 2435 2235 1903 1614 1691 1735 1585 1610 1739 1847 1756 1640 1506 1418 1218 846 52 0 0 0 0 0 0
0 0 0 0 0 0 0 0 0 0 0 0 0 0 0 0 0 0 492 495 962 1033 1201 2125 2586 2376 2391 2202 1898 1628 1695 1733 1650 1691 1806 1890 1755 1564 1407 1366 1124 672 4 0 0 0 0 0 0
0 0 0 0 0 0 0 0 0 0 0 0 0 0 0 0 0 0 456 623 890 675 1242 2381 2516 2323 2260 2209 2011 1790 1786 1787 1738 1778 1884 1909 1776 1507 1379 1312 1097 727 36 0 0 0 0 0 0
0 0 0 0 0 0 0 0 0 0 0 0 0 0 0 0 0 1 34 947 715 481 1696 2158 2477 2450 2327 2304 2164 2002 1904 1776 1823 1879 1969 1932 1725 1466 1363 1288 1073 763 284 55 3 2 0 0 0
0 0 0 0 0 0 0 0 0 0 0 0 0 0 0 0 0 7 108 123 706 492 1453 1873 2517 2493 2354 2318 2208 2064 1913 1839 1894 1898 1985 1937 1648 1476 1360 1223 1091 715 333 168 93 24 6 2 0
0 0 0 0 0 0 0 0 0 0 0 0 0 0 0 0 0 0 27 104 669 1081 1255 1513 2162 2382 2397 2191 2094 2058 1973 1911 1828 1767 1787 1765 1598 1404 1227 1051 914 533 316 177 117 82 56 48 30
0 0 0 0 0 0 0 0 0 0 0 0 0 0 0 0 0 0 0 0 466 1367 1286 1223 1851 2087 2030 1957 2148 2051 2013 1970 1809 1805 1787 1612 1495 1263 1055 697 613 571 447 294 210 195 181 133 113
0 0 0 0 0 0 0 0 0 0 0 0 0 0 0 0 0 0 0 0 354 1407 1027 920 1503 1732 1700 1560 2026 2001 2174 1953 1797 1777 1628 1236 718 731 680 367 430 543 568 508 378 358 298 248 256
0 0 0 0 0 0 0 0 0 0 0 0 0 0 0 0 0 0 0 0 3 680 1008 780 969 1251 1224 1733 1604 1489 1728 1445 1262 1171 1078 623 448 251 254 187 455 482 607 659 554 494 426 396 47
0 0 0 0 0 0 0 0 0 0 0 0 0 0 0 0 0 0 0 0 3 0 219 555 796 755 610 1342 1288 1204 1152 1053 947 969 716 549 281 227 152 38 67 85 341 146 294 251 227 120 13
0 0 0 0 0 0 0 0 0 0 19 0 0 0 0 0 0 0 0 0 0 67 71 459 694 620 381 1033 919 767 876 851 833 762 719 408 177 75 130 16 0 2 1 13 0 10 12 29 0
0 0 0 0 0 0 0 0 0 0 0 6 0 0 0 0 0 0 0 0 0 75 115 554 729 543 371 995 571 487 556 496 574 468 646 399 215 220 186 50 0 0 0 1 0 0 0 4 13
0 0 0 0 0 0 0 0 0 0 0 0 0 0 0 0 0 0 0 0 0 9 242 711 970 798 595 894 736 287 315 419 390 460 574 691 218 252 277 377 283 182 96 59 5 0 0 36 56
0 0 0 0 0 0 0 0 0 0 0 0 0 0 0 0 0 0 0 0 0 4 143 1119 1521 1589 1109 1692 1899 1709 353 408 461 521 539 606 745 165 317 689 433 553 427 375 136 92 186 220 243
0 0 0 0 0 0 0 0 0 0 0 0 0 0 0 0 0 0 0 0 14 54 62 118 1254 1837 1257 1695 1540 1583 1513 1076 387 454 619 782 599 918 497 944 771 487 404 524 472 343 253 245 156
0 0 0 0 0 0 0 0 0 0 0 0 0 0 0 0 0 0 0 0 52 38 75 213 978 1824 1900 1837 1842 1651 1319 1479 1283 992 1285 990 756 1073 1534 1197 791 773 613 671 440 473 376 289 223
0 0 0 0 0 0 0 0 0 0 0 0 0 0 0 0 0 0 0 0 0 0 0 0 901 1473 1892 1784 1549 1789 1585 1397 1146 846 930 1647 1496 1209 1359 1307 1069 718 848 593 221 322 501 325 254
0 0 0 0 0 0 0 0 0 0 0 0 0 0 0 0 0 0 0 0 0 0 2 3 566 1086 1860 1842 1579 1336 1406 1244 950 774 604 674 1437 1779 1333 981 1100 1177 946 430 296 220 452 295 318
0 0 0 0 0 0 0 0 0 0 0 0 0 0 0 0 0 0 0 0 0 0 42 22 35 611 1331 1421 1427 1131 1036 1128 798 599 507 432 447 877 1508 1542 1163 1060 655 326 286 263 268 447 400
0 0 0 0 0 0 0 0 0 0 0 0 0 0 0 0 0 0 0 0 0 0 23 45 165 255 841 1544 1074 871 1255 1181 1044 784 577 580 525 524 873 1221 1123 819 444 224 171 255 504 603 580
0 0 0 0 0 0 0 0 0 0 0 0 0 0 0 0 0 0 0 0 0 0 0 0 1 11 63 200 1701 980 608 1292 1234 948 539 437 444 357 443 1069 1017 441 278 176 136 497 920 1077 1139
0 0 0 0 0 0 0 0 0 0 0 0 0 0 0 0 0 0 0 0 0 0 0 0 0 0 0 8 146 1179 1625 1192 901 893 1326 754 352 1031 667 739 708 544 229 236 556 493 607 1426 1491
0 0 0 0 0 0 0 0 0 0 0 0 0 0 0 0 0 0 0 0 0 0 0 0 0 0 0 1 20 176 259 363 827 638 295 235 404 142 229 1186 820 619 462 505 729 812 1129 787 422
0 0 0 0 0 0 0 0 0 0 0 0 0 0 0 0 0 0 0 0 0 0 0 0 0 0 0 0 0 0 42 196 188 209 503 619 194 115 110 55 866 748 752 726 262 532 131 0 0
2 5 0 0 0 0 0 16 0 4 0 0 0 0 0 0 0 0 0 0 0 0 0 0 0 0 0 0 0 3 0 150 88 106 123 79 423 255 97 86 172 311 248 0 0 1 0 0 0
39 1 0 0 0 0 0 0 0 0 0 0 0 0 0 0 0 0 0 0 0 0 0 0 0 0 0 0 0 0 0 0 7 11 46 88 224 586 672 214 424 246 88 17 2 0 0 3 44
85 56 45 1 0 3 0 0 0 20 0 0 0 0 0 0 0 0 0 0 0 0 0 0 0 0 0 0 0 0 0 0 0 9 53 41 9 45 137 503 342 258 356 381 194 61 149 101 38
13 53 21 1 0 0 0 0 3 15 0 0 0 0 0 0 0 0 0 0 0 0 0 0 0 0 0 0 0 0 0 0 0 0 9 95 78 121 202 324 321 595 700 530 425 222 269 747 976
30 2 0 9 0 0 0 0 13 0 0 0 0 0 0 0 0 0 0 0 0 0 0 0 0 0 0 0 0 0 0 0 0 0 0 26 53 65 190 486 564 735 978 1424 659 774 1620 2262 2606

GFSSGP_con_sbcape_066.txt.gz
CAPE
0 0 0 0 0 0 0 0 0 0 0 0 3 15 34 2 1 3 38 99 1085 1782 2187 2188 2210 2191 2078 1896 1794 1603 1424 1382 1427 1475 1562 1577 1571 1578 1530 1433 1367 1170 369 27 0 0 0 0 0
0 0 0 0 0 0 0 0 0 0 0 0 0 8 92 124 95 161 266 595 1015 1732 2096 1974 2262 2184 2053 1807 1684 1547 1500 1446 1437 1526 1614 1581 1506 1449 1360 1245 1091 589 20 0 0 0 0 0 0
0 0 0 0 0 0 0 0 0 0 0 0 0 0 0 0 31 173 199 440 969 1536 1877 2029 2339 2179 2094 1788 1628 1521 1454 1446 1500 1615 1660 1601 1496 1368 1315 1227 981 424 0 0 0 0 0 0 0
0 0 0 0 0 0 0 0 0 0 0 0 0 0 0 0 0 309 517 607 786 1145 1698 2250 2308 2144 2060 1800 1674 1608 1521 1484 1562 1705 1703 1609 1485 1332 1289 1215 960 562 4 0 0 0 0 0 0
0 0 0 0 0 0 0 0 0 0 0 0 0 0 0 0 21 297 522 553 445 891 1512 2223 2321 2197 2066 1889 1763 1729 1655 1538 1590 1757 1766 1688 1452 1292 1276 1200 986 656 148 0 0 0 0 0 0
0 0 0 0 0 0 0 0 0 0 0 0 0 0 0 0 2 380 528 236 289 920 1574 2132 2405 2245 1986 1858 1723 1687 1657 1623 1657 1738 1774 1676 1428 1315 1266 1192 1017 683 309 98 17 0 0 0 0
0 0 0 0 0 0 0 0 0 0 0 0 0 0 0 0 0 0 523 459 244 998 1338 1999 2025 2203 2191 1903 1662 1637 1597 1640 1627 1642 1666 1548 1414 1326 1209 1059 908 514 281 192 91 26 10 2 0
0 0 0 0 0 0 0 0 0 0 0 0 0 0 0 0 0 0 0 544 349 1119 947 1701 1860 1737 1577 1842 1884 1687 1644 1644 1553 1601 1615 1522 1431 1272 1080 653 642 475 310 186 141 111 82 59 64
0 0 0 0 0 0 0 0 0 0 0 0 0 0 0 0 0 0 98 474 1145 1107 850 1374 1721 1470 1347 1634 1961 1874 1946 1775 1667 1726 1616 1244 882 857 824 415 569 536 464 378 268 229 213 169 156
0 0 0 0 0 0 0 0 0 0 0 0 0 0 0 0 0 0 28 745 1171 1089 878 1090 1407 1364 1192 1271 1623 1673 1709 1515 1436 1395 1296 811 496 354 447 329 543 596 551 546 489 393 331 288 17
0 0 0 0 0 0 0 0 0 0 0 0 0 0 0 0 0 0 0 1011 1052 1037 1010 978 1240 1206 1340 1458 1216 1251 1426 1347 1245 1131 890 554 340 385 333 126 175 145 283 92 241 209 183 67 8
0 0 0 0 0 0 0 0 0 0 0 0 0 0 0 0 0 0 0 2 77 592 895 900 1002 1071 1118 1228 1089 1021 937 948 918 888 624 439 262 167 130 35 15 11 0 4 0 0 1 20 12
0 0 0 0 0 0 0 0 0 0 0 0 0 0 0 0 0 0 0 0 0 113 607 866 867 801 475 1079 1094 1109 995 901 753 618 512 382 160 78 68 3 0 0 0 0 0 0 0 0 0
0 0 0 0 0 0 0 0 0 0 0 0 0 0 0 0 0 0 0 0 0 24 278 753 788 660 452 976 778 859 893 836 588 475 563 328 175 61 23 48 1 0 0 0 0 0 0 0 0
0 0 0 0 0 0 0 0 0 0 0 0 0 0 0 0 0 0 0 0 0 2 328 648 809 622 583 847 474 447 537 514 504 482 345 519 144 79 162 96 116 26 0 9 0 4 1 0 0
0 0 0 0 0 0 0 0 0 0 0 0 0 0 0 0 0 0 0 0 0 1 548 626 973 738 903 939 754 400 300 345 394 386 362 553 509 120 94 361 258 236 328 304 225 230 154 126 82
0 0 0 0 0 0 0 0 0 0 0 0 0 0 0 0 0 0 0 0 0 27 68 206 1483 1328 1044 1477 1373 1203 488 460 386 402 443 570 615 675 179 100 445 463 300 217 295 269 179 127 86
0 0 0 0 0 0 0 0 0 0 0 0 0 0 0 0 0 0 0 0 0 12 99 531 1231 1736 1602 1228 1171 1071 1076 977 592 429 601 697 629 653 972 849 463 486 567 485 259 175 157 256 163
0 0 0 0 0 0 0 0 0 0 0 0 0 0 0 0 0 0 0 0 0 0 0 268 663 1046 1767 1575 1246 1021 1186 1067 859 722 859 1032 940 838 985 1241 968 596 554 507 249 92 145 127 71
0 0 0 0 0 0 0 0 0 0 0 0 0 0 0 0 0 0 0 0 0 0 0 0 406 1095 1289 1616 1238 931 929 945 903 697 525 990 1448 1387 1090 976 919 945 894 555 295 143 104 178 130
0 0 0 0 0 0 0 0 0 0 0 0 0 0 0 0 0 0 0 0 0 0 0 0 16 360 1205 1247 922 776 980 953 776 505 478 410 723 1299 1755 1424 1206 847 873 776 298 155 101 170 214
0 0 0 0 0 0 0 0 0 0 0 0 0 0 0 0 0 0 0 0 0 0 0 0 7 64 100 161 935 831 803 1053 773 627 351 372 523 498 495 872 1486 1333 840 765 263 164 181 310 441
0 0 0 0 0 0 0 0 0 0 0 0 0 0 0 0 0 0 0 0 0 0 0 0 0 0 0 2 71 593 1141 700 493 745 1044 525 436 532 457 563 959 1059 757 691 378 275 325 463 660
0 0 0 0 0 0 0 0 0 0 0 0 0 0 0 0 0 0 0 0 0 0 0 0 0 0 0 0 20 122 267 338 547 856 600 676 660 394 551 757 719 891 662 375 483 389 302 287 876
3 0 0 0 0 0 0 0 0 0 0 0 0 0 0 0 0 0 0 0 0 0 0 0 0 0 0 0 0 0 72 201 219 278 526 513 321 322 420 376 888 807 762 653 496 468 399 682 673
2 1 0 0 0 0 0 0 0 0 0 0 0 0 0 0 0 0 0 0 0 0 0 0 0 0 0 0 0 0 0 0 5 13 17 201 342 355 301 219 232 469 733 683 462 512 489 18 6
0 0 8 0 0 0 0 0 0 0 0 0 0 0 0 0 0 0 0 0 0 0 0 0 0 0 0 0 0 0 0 0 0 0 0 0 0 131 373 244 139 121 192 146 89 27 41 12 1
10 7 0 1 0 0 0 0 0 1 0 0 0 0 0 0 0 0 0 0 0 0 0 0 0 0 0 0 0 0 0 0 0 0 0 0 0 0 4 309 337 383 461 261 28 0 3 0 0
0 0 0 0 0 2 0 0 0 0 0 0 0 0 0 0 0 0 0 0 0 0 0 0 0 0 0 0 0 0 0 0 0 0 0 0 0 0 25 117 187 384 455 493 382 305 197 128 107
3 1 0 0 1 4 0 0 0 0 0 1 0 0 0 0 0 0 0 0 0 0 0 0 0 0 0 0 0 0 0 0 0 0 0 0 0 0 0 3 89 278 427 543 740 728 796 506 417

GFSSGP_con_sbcape_069.txt.gz
CAPE
0 0 0 0 0 0 0 0 0 0 0 0 0 3 1 4 1 0 23 250 1271 1541 1724 1998 2174 2103 1920 1745 1570 1365 1388 1452 1470 1450 1465 1563 1668 1733 1719 1663 1567 1101 399 34 0 0 0 0 0
0 0 0 0 0 0 0 0 0 0 0 0 0 4 8 4 85 143 100 906 1192 1499 1700 1729 2199 2123 2001 1712 1458 1298 1330 1346 1307 1349 1427 1496 1523 1521 1464 1349 1048 494 102 0 0 0 0 0 0
0 0 0 0 0 0 0 0 0 0 0 0 0 0 0 0 43 155 274 1097 1457 1477 1521 1740 2207 2078 1982 1725 1471 1324 1308 1327 1381 1416 1404 1399 1368 1291 1200 1118 916 227 8 0 0 0 0 0 0
0 0 0 0 0 0 0 0 0 0 0 0 0 0 0 0 0 222 583 1178 1433 1426 1579 2108 2169 2022 1909 1702 1567 1380 1372 1423 1453 1471 1438 1353 1245 1161 1133 1066 838 417 5 0 0 0 0 0 0
0 0 0 0 0 0 0 0 0 0 0 0 0 0 0 0 176 365 601 800 1071 1428 1594 2012 2204 2076 1902 1766 1644 1451 1431 1409 1523 1535 1480 1295 1191 1142 1134 1030 640 343 23 0 0 0 0 0 0
0 0 0 0 0 0 0 0 0 0 0 0 0 0 0 0 349 356 384 429 741 1227 1677 1815 2173 2086 1831 1792 1664 1492 1409 1483 1569 1543 1474 1364 1202 1155 1090 1038 795 554 154 38 1 0 0 0 0
0 0 0 0 0 0 0 0 0 0 0 0 0 0 0 0 40 355 302 170 554 1138 1588 1585 1832 1924 1909 1706 1590 1540 1423 1480 1532 1484 1435 1350 1236 1205 1145 1069 942 621 336 183 89 12 0 0 0
0 0 0 0 0 0 0 0 0 0 0 0 0 0 0 0 0 327 366 89 495 1155 1519 1457 1528 1727 1546 1492 1768 1629 1529 1499 1442 1512 1429 1300 1280 1194 1080 768 753 561 352 258 149 79 32 0 0
0 0 0 0 0 0 0 0 0 0 0 0 0 0 0 0 0 42 304 180 895 851 1277 1278 1274 1536 1379 1332 1550 1643 1719 1605 1449 1512 1443 1092 821 846 791 491 664 608 425 341 243 172 101 46 53
0 0 0 0 0 0 0 0 0 0 0 0 0 0 0 0 0 113 439 567 866 816 1081 1188 1242 1225 1317 1368 1389 1216 1254 1271 1122 1085 1114 798 545 470 496 388 715 700 554 498 394 268 208 168 0
0 0 0 0 0 0 0 0 0 0 0 0 0 0 0 0 0 227 555 780 868 942 1108 1300 1181 1140 1057 1229 1405 1188 1250 1141 1112 1020 898 603 456 514 533 188 302 173 296 57 220 128 93 24 0
0 0 0 0 0 0 0 0 0 0 0 0 0 0 0 0 0 14 422 923 986 1030 1015 1298 1176 1044 1020 1016 1227 1170 1275 1075 971 944 709 423 312 265 241 102 31 18 3 9 0 0 0 0 0
0 0 0 0 0 0 0 0 0 0 0 0 0 0 0 0 0 4 253 169 640 956 976 1363 1330 1110 1222 1153 962 913 969 896 915 862 627 426 284 178 131 52 1 0 0 0 0 0 0 0 0
0 0 0 0 0 0 0 0 0 0 0 0 0 0 0 0 0 0 0 57 95 510 888 1062 1383 1407 1241 1274 1077 1009 1010 1007 852 801 735 414 249 110 48 30 1 0 0 0 0 0 0 0 0
0 0 0 0 0 0 0 0 0 0 0 0 0 0 0 0 0 0 0 0 5 97 661 869 973 1128 1106 1282 1140 1079 1090 967 860 852 789 655 219 66 4 52 30 1 0 0 0 0 0 0 0
0 0 0 0 0 0 0 0 0 0 0 0 0 0 0 0 0 0 0 0 0 1 324 680 1014 881 811 1224 979 888 910 818 830 812 699 735 413 122 92 33 87 119 20 7 17 37 111 81 26
0 0 0 0 0 0 0 0 0 0 0 0 0 0 0 0 0 0 0 0 0 0 345 559 904 810 670 917 832 658 551 549 551 550 549 660 626 300 130 125 176 129 132 260 255 232 130 155 93
0 0 0 0 0 0 0 0 0 0 0 0 0 0 0 0 0 0 0 0 0 0 266 729 951 848 815 927 962 804 435 453 359 345 376 466 654 618 222 93 92 264 310 262 232 225 76 170 132
0 0 0 0 0 0 0 0 0 0 0 0 0 0 0 0 0 0 0 0 0 6 138 973 1302 1178 1060 1230 1246 1061 1068 597 459 493 458 542 597 640 625 461 365 229 273 381 374 207 227 128 59
0 0 0 0 0 0 0 0 0 0 0 0 0 0 0 0 0 0 0 0 0 0 128 437 823 1512 1437 1356 1080 936 874 752 467 411 596 864 811 689 654 818 868 731 624 467 393 221 200 136 54
0 0 0 0 0 0 0 0 0 0 0 0 0 0 0 0 0 0 0 0 0 0 0 104 612 884 1295 1348 912 752 739 641 700 461 540 745 1069 938 804 732 795 880 998 782 629 372 203 365 109
0 0 0 0 0 0 0 0 0 0 0 0 0 0 0 0 0 0 0 0 0 0 0 0 10 607 773 967 996 805 761 1179 890 554 349 485 388 384 1010 1117 901 952 946 923 683 409 313 192 296
0 0 0 0 0 0 0 0 0 0 0 0 0 0 0 0 0 0 0 0 0 0 0 0 0 0 0 18 539 720 749 498 342 430 712 354 384 435 516 554 964 1375 1206 1100 956 557 209 258 378
0 0 0 0 0 0 0 0 0 0 0 0 0 0 0 0 0 0 0 0 0 0 0 0 0 0 0 0 1 106 238 346 398 583 597 410 449 389 309 479 477 871 1013 954 825 612 216 423 396
0 0 0 0 0 0 0 0 0 0 0 0 0 0 0 0 0 0 0 0 0 0 0 0 0 0 0 0 0 5 23 0 3 74 393 450 370 321 519 462 494 681 745 703 609 569 486 281 310
0 14 14 3 0 0 0 0 0 0 0 0 0 0 0 0 0 0 0 0 0 0 0 0 0 0 0 0 0 0 0 0 1 0 1 10 84 232 260 242 244 358 818 800 613 448 426 441 504
5 0 0 68 2 2 0 0 0 0 0 0 0 0 0 0 0 0 0 0 0 0 0 0 0 0 0 0 0 0 0 0 0 0 0 0 0 0 6 131 197 188 192 569 671 532 555 492 376
17 0 11 15 15 5 0 0 0 0 0 0 0 0 0 0 0 0 0 0 0 0 0 0 0 0 0 0 0 0 0 0 0 0 0 0 0 0 0 1 96 225 336 349 275 249 241 131 168
0 12 14 3 4 0 0 0 0 0 0 0 0 0 0 0 0 0 0 0 0 0 0 0 0 0 0 0 0 0 0 0 0 0 0 0 0 0 0 0 0 84 241 343 432 236 183 105 105
0 3 7 7 16 4 2 0 0 0 0 0 0 0 0 0 0 0 0 0 0 0 0 0 0 0 0 0 0 0 0 0 0 0 0 0 0 0 0 0 3 70 144 244 431 466 520 392 362

GFSSGP_con_sbcape_072.txt.gz
CAPE
0 0 0 0 0 0 0 0 0 0 0 0 0 0 0 0 0 0 8 326 865 1112 1649 1778 1983 1920 1882 1792 1744 1740 1722 1722 1728 1676 1584 1585 1657 1729 1717 1685 1627 1286 514 57 0 0 0 0 0
0 0 0 0 0 0 0 0 0 0 0 0 0 0 0 19 105 80 117 1010 848 1348 1628 1591 2022 1890 1861 1689 1604 1578 1623 1626 1567 1519 1587 1630 1671 1739 1644 1566 1267 646 154 1 0 0 0 0 0
0 0 0 0 0 0 0 0 0 0 0 0 0 0 0 0 74 134 190 1080 1262 1327 1392 1531 2020 1910 1811 1625 1480 1457 1478 1470 1453 1503 1562 1613 1638 1569 1419 1281 1007 346 17 0 0 0 0 0 0
0 0 0 0 0 0 0 0 0 0 0 0 0 0 0 0 0 180 1119 1350 1156 1226 1290 1788 1998 1868 1781 1645 1498 1402 1395 1427 1427 1493 1478 1493 1401 1210 1104 1051 816 461 35 0 0 0 0 0 0
0 0 0 0 0 0 0 0 0 0 0 0 0 0 0 0 347 723 1302 1245 1072 1105 1262 1939 2016 1882 1813 1675 1545 1440 1421 1383 1436 1437 1398 1310 1121 1010 998 909 632 476 163 17 0 0 0 0 0
0 0 0 0 0 0 0 0 0 0 0 0 0 0 0 0 396 476 915 953 1076 1084 1327 1574 1896 1876 1727 1697 1521 1407 1360 1377 1426 1399 1316 1218 1063 1006 966 891 748 538 220 77 10 0 0 0 0
0 0 0 0 0 0 0 0 0 0 0 0 0 0 0 0 189 313 338 597 1190 1288 1409 1301 1432 1664 1779 1684 1468 1376 1293 1297 1305 1299 1254 1133 1072 1052 1029 915 883 682 362 200 97 3 0 0 0
0 0 0 0 0 0 0 0 0 0 0 0 0 0 0 0 188 154 142 362 862 1426 1246 1238 1185 1406 1329 1352 1589 1477 1336 1285 1231 1243 1250 1098 1069 1068 1028 787 825 676 397 259 149 52 9 0 0
0 0 0 0 0 0 0 0 0 0 0 0 0 0 0 0 93 181 122 511 850 1364 1234 1213 1171 1152 1148 1082 1301 1508 1364 1404 1340 1328 1250 915 684 774 706 566 629 669 404 285 189 108 52 20 17
0 0 0 0 0 0 0 0 0 0 0 0 0 0 0 0 195 342 143 406 665 962 1089 1042 1030 1088 1018 1143 1122 1024 1030 1084 993 989 952 561 415 427 414 422 662 750 486 373 295 223 156 123 0
0 0 0 0 0 0 0 0 0 0 0 0 0 0 0 0 12 349 380 284 494 707 996 1085 1031 928 1010 1005 1148 949 956 939 778 729 775 417 321 418 468 229 399 269 468 106 261 139 77 4 0
0 0 0 0 0 0 0 0 0 0 0 0 0 0 0 0 3 160 446 502 491 769 1008 1176 1099 1174 1136 1098 1031 864 886 886 869 908 802 392 313 250 250 159 72 67 27 22 0 0 0 0 0
0 0 0 0 0 0 0 0 0 0 0 0 0 0 0 0 0 69 391 679 741 867 949 1327 1225 1251 1068 936 1131 959 911 905 850 751 687 561 352 251 192 112 19 7 0 0 0 0 0 0 0
0 0 0 0 0 0 0 0 0 0 0 0 0 0 0 0 0 0 130 494 877 914 916 1406 1304 1161 1196 1152 1144 1003 935 881 757 822 753 578 429 236 176 86 21 10 0 0 0 0 0 0 0
0 0 0 0 0 0 0 0 0 0 0 0 0 0 0 0 0 0 7 371 530 905 910 1264 1348 1173 1199 1332 1076 909 873 938 896 908 864 733 475 248 167 122 39 13 2 0 0 0 0 0 0
0 0 0 0 0 0 0 0 0 0 0 0 0 0 0 0 0 0 0 44 128 492 845 1050 1360 1331 1303 1388 1230 1016 540 1084 1009 966 858 877 649 360 141 81 116 49 19 23 7 26 52 81 86
0 0 0 0 0 0 0 0 0 0 0 0 0 0 0 0 0 0 0 0 0 89 767 930 1111 1254 1321 1356 1253 1102 918 959 890 706 713 821 777 560 268 169 102 97 140 156 142 221 255 240 175
0 0 0 0 0 0 0 0 0 0 0 0 0 0 0 0 0 0 0 0 0 0 128 836 1076 1065 1121 1179 1003 634 586 828 830 779 708 699 813 740 329 228 114 119 138 214 271 341 203 189 234
0 0 0 0 0 0 0 0 0 0 0 0 0 0 0 0 0 0 0 0 0 0 21 382 864 960 958 956 992 853 692 602 558 550 600 560 687 804 657 399 168 98 275 349 333 328 356 232 181
0 0 0 0 0 0 0 0 0 0 0 0 0 0 0 0 0 0 0 0 0 0 0 334 852 818 1008 1100 1192 1072 948 621 705 648 630 621 669 640 694 673 530 292 189 286 410 309 331 202 110
0 0 0 0 0 0 0 0 0 0 0 0 0 0 0 0 0 0 0 0 0 0 6 415 1022 1197 1105 1185 990 725 655 599 688 683 733 721 767 796 731 680 671 729 555 568 492 448 401 598 164
0 0 0 0 0 0 0 0 0 0 0 0 0 0 0 0 0 0 0 0 0 0 1 302 685 1243 1278 1114 1189 1126 1174 1155 929 1030 946 871 882 1063 1079 865 823 863 990 979 851 631 494 429 467
0 0 0 0 0 0 0 0 0 0 0 0 0 0 0 0 0 0 0 0 0 0 0 38 429 814 1083 1238 1319 997 817 451 408 554 794 768 649 711 817 850 882 745 645 601 667 487 442 359 488
0 0 0 0 0 0 0 0 0 0 0 0 0 0 0 0 0 0 0 0 0 0 0 0 40 315 460 871 965 1160 1010 733 529 509 649 543 456 535 556 578 250 580 693 656 682 824 372 271 606
0 0 0 0 0 0 0 0 0 0 0 0 0 0 0 0 0 0 0 0 0 0 0 0 0 0 0 27 67 143 247 334 360 329 520 526 449 420 533 455 462 426 550 659 248 549 536 457 363
0 0 0 2 0 0 0 0 0 0 0 0 0 0 0 0 0 0 0 0 0 0 0 2 0 0 0 0 21 28 3 0 0 0 79 335 368 356 317 300 286 338 669 678 715 474 559 588 492
0 1 0 18 16 30 0 0 0 0 0 0 0 0 0 0 0 0 0 0 0 0 0 3 0 0 0 0 0 0 0 0 0 0 0 0 0 0 22 41 77 143 217 467 730 619 623 638 638
0 0 24 54 38 8 1 0 0 0 0 0 0 0 0 0 0 0 0 0 0 0 0 0 0 0 0 0 0 0 0 0 0 0 0 0 0 0 0 25 52 60 148 205 290 372 447 504 566
0 0 0 21 23 5 13 0 0 0 0 0 0 0 0 0 0 0 0 0 0 0 0 0 0 0 0 0 0 0 0 0 0 0 0 0 0 0 0 0 0 0 28 135 213 209 242 294 294
0 0 0 0 0 0 2 0 1 4 0 0 0 0 0 0 0 0 0 0 0 0 0 0 0 0 0 0 0 0 0 0 0 0 0 0 0 0 0 0 0 0 7 18 105 230 442 429 411

GFSSGP_con_sbcape_075.txt.gz
CAPE
0 0 0 0 0 0 0 0 0 0 0 0 0 0 0 1 0 3 325 413 372 1264 1832 1719 2083 2171 2206 2219 2230 2166 2040 1949 1879 1853 1656 1621 1756 1774 1780 1734 1656 1466 722 189 18 0 0 0 22
0 0 0 0 0 0 0 0 0 0 0 0 0 0 7 57 199 418 480 594 746 1644 1762 1576 2027 2080 2170 2107 2049 1990 2042 2011 1929 1830 1792 1716 1742 1783 1776 1713 1488 933 230 22 0 0 0 0 79
0 0 0 0 0 0 0 0 0 0 0 0 0 0 0 4 151 458 344 775 1068 1745 1786 1728 2002 1966 2026 1975 1869 1828 1857 1841 1815 1829 1744 1695 1738 1732 1663 1598 1317 622 50 0 0 0 0 0 0
0 0 0 0 0 0 0 0 0 0 0 0 0 0 0 0 0 395 823 861 1064 1607 1545 1895 1938 1881 1882 1907 1804 1739 1724 1717 1729 1744 1720 1683 1729 1627 1450 1311 981 610 103 0 0 0 0 0 0
0 0 0 0 0 0 0 0 0 0 0 0 0 0 0 11 1107 1110 1123 957 897 1431 1465 1672 1928 1840 1811 1813 1766 1682 1603 1547 1604 1657 1689 1668 1556 1354 1207 1036 896 577 316 75 0 0 0 0 0
0 0 0 0 0 0 0 0 0 0 0 0 0 0 0 265 1049 1443 1252 1009 845 1311 1482 1653 1869 1818 1704 1675 1617 1513 1441 1428 1533 1542 1538 1484 1259 1120 1041 916 840 600 375 141 38 18 0 0 0
0 0 0 0 0 0 0 0 0 0 0 0 0 0 0 0 594 1268 1389 1106 975 1258 1591 1612 1361 1646 1735 1586 1448 1402 1354 1350 1384 1329 1304 1182 1053 988 928 885 819 643 393 188 94 18 0 0 0
0 0 0 0 0 0 0 0 0 0 0 0 0 0 0 0 396 813 1201 1163 943 1274 1494 1503 1336 1133 989 1196 1587 1450 1385 1348 1302 1277 1217 1038 1023 1021 955 745 817 700 448 275 120 34 12 0 0
0 0 0 0 0 0 0 0 0 0 0 0 0 0 0 0 416 578 840 1060 963 1107 1532 1482 1385 1247 861 705 1073 1430 1408 1419 1292 1299 1219 748 176 324 451 264 838 771 489 334 173 82 37 3 0
0 0 0 0 0 0 0 0 0 0 0 0 0 0 0 0 317 500 554 605 780 978 1511 1515 1525 1305 1058 762 895 783 676 724 778 810 944 604 425 405 181 358 762 763 507 374 272 179 125 32 0
0 0 0 0 0 0 0 0 0 0 0 0 0 0 0 0 1 283 518 410 560 819 1263 1418 1650 1677 1194 983 1167 1008 962 970 999 1002 1041 835 580 571 345 232 237 261 321 41 54 40 1 3 1
0 0 0 0 0 0 0 0 0 0 0 0 0 0 0 0 0 0 450 606 637 955 1112 1398 1544 1759 1709 1283 1164 1008 1016 1072 883 897 1016 817 692 640 512 313 257 396 176 122 87 2 31 44 67
0 0 0 0 0 0 0 0 0 0 0 0 0 0 0 0 0 0 7 695 922 992 1184 1400 1566 1752 1540 1604 1251 1221 1162 1163 960 978 1065 792 593 614 587 519 359 271 198 140 102 55 39 99 181
0 0 0 0 0 0 0 0 0 0 0 0 0 0 0 0 0 0 0 361 1220 1258 1362 1390 1581 2009 1561 1856 1664 1520 1366 1263 1252 1126 1115 905 865 861 625 668 506 320 264 133 120 131 175 221 260
0 0 0 0 0 0 0 0 0 0 0 0 0 0 0 0 0 0 0 402 1327 1676 1656 1725 1811 1952 2003 2324 2263 1809 1442 1322 1302 1245 1285 1065 1090 1149 851 708 605 455 346 352 220 309 307 353 443
0 0 0 0 0 0 0 0 0 0 0 0 0 0 0 0 0 0 0 250 1124 1909 2021 2014 1871 1957 2428 2578 2345 2069 1591 1533 1487 1336 1303 1301 1291 1322 1116 811 685 565 435 311 345 432 489 607 995
0 0 0 0 0 0 0 0 0 0 0 0 0 0 0 0 0 0 0 0 407 1570 2244 2184 2230 2151 2619 2497 2217 2186 2366 1825 1559 1146 1124 1562 1690 1446 1274 1039 894 878 570 375 359 528 657 1112 1269
0 0 0 0 0 0 0 0 0 0 0 0 0 0 0 0 0 0 0 0 0 286 1363 2193 2299 2673 2632 2246 2352 2257 2242 1989 1403 800 1048 1463 1921 1649 1394 1302 1153 929 595 531 519 972 1055 1086 1007
0 0 0 0 0 0 0 0 0 0 0 0 0 0 0 0 0 0 0 0 0 0 275 1402 1974 2471 2464 2164 2131 1945 1864 2159 2053 1760 1666 1739 1756 2137 2094 1658 1398 1157 1057 872 648 731 1039 1021 806
0 0 0 0 0 0 0 0 0 0 0 0 0 0 0 0 0 0 0 0 0 0 6 421 1785 2398 2328 2284 2344 1833 1823 1757 1889 1955 1969 2037 1836 1743 1916 2071 1626 1129 957 1065 1038 1011 1056 1410 1054
0 0 0 0 0 0 0 0 0 0 0 0 0 0 0 0 0 0 0 0 0 0 9 114 1144 2247 2483 2464 2353 2054 1940 1664 1588 1645 1715 1690 1601 1667 1889 1661 1839 1440 1057 855 1025 1215 1590 1208 899
0 0 0 0 0 0 0 0 0 0 0 0 0 0 0 0 0 0 0 0 0 10 54 59 515 1912 1995 2309 2318 2384 2113 1963 1766 1758 1647 1589 1496 1495 1535 1761 1664 1850 1472 1362 1234 1233 1619 1256 1688
0 0 0 0 0 0 0 0 0 0 0 0 0 0 0 0 0 0 0 0 0 0 60 266 597 1453 2036 2349 2644 2408 2638 2498 2334 2181 2259 2305 1912 1747 1578 1719 1796 1970 2106 2345 1805 1465 1309 981 664
0 0 0 0 0 0 0 0 0 0 0 0 0 0 0 0 0 0 0 0 0 0 0 275 930 1733 2266 2429 2813 3133 2870 2724 2527 2631 2522 2520 2300 2100 2087 2131 2268 2124 2117 2010 1463 576 73 135 84
0 0 0 0 0 0 0 0 0 0 0 0 0 0 0 0 0 0 0 0 0 0 0 68 767 1843 2605 2876 2928 2967 3205 2872 2895 2862 2722 2760 2361 2333 2539 2326 2101 2157 2305 1782 773 669 214 170 97
0 0 0 0 0 0 0 0 0 0 0 0 0 0 0 0 0 0 0 0 0 0 0 16 465 1342 2088 2860 3192 3095 3082 2800 2673 2573 2348 2331 2211 2218 2263 2134 1951 1969 1951 1888 1521 755 448 87 27
0 0 0 0 0 12 0 0 0 0 9 0 0 0 0 0 0 0 0 0 0 1 0 0 268 885 1316 1954 2075 1728 1451 1381 1153 1434 1703 1668 1855 1798 1833 1849 1884 1837 1928 2026 2062 2103 1401 977 291
0 0 14 49 17 5 1 2 9 5 7 9 0 0 0 0 0 0 0 0 0 0 6 20 249 672 783 1158 1077 978 950 908 899 915 937 937 686 458 584 623 845 824 958 1113 1529 1506 1478 1297 1560
0 6 34 37 18 34 9 0 77 48 0 15 0 0 0 0 0 0 0 0 0 0 0 67 135 387 552 701 692 553 457 467 405 430 425 289 210 59 44 213 423 311 352 605 912 809 722 761 847
0 0 11 51 16 9 34 0 0 0 44 0 18 3 0 0 0 0 0 0 0 0 0 34 50 175 179 182 205 295 403 316 293 223 139 100 33 0 0 2 10 27 144 535 468 291 230 331 316

GFSSGP_con_sbcape_078.txt.gz
CAPE
0 0 0 0 0 0 0 0 0 0 0 0 0 0 1 5 0 207 808 713 224 571 1815 1702 2293 2576 2744 2685 2476 2070 1895 1821 1631 1684 1638 1607 1769 1833 1855 1875 1866 1600 755 352 91 1 0 21 91
0 0 0 0 0 0 0 0 0 0 0 0 0 0 13 64 235 688 811 559 437 963 1815 1528 2233 2472 2637 2572 2388 2107 1886 1804 1749 1689 1663 1749 1765 1821 1859 1811 1640 981 344 62 0 0 13 51 305
0 0 0 0 0 0 0 0 0 0 0 0 0 0 0 85 193 798 864 595 609 1242 1665 1871 2194 2357 2441 2135 2265 2097 1952 1902 1838 1768 1765 1774 1771 1791 1760 1740 1503 662 100 4 0 0 10 73 351
0 0 0 0 0 0 0 0 0 0 0 0 0 0 0 10 72 758 653 497 961 1276 1473 1875 2005 2168 2288 2316 2253 2111 2075 1998 1950 1965 1823 1765 1804 1711 1654 1618 1233 701 184 22 0 0 0 17 2
0 0 0 0 0 0 0 0 0 0 0 0 0 0 19 951 1532 1031 488 586 941 1073 1339 2085 1996 2036 2150 2232 2184 2093 2032 1952 2009 1984 1877 1807 1732 1622 1562 1353 1011 673 375 64 0 0 0 0 0
0 0 0 0 0 0 0 0 0 0 0 0 0 0 0 24 873 1382 813 680 661 979 1370 1615 1884 1973 1972 2043 2029 1931 1847 1850 1909 1871 1825 1785 1654 1528 1390 1123 922 656 431 138 8 0 0 0 0
0 0 0 0 0 0 0 0 0 0 0 0 0 0 0 0 9 1396 1189 995 703 831 1305 1566 1141 1429 1853 1850 1768 1732 1651 1654 1677 1613 1614 1605 1498 1332 1138 980 876 689 448 236 86 18 0 0 0
0 0 0 0 0 0 0 0 0 0 0 0 0 0 0 0 0 839 1581 1276 809 835 970 1435 1136 931 826 960 1725 1633 1591 1601 1509 1503 1487 1389 1264 1159 997 780 801 703 473 275 114 30 0 0 0
0 0 0 0 0 0 0 0 0 0 0 0 0 0 0 0 0 439 1468 1213 881 678 920 1263 1251 1098 761 552 969 1469 1530 1612 1505 1474 1436 904 527 574 479 113 788 735 477 326 159 82 30 0 0
0 0 0 0 0 0 0 0 0 0 0 0 0 0 0 0 0 80 843 1240 948 693 783 1130 1573 1387 1019 608 928 740 654 743 748 730 991 714 404 179 35 165 817 678 408 183 150 96 0 0 0
0 0 0 0 0 0 0 0 0 0 0 0 0 0 0 0 0 0 55 755 894 773 806 934 1839 1902 1311 827 1016 854 738 632 693 729 1008 859 402 249 113 143 147 125 215 10 16 4 0 0 0
0 0 0 0 0 0 0 0 0 0 0 0 0 0 0 0 0 0 0 83 750 737 847 1159 1681 2208 2058 1207 1109 1034 861 852 611 605 985 981 791 485 267 120 42 103 35 6 2 0 1 33 197
0 0 0 0 0 0 0 0 0 0 0 0 0 0 0 0 0 0 0 0 259 922 1178 1347 1695 2223 2398 2424 1407 1525 1284 1067 869 695 875 876 736 639 358 263 161 170 58 85 40 1 23 238 550
0 0 0 0 0 0 0 0 0 0 0 0 0 0 0 0 0 0 0 0 1 790 1511 1656 1755 2504 2522 2477 2693 2204 2236 1484 1218 740 779 955 820 1160 496 625 513 327 158 48 53 24 58 428 620
0 0 0 0 0 0 0 0 0 0 0 0 0 0 0 0 0 0 0 0 1 358 1078 2012 2022 2197 2923 2818 2480 2314 1758 1517 1385 1031 1344 1264 1049 1595 1027 669 583 369 476 318 317 239 270 408 711
0 0 0 0 0 0 0 0 0 0 0 0 0 0 0 0 0 0 0 0 8 418 1264 2257 2099 2183 2838 3053 3087 2591 2048 1925 1501 1502 1742 2036 1619 1221 1146 649 628 596 641 492 311 277 375 791 833
0 0 0 0 0 0 0 0 0 0 0 0 0 0 0 0 0 0 0 0 0 247 1765 2409 2838 2586 2995 3105 2649 2783 3039 2210 1777 1740 1588 2087 1765 1434 1275 705 594 965 594 440 345 327 724 580 897
0 0 0 0 0 0 0 0 0 0 0 0 0 0 0 0 0 0 0 0 0 4 774 2691 3061 3172 3248 3178 3350 2518 2295 2276 1982 1975 1951 2145 1768 1657 2149 1168 1567 1298 786 459 499 983 582 665 650
0 0 0 0 0 0 0 0 0 0 0 0 0 0 0 0 0 0 0 0 0 0 98 1177 3038 3550 3518 3286 3027 2787 2437 2488 2170 2172 2206 2081 2055 1886 2431 1483 1977 1953 1338 1445 1879 952 971 771 1045
0 0 0 0 0 0 0 0 0 0 0 0 0 0 0 0 0 0 0 0 0 0 0 322 1758 3191 3727 3382 3647 3200 2809 2532 2301 2046 2195 1791 1756 1862 2365 2255 2205 2391 1835 2208 1806 1381 784 662 1016
0 0 0 0 0 0 0 0 0 0 0 0 0 0 0 0 0 0 0 0 0 0 22 234 906 2841 3704 3739 3219 3004 2780 2402 2304 2434 2351 2827 2282 2132 2389 2632 2651 2626 2461 1974 2840 2093 1496 581 1376
0 0 0 0 0 0 0 0 0 0 0 0 0 0 0 0 0 0 0 0 0 0 0 131 356 972 2378 3826 3396 3877 2757 2674 2510 2588 2521 2611 2594 2464 2422 3138 2704 3054 2249 2084 2089 1987 1933 1817 1047
0 0 0 0 0 0 0 0 0 0 0 0 0 0 0 0 0 0 0 0 0 0 0 43 455 695 1477 3240 3672 3501 3622 2505 2618 2611 3481 3155 3068 2424 2144 2346 2384 2638 2144 2172 2671 2467 2059 1496 1429
0 0 0 0 0 0 0 0 0 0 0 0 0 0 0 0 0 0 0 0 0 0 0 0 218 825 1015 2092 3090 4242 4055 3760 2795 3327 3341 2976 2662 2451 2619 2127 2386 2330 2446 2871 2874 2844 2371 1946 1262
0 8 9 3 9 2 1 0 0 0 0 0 0 0 0 2 0 0 0 0 0 0 0 0 0 491 1214 1498 2518 3237 3863 4180 4707 4022 3517 3605 2775 2627 3395 3404 3241 2568 3206 3093 3464 3115 2296 1632 1121
31 13 31 19 9 0 0 0 0 0 2 2 26 20 18 12 39 20 1 10 19 1 24 48 0 86 970 1870 2278 2944 3477 3349 3599 4138 3379 3196 2857 3280 4261 3442 3329 3388 3300 3283 3367 3100 2467 2358 1658
22 5 10 2 0 2 0 1 3 27 32 66 53 32 14 3 7 8 18 51 58 41 53 160 182 63 626 1829 2881 3677 3908 4114 3827 4475 4789 3633 3735 2446 3083 3576 3510 3324 3243 3187 3213 2878 2585 2301 1867
0 7 7 50 14 0 0 0 0 55 122 66 44 37 21 7 0 0 0 1 62 111 131 141 354 335 330 1231 2752 3759 3936 4234 3989 3953 3977 3573 2949 2468 2854 3194 3283 3196 3065 2950 3082 3054 2751 2308 1171
20 12 32 35 53 24 4 0 30 0 24 17 28 6 4 3 1 1 1 1 3 21 114 210 382 512 455 922 2051 3149 3564 3522 3012 2515 1966 1693 1859 1549 1502 1678 1989 2183 2331 2567 2674 2536 2247 2433 2311
0 0 10 93 25 65 47 3 4 14 22 101 101 37 34 31 1 1 9 2 0 0 6 166 268 539 591 768 1561 2317 2301 2007 1541 1203 1193 1207 1101 857 604 652 792 897 900 1265 1488 1469 1251 1496 1459

GFSSGP_con_sbcape_084.txt.gz
CAPE
0 0 0 0 0 0 0 0 0 0 0 0 0 0 0 0 181 979 1101 1105 1767 1930 2577 2534 2361 2293 2230 2081 1929 1700 1670 1764 1711 1594 1621 1628 2013 2127 2040 1854 1683 1557 1322 858 415 81 93 181 211
0 0 0 0 0 0 0 0 0 3 0 0 0 0 0 0 602 699 1070 1083 1812 2129 2453 2392 2456 2328 2288 2128 1918 1656 1712 1766 1669 1600 1655 1673 1998 2078 2018 1900 1693 1304 771 249 86 35 118 423 406
0 0 0 0 0 0 0 0 0 0 0 0 0 0 0 530 557 1487 1178 1763 1838 2173 2270 2703 2607 2356 2353 2250 1900 1657 1758 1755 1683 1675 1668 1736 1896 1969 1904 1837 1511 985 344 61 20 280 546 626 469
0 0 0 0 0 0 0 0 0 0 0 0 0 0 623 877 844 1034 1403 1049 2084 1694 1705 2421 2687 2560 2373 2297 2013 1772 1774 1760 1690 1721 1717 1780 1860 1809 1786 1702 1241 758 383 282 304 455 613 636 514
0 0 0 0 0 0 0 0 0 0 0 0 0 31 407 764 1015 855 944 737 1497 1373 2514 2427 2731 2704 2651 2400 2200 1993 1846 1774 1722 1754 1817 1828 1786 1698 1704 1509 1085 619 393 301 280 274 353 489 413
0 0 0 0 0 0 0 0 12 0 0 0 0 0 6 33 1249 575 519 808 1056 1053 2352 2155 2579 2618 2589 2519 2274 2065 1950 1876 1815 1814 1843 1820 1693 1634 1581 1309 954 666 416 218 128 91 71 53 13
0 0 0 0 0 0 0 0 0 1 0 0 0 0 0 0 60 1066 743 679 681 1026 2272 1915 1769 2443 2485 2351 2196 2079 1961 1852 1806 1762 1729 1734 1621 1567 1414 1141 931 715 474 224 52 26 0 0 0
0 0 0 0 0 0 0 0 0 0 0 0 0 0 0 0 0 586 963 680 603 690 2271 1697 1584 1751 2049 2079 2203 2065 1972 1880 1751 1745 1743 1650 1570 1454 1268 867 830 715 479 227 42 0 0 0 0
0 0 0 0 0 0 0 5 3 0 0 0 0 0 0 0 0 19 1158 1070 631 753 1601 1509 1543 1781 1561 1756 2030 2046 2097 1959 1759 1803 1740 1290 889 882 738 418 743 689 426 193 26 0 0 0 0
0 0 0 0 0 0 0 0 0 0 0 0 0 0 0 0 0 0 370 1176 896 702 892 1335 1538 1408 1228 1118 2148 2093 1938 1820 1724 1522 1596 1253 966 779 558 373 748 617 362 182 60 0 0 0 0
0 0 0 0 0 0 0 0 0 0 0 0 0 0 0 1 0 0 0 213 622 494 598 1067 1496 1353 991 835 2165 1949 2087 1988 1970 1810 1928 1466 1079 1222 471 442 228 203 285 27 23 2 0 0 0
0 0 0 0 0 4 0 0 0 0 0 0 0 0 0 0 0 0 0 0 10 47 938 1330 1539 1799 1400 803 1563 1217 1250 1579 1815 1970 2162 1687 1488 1520 417 307 104 168 18 0 0 0 0 0 0
0 0 0 0 0 0 0 0 0 0 0 0 0 0 0 0 0 0 0 0 0 25 393 1086 2127 2179 1989 2948 1543 1191 775 1069 1045 1208 1568 1412 1022 1213 515 469 244 83 29 0 33 1 4 57 156
0 0 0 0 0 0 0 0 0 0 0 0 0 0 0 0 0 0 0 0 9 1 489 817 2533 2692 2679 2025 3400 1896 978 1310 888 927 941 1331 966 1614 934 853 1074 99 51 8 27 256 594 294 208
0 0 0 0 0 0 0 0 0 0 0 0 0 0 0 0 0 0 0 0 34 20 47 2180 2579 3391 3072 2531 2963 3340 2312 1725 1025 1025 1646 915 1621 1907 870 703 782 624 210 986 185 737 576 612 284
0 0 0 0 0 0 0 0 0 0 0 0 0 0 0 0 0 0 0 12 98 173 563 611 1776 3746 3544 3169 2741 2993 2072 1753 1616 1098 1153 1320 1773 1862 1046 711 746 670 1245 1181 1062 865 553 344 362
0 0 0 0 0 0 0 0 0 0 0 0 0 0 0 0 0 0 1 0 0 40 159 601 1860 2891 3802 3547 3013 2696 3198 2798 2283 1511 1399 1443 1391 1500 1141 748 771 1232 1258 1030 812 817 531 482 414
0 0 0 0 0 0 0 0 0 0 0 0 0 0 0 0 0 0 0 0 62 242 236 481 1554 3775 4034 3802 3554 3254 2801 2608 2370 2202 1373 1655 1286 1323 1718 820 960 1674 1121 1022 824 696 591 603 882
0 0 0 4 0 0 0 0 0 0 0 0 0 0 0 0 0 0 0 0 0 49 175 557 1018 4311 4109 3882 3722 3438 3053 2905 2682 1974 2580 1869 1589 1531 1221 1209 1420 1188 952 956 1026 928 1096 556 907
0 0 0 0 0 0 0 0 0 0 0 0 0 0 0 0 0 0 0 6 24 226 783 945 1323 2068 4383 3312 3704 3521 3093 2871 2827 2701 2270 2512 2002 1950 1354 1329 1025 961 852 1049 1297 872 668 1067 1132
0 0 0 0 0 2 0 0 0 0 0 0 0 0 0 0 0 0 21 54 28 358 775 738 946 1725 2018 3943 3464 3476 3179 2834 2680 2702 2768 2605 2355 2259 1734 1685 959 988 1132 1175 1264 1693 1221 781 736
0 0 0 0 0 0 0 0 0 0 0 0 0 0 0 2 4 9 22 46 105 140 159 391 1173 1374 1388 1279 3052 3402 3113 2775 2387 2692 2727 2319 2794 2682 1987 1976 1705 1244 1373 1160 1632 1690 1519 1360 1019
0 5 1 0 0 0 0 0 0 4 2 4 3 0 0 0 0 0 0 0 15 23 243 425 800 713 1090 1489 1118 2205 2317 2812 3067 2849 2782 2991 2990 2749 2553 2579 2258 1672 1553 2037 1780 1750 2083 1609 1166
0 0 0 0 0 1 0 1 0 0 0 0 0 0 0 0 0 0 0 0 4 23 13 233 663 994 981 1414 2158 1382 1920 2286 2691 2538 2328 2238 2195 2759 2901 2915 2854 2908 2211 2676 2418 2706 2418 2302 1674
4 1 4 22 39 7 6 0 34 0 0 0 0 0 0 0 0 0 0 0 0 0 0 16 62 218 473 595 778 1291 1638 1887 2208 2553 2192 2423 2188 2597 2689 2627 2799 2883 2898 2647 2840 2413 2700 2698 2269
6 9 50 49 28 0 0 0 0 0 0 0 0 0 0 0 0 0 0 0 0 0 42 12 38 133 426 499 406 555 653 1584 1877 2326 2485 2190 2236 2118 2525 3053 2866 2861 2968 2909 2799 2582 2466 2665 2291
0 6 5 4 6 19 1 0 0 0 1 0 0 0 0 0 51 45 13 10 10 11 45 74 69 147 178 169 661 952 891 711 1645 2440 2630 2673 2762 2640 2504 2949 3088 2954 2929 3089 2837 2653 2585 2536 2559
0 1 1 5 18 16 9 0 0 0 0 0 1 2 0 0 6 64 71 75 70 33 23 255 355 273 241 297 461 390 852 785 949 2352 2800 2858 2640 2830 2728 2665 3057 3051 2913 3032 2865 2839 2988 3305 3155
0 8 6 19 47 7 3 1 25 2 0 0 0 0 0 19 13 10 9 58 64 86 44 60 136 84 28 220 417 499 403 1006 873 1649 2245 2773 2525 2796 2752 2897 3105 2709 2908 2777 2855 2908 3205 2898 2728
9 2 5 63 28 86 118 22 18 5 0 3 0 39 16 35 19 9 4 22 8 30 80 108 243 204 179 231 458 513 444 994 1334 1733 2088 2295 2502 2582 2674 630 1179 2403 1902 992 1688 2172 2988 3005 3234

GFSSGP_con_sbcape_087.txt.gz
CAPE
0 0 0 0 0 0 0 0 0 0 0 0 0 0 31 523 579 639 1343 1659 2018 2223 2185 2151 2251 2255 2156 1854 1667 1606 1637 1593 1501 1509 1673 1878 1814 1715 1684 1749 1862 1913 1479 829 208 77 119 186 169
0 0 0 0 0 0 0 0 0 0 0 0 0 0 40 972 732 849 1612 2027 1945 2216 1985 1874 2219 2258 2156 1863 1629 1547 1650 1548 1443 1441 1658 1901 1806 1743 1676 1562 1439 1387 776 354 78 63 202 246 243
0 0 0 0 0 0 0 0 0 0 0 0 0 0 500 631 1262 908 1679 2021 2086 1956 1979 1978 2230 2175 2148 1948 1623 1533 1619 1503 1449 1493 1610 1845 1808 1707 1615 1538 1305 1028 302 94 31 163 699 713 455
0 0 0 0 0 0 0 0 0 0 0 0 0 695 935 661 960 1240 1755 1967 1702 2042 2146 2332 2199 2074 2084 1899 1681 1605 1608 1532 1466 1534 1595 1725 1783 1600 1529 1425 1124 821 473 325 314 709 829 842 724
0 0 0 0 0 0 0 0 0 0 0 0 0 242 863 620 709 1139 1693 1802 1469 2103 2092 2254 2229 2126 2104 1896 1738 1697 1648 1509 1510 1561 1603 1685 1586 1505 1486 1296 991 648 525 511 422 682 761 739 675
0 0 0 0 0 0 0 0 0 0 0 0 0 0 0 409 357 453 1546 1393 1333 2048 2062 2164 2431 2188 2008 1873 1719 1603 1576 1522 1547 1552 1548 1597 1452 1458 1397 1148 898 665 524 496 433 359 341 288 131
0 0 0 0 0 0 0 0 0 0 0 0 0 0 0 0 80 311 356 1072 1897 1992 1857 2031 2235 2365 2209 1854 1651 1536 1504 1472 1438 1427 1429 1433 1395 1386 1242 1018 805 612 412 238 66 38 18 2 0
0 0 0 0 0 0 0 0 0 0 0 0 0 0 0 0 0 773 320 302 1879 2000 1589 1713 1957 2185 2073 1879 1886 1675 1591 1496 1389 1426 1441 1354 1377 1311 1154 696 706 608 352 136 0 0 0 0 0
0 0 0 0 0 0 0 0 0 0 2 0 0 0 0 0 0 27 225 325 1874 2110 1538 1262 1600 1712 1713 1722 1981 1871 1899 1663 1503 1534 1451 1146 921 915 893 512 756 602 349 131 10 0 0 0 0
0 0 0 0 0 0 0 0 0 0 0 0 0 0 0 0 0 0 384 494 234 1591 1344 1017 1195 1331 1310 1772 1756 1497 1479 1546 1277 1245 1149 771 573 464 521 389 748 609 398 195 48 0 0 0 0
0 0 0 0 0 0 0 0 0 3 0 0 0 0 0 0 0 0 0 5 13 239 103 645 1189 1112 1055 1681 1488 1279 1245 1387 1101 1111 916 648 490 529 519 209 344 176 247 38 20 3 0 0 0
0 0 0 0 0 0 0 0 0 0 0 0 0 0 0 0 0 0 0 0 0 67 360 64 612 977 1004 1232 1649 1666 1560 1353 1188 997 989 788 524 530 170 135 84 39 38 0 0 0 0 0 0
0 0 0 0 0 0 0 0 0 0 0 0 0 0 0 0 0 0 0 0 0 25 255 0 135 887 604 1174 1525 1545 1722 1589 1428 1321 1340 942 823 374 135 64 54 36 0 0 0 0 0 0 0
0 0 0 0 0 0 0 0 0 0 0 0 0 0 0 0 0 0 0 0 0 0 500 334 734 601 250 75 997 1088 1124 1501 1515 1482 1560 1287 766 504 188 70 25 30 0 0 0 0 0 0 0
0 0 0 0 0 0 0 0 0 0 0 0 0 0 0 0 0 0 0 0 0 0 284 269 272 153 2 5 400 1126 741 965 956 957 1123 1353 670 493 504 31 142 32 0 0 0 0 0 0 0
0 0 0 0 0 0 0 0 0 0 0 0 0 0 0 0 0 0 0 0 0 0 494 1132 195 16 0 130 1181 1894 923 953 777 627 652 1132 989 499 669 206 171 100 0 1 0 0 0 52 18
0 0 0 0 0 0 0 0 0 0 0 0 0 0 0 0 0 0 0 0 0 0 0 503 332 0 0 1321 1498 2000 1722 1191 771 685 639 840 794 635 794 468 144 178 41 13 139 12 38 4 0
0 0 0 0 0 0 0 0 0 0 0 0 0 0 0 0 0 0 0 0 0 0 0 0 32 1702 1930 2408 1812 1848 2239 1799 1548 1081 797 860 782 1063 980 569 336 330 354 175 281 233 138 95 62
0 0 0 0 0 0 0 0 0 0 0 0 0 0 0 0 0 0 0 0 0 0 0 0 0 162 2490 2284 2375 2099 2087 2056 1970 1609 1148 971 996 938 1064 716 506 593 281 350 265 221 146 120 139
0 0 0 0 0 0 0 0 0 0 0 0 0 0 0 0 0 0 0 0 0 0 0 0 0 0 611 2058 2218 2785 2542 2095 2083 1892 1567 1289 1208 1086 1020 1098 669 706 689 369 329 370 340 189 159
0 0 0 0 0 0 0 0 0 0 0 0 0 0 0 0 0 0 0 0 0 0 0 0 0 0 0 844 2291 2187 2241 1999 1854 1925 2060 1781 1545 1262 1041 829 868 574 550 526 412 313 286 282 386
0 0 0 0 0 0 0 0 0 0 0 0 0 0 0 0 0 0 0 0 0 0 0 0 36 350 185 132 550 1762 1779 1911 1966 1975 1945 1984 1741 1447 1141 974 831 639 461 439 429 426 354 253 346
0 0 0 0 0 0 0 0 0 0 0 0 0 0 0 0 0 0 0 0 0 0 0 0 0 0 0 0 200 226 598 1296 1371 1796 1633 1678 1868 1519 1376 1167 1063 686 534 499 617 556 962 582 403
4 0 0 0 0 0 0 0 0 0 0 0 0 0 0 0 0 0 0 0 0 0 0 0 0 0 0 0 0 19 235 383 916 1036 1181 1373 1399 1671 1479 1628 1232 983 667 839 853 964 1133 1143 804
1 0 0 0 0 0 0 0 0 0 0 0 0 0 0 0 0 0 0 0 0 0 0 0 0 0 0 0 0 0 0 14 219 386 885 1148 1075 1322 1404 1360 1311 757 760 898 1276 1061 1072 1338 1250
30 10 3 23 0 0 0 0 0 0 0 0 0 0 0 0 0 0 0 0 0 0 0 0 0 0 0 0 0 0 26 56 8 16 28 928 1169 1104 1380 1070 966 630 464 599 1059 1320 1717 1379 1337
0 0 0 0 0 0 0 0 0 0 0 0 0 0 0 0 0 0 0 0 0 0 0 0 0 0 0 0 0 0 16 94 193 95 34 34 1021 1522 1295 1374 1058 726 296 525 1772 1482 1576 1755 1895
0 0 0 0 0 0 0 0 0 0 0 0 0 0 0 0 0 0 0 0 0 0 0 0 0 0 0 0 0 0 0 25 68 19 113 107 194 1405 1627 1529 1563 1121 1134 1499 2155 2031 1625 1601 2008
0 0 0 0 7 0 0 0 0 0 0 0 0 0 0 0 0 0 0 0 0 0 0 0 0 0 0 0 0 0 0 49 13 156 363 300 257 739 1551 1836 1751 1524 1150 1295 1562 1722 1535 1548 1448
0 2 0 0 0 6 2 0 0 0 0 0 0 0 0 0 0 0 0 0 0 0 0 0 0 0 0 0 0 0 0 26 2 233 289 146 250 442 867 1683 1759 1291 935 3 1 404 1089 207 1138

GFSSGP_con_sbcape_090.txt.gz
CAPE
0 0 0 0 0 0 0 0 0 0 0 0 0 309 518 405 225 88 536 1179 1808 1771 1882 2093 2094 2003 1829 1676 1667 1594 1410 1391 1449 1501 1473 1487 1668 1802 1763 1721 1721 1654 1006 379 47 126 186 121 72
0 0 0 0 0 0 0 0 0 0 0 0 0 564 807 732 1250 1498 1599 1860 1759 1716 1776 1706 2138 2002 1804 1643 1579 1563 1431 1364 1429 1562 1573 1488 1525 1628 1730 1782 1795 1492 749 220 71 140 208 145 112
0 0 0 0 0 0 0 0 0 0 0 0 0 575 572 1131 1250 1399 1646 1745 1774 1613 1566 1757 2195 1998 1837 1703 1541 1528 1371 1326 1419 1660 1624 1544 1469 1432 1398 1422 1409 1021 452 109 73 226 464 311 176
0 0 0 0 0 0 0 0 0 0 0 0 541 863 665 634 1149 1639 2016 1888 1604 1574 1480 2112 2164 1990 1828 1728 1618 1594 1390 1356 1403 1701 1711 1627 1558 1427 1339 1244 1078 853 364 191 224 594 776 578 314
0 0 0 0 0 0 0 0 0 0 0 0 52 846 651 906 1694 1938 1942 1595 1663 1635 1694 1941 2161 2040 1889 1796 1703 1673 1472 1357 1373 1598 1728 1690 1529 1414 1350 1184 1005 769 596 343 265 633 736 640 474
0 0 0 0 0 0 0 0 0 0 0 0 2 7 23 1084 1626 1747 1590 1436 1955 1833 1813 1917 2190 2094 1840 1755 1696 1610 1460 1405 1413 1412 1566 1627 1471 1417 1322 1077 876 681 655 544 457 648 591 491 300
0 0 0 0 0 0 0 0 0 0 0 0 0 0 0 9 1334 1609 1384 1395 2030 1888 1837 1908 1907 2018 1918 1694 1592 1549 1441 1381 1338 1295 1360 1380 1388 1362 1208 955 772 651 545 471 334 279 275 134 24
0 0 0 0 0 0 0 0 0 0 0 0 0 0 0 0 416 1225 1266 1578 1958 1765 1643 1843 1852 1783 1556 1479 1641 1531 1475 1437 1329 1330 1344 1286 1310 1283 1100 666 639 574 409 218 66 51 23 0 0
0 0 0 0 0 0 0 0 0 0 0 0 0 0 0 0 86 205 944 1742 1895 1545 1486 1617 1857 1794 1530 1331 1499 1612 1648 1544 1404 1427 1354 1070 885 948 896 527 679 554 367 179 51 18 0 0 0
0 0 0 0 0 0 0 0 0 0 0 0 0 0 0 0 0 36 359 1427 2046 1635 1295 1380 1567 1521 1538 1709 1632 1376 1436 1349 1175 1165 1087 785 672 567 680 517 770 573 382 209 77 7 0 0 0
0 0 0 0 0 0 0 0 0 0 0 10 0 0 0 0 0 0 90 416 1199 1203 1298 1248 1158 1091 1202 1580 1617 1551 1479 1351 1077 1107 886 572 536 562 563 268 471 246 262 35 17 1 0 0 0
0 0 0 0 0 0 0 0 0 0 0 0 0 0 0 0 0 0 0 247 889 1112 1070 647 617 821 803 1585 1382 1107 1083 1083 1178 1032 783 489 390 395 407 179 221 92 49 0 0 0 0 0 0
0 0 0 0 0 0 0 0 0 0 0 0 0 0 0 0 0 0 0 0 365 969 857 67 40 18 566 1345 83 285 1146 1208 1301 1066 939 588 386 438 237 185 114 58 1 0 0 0 0 0 0
0 0 0 0 0 0 0 0 0 0 0 0 0 0 0 0 0 0 0 0 226 739 276 0 91 448 553 149 6 0 3 1320 1429 1299 1162 776 519 475 263 179 71 24 0 0 0 0 0 0 0
0 0 0 0 0 0 0 0 0 0 0 0 0 0 0 0 0 0 0 0 0 167 212 15 266 1035 849 313 24 0 1 1222 1579 1454 1283 1184 745 650 493 218 93 45 6 0 0 0 0 0 0
0 0 0 0 0 0 0 0 0 0 0 0 0 0 0 0 0 0 0 0 0 14 150 0 215 974 625 223 37 50 63 509 1552 1581 1484 1553 1296 768 555 301 168 87 23 0 0 0 0 0 0
0 0 0 0 0 0 0 0 0 0 0 0 0 0 0 0 0 0 0 0 0 220 558 388 484 255 128 72 20 3 164 663 1026 1010 1249 1461 1650 1065 562 544 242 175 29 0 0 0 0 0 2
0 0 0 0 0 0 0 0 0 0 0 0 0 0 0 0 0 0 0 0 0 0 741 719 161 79 0 0 29 611 1478 768 826 739 560 763 1381 1356 561 584 512 121 116 40 11 4 0 0 21
0 0 0 0 0 0 0 0 0 0 0 0 0 0 0 0 0 0 0 0 0 0 34 406 398 164 0 0 798 1435 1554 1184 1042 673 526 470 661 1032 1011 728 529 176 204 206 29 88 112 28 43
0 0 0 0 0 0 0 0 0 0 0 0 0 0 0 0 0 0 0 0 0 0 0 0 0 93 1319 1445 1591 1929 1613 1419 1487 1326 910 465 569 666 998 1021 861 461 402 225 238 171 176 159 98
0 0 0 0 0 0 0 0 0 0 0 0 0 0 0 0 0 0 0 0 0 0 0 0 8 0 0 201 1258 1617 1584 1233 1323 1170 1305 1320 943 852 679 709 984 804 577 503 299 336 300 293 176
0 0 0 0 0 0 0 0 0 0 0 0 0 0 0 0 0 0 0 0 0 0 0 0 0 0 0 0 8 120 679 1117 1122 1327 1158 1250 1207 1165 973 656 489 808 650 543 471 405 358 364 281
0 0 0 0 0 0 0 0 0 0 0 0 0 0 0 0 0 0 0 0 0 0 0 0 0 0 0 0 0 0 0 103 357 543 646 803 961 1116 1337 1103 750 548 525 410 473 400 367 374 352
0 0 0 0 0 0 0 0 0 0 0 0 0 0 0 0 0 0 0 0 0 0 0 0 0 0 0 0 0 0 0 0 0 0 130 363 564 606 857 1015 1110 812 575 347 330 294 255 318 360
0 0 0 0 0 0 0 0 0 0 0 0 0 0 0 0 0 0 0 0 0 0 0 0 0 0 0 0 0 0 0 0 0 0 0 117 362 247 386 967 953 907 910 544 379 410 318 424 481
5 2 0 0 0 0 0 0 0 0 0 0 0 0 0 0 0 0 0 0 0 0 0 0 0 0 0 0 0 0 0 0 0 0 6 0 2 35 197 469 962 1023 738 586 205 1 0 0 1
2 0 0 0 0 0 0 0 0 0 0 0 0 0 0 0 0 0 0 0 0 0 0 0 0 0 0 0 0 0 0 0 0 0 0 1 0 1 0 46 587 1055 1038 537 296 42 0 0 0
5 0 0 0 0 0 0 0 0 0 0 0 0 0 0 0 0 0 0 0 0 0 0 0 0 0 0 0 0 0 0 0 0 0 0 0 0 0 7 0 0 316 1171 644 271 47 13 2 28
0 0 0 0 0 0 0 0 0 0 0 0 0 0 0 0 0 0 0 0 0 0 0 0 0 0 0 0 0 0 0 0 0 0 0 20 35 0 0 0 0 0 536 813 180 0 17 160 533
0 0 0 0 0 0 0 0 0 0 0 0 0 0 0 0 0 0 0 0 0 0 0 0 0 0 0 0 0 0 0 0 0 0 0 14 9 0 0 18 2 24 295 740 859 804 917 752 685

GFSSGP_con_sbcape_093.txt.gz
CAPE
0 0 0 0 0 0 0 0 0 0 0 0 0 0 94 258 131 44 525 963 1505 1633 1433 1582 2186 1949 1759 1780 1669 1587 1556 1516 1492 1472 1505 1546 1667 1715 1667 1620 1592 1402 563 103 128 198 128 40 31
0 0 0 0 0 0 0 0 0 0 0 0 0 14 688 681 1622 1400 1076 1593 1400 1657 1634 1468 2156 1967 1798 1725 1578 1499 1509 1482 1421 1431 1539 1635 1661 1695 1668 1639 1636 1123 466 57 162 257 180 98 69
0 0 0 0 0 0 0 0 0 0 0 0 0 504 553 967 1590 1185 1557 1576 1558 1573 1508 1646 2110 1949 1811 1734 1542 1452 1422 1410 1425 1457 1538 1631 1665 1672 1643 1725 1644 1041 417 57 185 330 487 359 147
0 0 0 0 0 0 0 0 0 0 0 0 18 666 592 663 1112 1584 1824 1731 1503 1395 1378 2043 2028 1890 1819 1739 1619 1460 1370 1441 1441 1444 1454 1488 1525 1510 1523 1589 1493 1110 420 282 413 598 671 538 266
0 0 0 0 0 0 0 0 0 0 0 0 2 651 565 1774 2027 1950 1865 1561 1378 1330 1510 1954 2017 1868 1803 1712 1546 1503 1380 1433 1467 1468 1463 1453 1406 1310 1267 1230 1137 931 650 395 426 703 885 709 490
0 0 0 0 0 0 0 0 0 0 0 0 0 0 0 1723 1985 1861 1578 1419 1424 1409 1675 1653 2008 1844 1692 1696 1690 1484 1354 1322 1509 1492 1491 1488 1392 1335 1282 1150 999 812 653 545 575 754 721 518 402
0 0 0 0 0 0 0 0 0 0 0 0 0 0 0 432 1517 1611 1338 1645 1527 1582 1595 1686 1715 1586 1680 1633 1579 1442 1318 1268 1297 1370 1429 1425 1399 1331 1219 1010 853 743 721 677 702 705 636 530 401
0 0 0 0 0 0 0 0 0 0 0 0 0 0 0 0 1496 1051 1257 1716 1626 1571 1498 1521 1583 1401 1259 1348 1678 1511 1392 1308 1188 1249 1336 1365 1388 1313 1157 709 648 654 579 549 438 455 496 393 165
0 0 0 0 0 0 0 0 0 0 0 0 0 0 0 406 619 979 1683 1770 1604 1493 1349 1276 1386 1291 1083 1089 1337 1550 1462 1438 1291 1302 1298 979 789 905 789 575 594 610 453 344 226 188 152 82 26
0 0 0 0 0 0 0 0 0 0 0 0 0 0 0 40 606 1175 1692 1774 1685 1511 1476 1387 1195 1168 1088 1243 1166 1010 1126 1096 959 963 979 611 491 489 563 488 739 689 511 364 210 110 46 28 0
0 0 0 0 0 0 0 0 0 0 0 0 0 0 0 0 3 848 1655 1884 1782 1613 1618 1390 1215 1067 1288 1462 1181 923 1076 960 844 869 789 474 435 430 609 266 466 306 325 74 98 18 0 0 0
0 0 0 0 0 0 0 0 0 0 0 0 0 0 0 0 0 0 602 1611 1817 1725 1818 1532 1402 1325 1273 1450 1148 1159 1214 1066 1002 967 890 368 248 262 351 189 167 164 76 41 0 0 0 0 0
0 0 0 0 0 0 0 0 0 0 0 0 0 1 0 0 0 0 30 999 1466 1589 1396 1460 1412 1405 1358 1478 1325 1093 1046 1000 1110 933 836 606 323 252 289 201 70 71 18 7 0 0 0 0 0
0 0 0 0 0 0 0 0 0 0 0 0 0 2 0 0 0 0 0 173 1240 1506 1386 1090 1243 697 1216 1421 1328 1228 1157 1098 1074 1019 1040 821 416 298 229 185 110 56 12 0 0 0 0 0 0
0 0 0 0 0 0 0 0 0 0 0 0 0 0 0 0 0 0 0 0 987 1094 1320 797 358 110 1155 889 847 783 1047 1192 1121 1139 1132 992 662 325 336 186 122 94 11 0 0 0 0 0 0
0 0 0 0 0 0 0 0 0 0 0 0 0 0 0 0 0 0 0 0 0 374 844 612 367 444 815 751 439 226 3 117 837 1124 1193 1126 921 515 306 344 231 126 17 0 0 0 0 0 0
0 0 0 0 0 0 0 0 0 0 0 0 0 0 0 0 0 0 0 0 2 0 315 167 108 541 910 1013 181 129 5 55 291 712 1032 1189 1159 839 488 484 405 157 57 0 0 2 0 0 0
0 0 0 0 0 0 0 0 0 0 0 0 0 0 0 0 0 0 0 0 0 131 298 41 114 799 640 202 0 42 460 578 589 739 902 1322 1439 1402 906 711 623 242 234 98 30 12 0 0 0
0 0 0 0 0 0 0 0 0 0 0 0 0 0 0 0 0 0 0 0 0 0 464 624 380 157 75 0 37 45 257 1112 920 818 895 558 778 1498 1294 881 735 306 181 216 67 27 39 4 0
0 0 0 0 0 0 0 0 0 0 0 0 0 0 0 0 0 0 0 0 0 0 0 0 0 437 134 33 14 198 581 1166 1531 965 766 560 437 525 714 914 773 368 240 170 125 63 123 105 18
0 0 0 0 0 0 0 0 0 0 0 0 0 0 0 0 0 0 0 0 0 0 0 0 0 0 194 1204 1153 1358 1268 1077 1074 1011 1010 762 453 405 528 633 653 602 223 289 169 152 140 218 91
0 0 0 0 0 0 0 0 0 0 0 0 0 0 0 0 0 0 0 0 0 0 0 0 0 0 0 0 0 34 258 429 649 557 789 677 782 720 711 575 577 561 626 384 332 226 202 255 276
0 0 0 0 0 0 0 0 0 0 0 0 0 0 0 0 0 0 0 0 0 0 0 0 0 0 0 0 0 0 0 0 2 6 17 55 167 494 898 863 724 609 643 702 567 416 186 271 291
0 0 0 0 0 0 0 0 0 0 0 0 0 0 0 0 0 0 0 0 0 0 0 0 0 0 0 0 0 0 0 0 0 0 0 0 4 86 296 516 711 817 706 627 623 414 445 267 291
0 0 0 0 0 0 0 0 0 0 0 0 0 0 0 0 0 0 0 0 0 0 0 0 0 0 0 0 0 0 0 0 0 0 0 0 0 6 36 142 344 613 782 717 679 564 458 380 143
0 0 0 0 0 0 0 0 0 0 0 0 0 0 0 0 0 0 0 0 0 0 0 0 0 0 0 0 0 0 0 0 0 0 0 0 0 0 0 42 80 248 504 614 747 753 604 439 170
2 0 0 0 0 0 0 0 0 0 0 0 0 0 0 0 0 0 0 0 0 0 0 0 0 0 0 0 0 0 0 0 0 0 0 0 0 0 0 3 22 13 167 570 723 699 722 509 273
4 0 0 0 0 0 0 0 0 0 0 0 0 0 0 0 0 0 0 0 0 0 0 0 0 0 0 0 0 0 0 0 0 0 0 0 0 0 0 3 0 0 0 7 330 660 610 209 169
0 0 0 0 0 0 0 0 0 0 0 0 0 0 0 0 0 0 0 0 0 0 0 0 0 0 0 0 0 0 0 0 0 0 0 0 0 0 0 7 1 0 6 7 110 320 510 488 205
0 0 0 0 0 0 0 0 0 0 0 0 0 0 0 0 0 0 0 0 0 0 0 0 0 0 0 0 0 0 0 0 0 0 0 0 0 0 0 5 22 61 42 47 93 149 410 297 186

GFSSGP_con_sbcape_096.txt.gz
CAPE
0 0 0 0 0 0 0 0 0 0 0 0 0 0 0 71 80 15 494 1066 1364 1456 1821 1910 1918 2021 2034 1964 1877 1773 1668 1705 1702 1655 1588 1516 1540 1579 1561 1518 1510 1357 610 247 97 100 135 200 274
0 0 0 0 0 0 0 0 0 0 0 0 0 13 205 541 1462 1219 894 1454 1401 1345 1517 1678 1948 1938 1965 1848 1706 1632 1593 1563 1519 1510 1515 1542 1520 1517 1507 1459 1408 970 315 118 183 181 101 242 317
0 0 0 0 0 0 0 0 0 0 0 0 0 7 457 419 1403 1158 1427 1470 1388 1274 1161 1607 1930 1869 1827 1625 1604 1505 1474 1461 1483 1486 1499 1524 1501 1455 1413 1460 1384 773 152 204 315 378 636 618 543
0 0 0 0 0 0 0 0 0 0 0 0 0 0 401 1430 1317 1336 1600 1619 1450 1379 1343 1856 1878 1746 1782 1667 1587 1472 1440 1402 1481 1502 1471 1517 1510 1447 1436 1521 1435 1013 392 357 587 811 794 689 630
0 0 0 0 0 0 0 0 0 0 0 0 0 255 48 1896 1963 1837 1617 1400 1213 1143 1392 1623 1802 1722 1744 1627 1408 1478 1409 1331 1376 1446 1465 1515 1478 1443 1477 1518 1279 1058 643 653 738 811 850 768 686
0 0 0 0 0 0 0 0 0 0 0 0 0 0 0 1741 1838 1701 1423 1258 1143 1104 1363 1303 1319 1707 1675 1646 1524 1426 1401 1353 1330 1290 1368 1385 1283 1246 1217 1176 1045 935 711 623 793 923 866 672 554
0 0 0 0 0 0 0 0 0 0 0 0 0 0 0 982 1645 1268 1436 1282 1389 1350 1268 1129 1161 1323 1655 1605 1421 1329 1325 1330 1250 1201 1256 1285 1280 1236 1124 995 887 793 678 633 728 870 756 525 467
0 0 0 0 0 0 0 0 0 0 0 0 0 0 0 0 1283 1637 1619 1447 1316 1198 1068 1102 1021 1035 1195 1323 1547 1370 1268 1316 1226 1229 1250 1250 1293 1260 1145 701 676 672 648 646 678 717 606 555 484
0 0 0 0 0 0 0 0 0 0 0 0 0 0 0 1244 1306 1757 1652 1485 1219 1094 1097 1167 1348 1179 939 1003 1236 1427 1280 1280 1236 1314 1284 968 730 872 904 652 593 708 546 475 433 396 493 527 479
0 0 0 0 0 0 0 0 0 0 0 0 0 0 86 1094 1290 1689 1737 1527 1348 1140 937 958 1036 907 825 1157 1060 907 957 950 786 811 854 526 400 429 486 580 758 776 601 448 334 229 214 267 2
0 0 0 0 0 0 0 0 0 0 0 0 0 0 0 152 694 1381 1695 1648 1634 1420 1320 1154 1080 971 1022 1135 969 889 961 881 667 654 595 317 277 411 576 308 497 354 558 91 184 67 23 0 0
0 0 0 0 0 0 0 0 0 0 0 0 0 0 0 0 47 870 1351 1621 1630 1613 1533 1350 1212 1247 1260 1085 979 695 904 807 760 825 647 384 327 267 370 283 177 147 100 73 1 0 0 0 0
0 0 0 0 0 0 0 0 0 0 0 0 0 0 0 0 0 0 128 969 1515 1691 1633 1538 1404 1354 1435 1117 873 858 906 902 735 875 885 624 392 296 304 308 194 152 79 21 0 0 0 0 0
0 0 0 0 0 0 0 0 0 0 0 0 0 0 0 0 0 0 0 281 1383 1730 1678 1644 1614 1507 1571 1531 1185 1050 1050 1046 989 861 861 829 488 307 297 282 230 151 104 26 0 0 0 0 0
0 0 0 0 0 0 0 0 0 0 0 0 0 0 0 0 0 0 0 0 792 1525 1621 1606 1767 1671 1540 1742 1513 1275 1231 1184 1270 1201 966 974 719 429 285 249 214 174 85 25 0 0 0 0 0
0 0 0 0 0 0 0 0 0 0 0 0 0 0 0 0 0 0 0 0 0 1118 1413 1549 1554 1057 1155 1613 1392 1318 1043 434 1018 1101 1199 1296 1098 685 358 251 195 157 55 30 2 0 0 0 0
0 0 0 0 0 0 0 0 0 0 0 0 0 0 0 0 0 0 0 0 0 11 635 1196 1110 773 729 1354 738 329 39 23 356 876 1162 1266 1263 1088 537 377 378 169 85 23 6 0 0 0 0
0 0 0 0 0 0 0 0 0 0 0 0 0 0 0 0 0 0 0 0 0 14 85 366 318 416 862 541 191 212 177 246 269 437 897 1239 1297 1231 831 602 502 162 123 28 3 18 0 0 0
0 0 0 0 0 0 0 0 0 0 0 0 0 0 0 0 0 0 0 0 0 97 749 463 290 642 756 518 288 168 482 605 909 905 925 1012 1373 1378 1130 887 627 248 229 309 105 80 33 0 0
0 0 0 0 0 0 0 0 0 0 0 0 0 0 0 0 0 0 0 0 0 14 667 773 569 362 466 186 118 316 374 373 917 1228 1075 984 819 1120 1145 1050 739 357 298 101 179 99 85 63 1
0 0 0 0 0 0 0 0 0 0 0 0 0 0 0 0 0 0 0 0 0 0 0 0 8 383 569 293 341 670 1017 1081 1095 1119 1178 1054 805 685 723 826 409 255 337 247 323 174 85 107 81
0 0 0 0 0 0 0 0 0 0 0 0 0 0 0 0 0 0 0 0 0 0 0 0 0 0 0 122 639 1177 1351 1306 733 389 601 358 723 730 849 734 634 591 307 255 156 372 275 194 204
0 0 0 0 0 0 0 0 0 0 0 0 0 0 0 0 0 0 0 0 0 0 0 0 0 0 0 0 0 0 0 0 0 0 0 0 9 549 839 872 789 648 565 319 369 471 478 294 326
0 0 0 0 0 0 0 0 0 0 0 0 0 0 0 0 0 0 0 0 0 0 0 0 0 0 0 0 0 0 0 0 0 0 0 0 0 0 4 414 813 727 633 625 651 640 663 580 410
0 0 0 0 0 0 0 0 0 0 0 0 0 0 0 0 0 0 0 0 0 0 0 0 0 0 0 0 0 0 0 0 0 0 0 0 0 0 0 9 61 171 453 586 648 646 614 620 574
14 0 0 0 0 0 0 0 0 0 0 0 0 0 0 0 0 0 0 0 0 0 0 0 0 0 0 0 0 0 0 0 0 0 0 0 0 0 0 0 3 34 158 458 617 672 726 717 650
1 4 0 0 0 0 0 0 0 0 0 0 0 0 0 0 0 0 0 0 0 0 0 0 0 0 0 0 0 0 0 0 0 0 0 0 0 0 0 0 0 0 54 141 222 440 672 789 669
0 0 3 0 0 0 0 0 0 0 0 0 0 0 0 0 0 0 0 0 0 0 0 0 0 0 0 0 0 0 0 0 0 0 0 0 0 0 0 0 0 0 0 0 47 143 343 500 550
0 0 0 0 0 0 0 0 0 0 0 0 0 0 0 0 0 0 0 0 0 0 0 0 0 0 0 0 0 0 0 0 0 0 0 0 0 0 0 0 0 0 0 0 0 2 87 214 306
0 0 0 1 0 0 0 0 0 0 0 0 0 0 0 0 0 0 0 0 0 0 0 0 0 0 0 0 0 0 0 0 0 0 0 0 0 0 0 0 0 0 0 12 25 19 38 139 183

GFSSGP_con_sbcape_102.txt.gz
CAPE
0 0 0 0 0 0 0 0 0 0 0 0 0 0 0 0 78 595 2264 2171 1673 1843 2494 1824 2406 2587 2638 2564 2384 2122 1867 1610 1531 1728 1676 1625 1618 1697 1914 2105 2211 2016 1111 767 735 478 331 235 145
0 0 0 0 0 0 0 0 0 0 0 0 0 0 0 291 1291 1583 2082 2144 1866 2205 2662 2052 2305 2514 2562 2511 2342 2136 1948 1828 1908 1726 1674 1725 1705 1839 1911 2091 2153 1564 844 459 370 435 417 412 286
0 0 0 0 0 0 0 0 0 0 0 0 0 0 52 981 1769 2051 2447 1997 2005 2376 2390 2418 2311 2367 2445 2385 2268 2142 2090 2057 1988 1837 1771 1830 1865 1853 1848 1924 1781 1040 497 213 266 373 561 549 550
0 0 0 0 0 0 0 0 0 0 0 0 0 0 0 26 1796 2661 1883 1745 2149 2162 2080 2114 2260 2196 2241 2250 2190 2143 2136 2112 2027 1991 1897 1912 1902 1801 1745 1689 1460 937 352 310 422 628 741 815 738
0 0 0 0 0 0 0 0 0 0 0 0 0 0 0 1545 2684 2620 1889 1782 1934 1870 2016 2079 2191 2146 2171 2142 2057 2091 2066 2003 2033 2013 1929 1911 1810 1705 1689 1605 1253 786 668 587 592 578 780 1077 782
0 0 0 0 0 0 0 0 0 0 0 0 0 0 0 730 2600 2700 2167 1801 1505 1675 1953 1877 1961 2076 2038 2035 1971 1908 1872 1898 1939 1867 1884 1879 1726 1697 1705 1686 1439 1026 988 928 805 713 656 806 729
0 0 0 0 0 0 0 0 0 0 0 0 0 0 0 0 2363 2705 2504 1989 1512 1599 1774 1668 1112 1601 1918 1874 1761 1698 1680 1700 1699 1665 1748 1762 1731 1708 1687 1657 1545 1254 974 1008 972 806 621 601 610
0 0 0 0 0 0 0 0 0 0 0 0 0 0 0 0 1369 2692 2478 2149 1622 1582 1532 1548 1185 853 888 1116 1763 1649 1599 1592 1509 1590 1639 1635 1632 1554 1448 1155 1164 1082 916 823 879 859 671 738 702
0 0 0 0 0 0 0 0 0 0 0 0 0 0 0 0 873 2552 2422 1993 1511 1353 1529 1628 1484 882 464 447 1077 1439 1416 1503 1501 1511 1530 1054 411 840 946 505 1070 984 856 811 793 831 877 758 639
0 0 0 0 0 0 0 0 0 0 0 0 0 0 0 0 187 1327 2379 1998 1543 1447 1675 1795 1995 1334 647 357 861 623 602 641 631 542 958 496 281 533 222 501 1077 1020 879 765 745 688 644 394 51
0 0 0 0 0 0 0 0 0 0 0 0 0 0 0 0 0 293 1648 2130 1752 1737 1850 1883 2136 2030 1146 577 809 603 691 700 788 730 837 455 350 592 428 483 839 615 552 165 117 36 5 0 0
0 0 0 0 0 0 0 0 0 0 0 0 0 0 0 0 0 10 684 1483 2161 2000 2046 2204 2319 2401 1912 980 778 722 781 907 1001 1029 1244 850 805 643 582 297 269 417 227 205 129 19 0 0 2
0 0 0 0 0 0 0 0 0 0 0 0 0 0 0 0 0 0 165 603 1013 1759 2325 2261 2402 2388 2364 1880 1155 1042 951 965 1134 1098 1407 1244 1206 933 704 357 264 179 202 170 243 148 106 96 66
0 0 0 0 0 0 0 0 0 0 0 0 0 0 0 0 0 4 497 618 570 748 1803 2310 2883 2921 2829 2738 2120 1712 1586 1484 1405 1231 1299 1357 1398 1360 1345 1395 1241 1001 600 286 221 186 197 178 76
0 0 0 0 0 0 0 0 0 0 0 0 0 0 0 0 0 8 226 90 97 80 457 2307 2591 2854 3234 2990 2841 2371 1690 1541 1512 1743 2009 1762 1910 1999 1685 1540 1592 1511 1527 1588 1482 1274 860 630 275
0 0 0 0 0 0 0 0 0 0 0 0 0 0 0 0 0 0 1 13 131 30 49 458 506 1448 2968 3053 3190 2795 2332 1882 1586 1568 1586 1958 2062 2082 1929 1742 1643 1595 1643 1567 1530 1532 1421 1275 1136
0 0 0 0 0 0 0 0 0 0 0 0 0 0 0 0 0 18 9 23 127 164 199 874 847 999 1464 2444 2835 2960 3144 2713 2187 2023 1897 2025 1988 1736 1940 1848 1945 2009 1864 1625 1472 1401 1408 1307 1355
0 0 0 0 0 0 0 0 0 0 0 0 0 0 0 0 0 0 9 26 85 227 509 588 1207 2170 1924 1621 2414 3168 2999 2991 2798 2568 2171 2278 2324 1813 1889 2504 2631 2155 1798 1663 1618 1734 1542 1512 1343
0 0 0 0 0 0 0 0 0 0 0 0 0 0 0 0 0 0 0 35 101 183 375 235 596 1456 1574 1011 1855 2482 2856 2968 2771 2755 2743 2664 2728 2460 1929 2105 2474 1777 2243 2284 1779 1981 2055 1693 1325
0 0 0 0 0 0 0 0 0 0 0 0 0 0 0 0 0 0 0 19 100 378 950 1240 1397 1267 1289 1607 2039 2180 2455 2481 3031 2730 2772 2432 2065 2149 2225 2429 2779 2953 2378 2466 2311 2095 1657 1303 1205
0 0 0 0 0 0 0 0 0 0 0 0 0 0 0 0 0 16 30 122 283 517 805 1273 1951 2045 1778 1906 2121 2317 2485 2431 2192 2273 2799 2634 2616 2605 1753 2005 2624 3177 3289 2516 2530 2221 2043 1122 511
0 0 0 0 0 0 0 0 2 0 0 0 0 0 0 0 59 74 63 80 104 137 138 152 194 313 376 836 1907 2506 2630 2667 2131 2302 1929 1797 1855 2307 2364 2289 2499 2685 2929 2552 2140 1721 1508 1289 755
0 0 0 0 0 5 6 0 23 0 0 0 7 3 38 35 0 0 0 0 0 0 3 5 0 0 0 4 5 124 333 188 119 213 236 385 472 578 801 1151 1378 2292 2626 2620 2641 2602 1981 1441 1304
0 0 0 1 17 34 7 4 5 12 11 16 6 0 0 0 0 0 0 0 0 0 0 0 0 0 0 0 0 0 0 0 5 17 11 5 6 5 12 51 182 764 1306 1497 1958 2422 2383 2584 1947
1 16 42 15 30 21 30 25 11 44 17 29 22 0 0 0 0 0 0 0 0 0 0 0 0 0 0 0 0 0 0 0 0 0 0 0 0 0 0 1 10 9 43 177 985 2097 2314 2159 1897
15 35 23 40 23 12 31 17 34 44 7 37 1 0 0 0 0 0 0 0 0 0 0 0 0 0 0 0 0 0 0 0 0 0 0 0 0 0 0 0 0 0 0 0 36 146 543 1488 1424
19 53 30 56 49 89 50 63 55 7 9 1 0 0 0 0 0 0 0 0 0 0 0 0 0 0 0 0 0 0 0 0 0 0 0 0 0 0 0 0 0 0 0 0 3 0 287 1227 1537
46 29 59 76 69 74 51 82 89 49 22 2 0 0 0 0 0 0 0 0 0 0 0 0 0 0 0 0 0 0 0 0 0 0 0 0 0 0 0 1 2 3 1 2 7 6 14 382 625
63 67 64 114 104 95 107 103 30 101 96 45 0 0 0 0 0 0 0 0 0 0 0 0 0 0 0 0 0 0 0 0 0 0 0 3 8 8 5 3 4 4 7 13 21 23 11 29 220
92 86 117 174 125 136 134 109 0 42 110 60 12 0 0 0 0 0 0 0 0 0 0 0 0 0 0 0 0 0 2 3 4 6 8 11 13 13 17 18 19 16 19 25 25 21 26 33 58

GFSSGP_con_sbcape_105.txt.gz
CAPE
0 0 0 0 0 0 0 0 25 0 0 0 0 0 0 0 98 1832 2505 2618 1943 2698 2282 1716 2760 2892 2946 2618 2331 2214 1904 1624 1631 1772 1832 1785 1795 1915 2232 2299 2180 1857 1295 1491 1274 636 274 164 207
0 0 0 0 0 0 0 0 25 0 0 0 0 0 0 836 1423 1579 2822 2455 2118 2893 2573 1988 2669 2843 2853 2633 2345 2090 1874 1722 1821 1850 1809 1826 1832 2032 2090 2309 2149 1510 1028 846 675 414 344 227 194
0 0 0 0 0 0 0 1 13 2 0 0 0 0 5 646 1440 2369 2794 2151 2291 2967 2557 2689 2719 2754 2824 2669 2327 2014 1843 1861 1929 1832 1847 1883 1954 2009 2144 2251 2030 1215 749 409 412 456 464 448 313
0 0 0 0 0 0 0 0 0 0 0 0 0 0 0 87 1567 2619 1803 1911 2634 2861 2471 2350 2600 2606 2660 2607 2393 2136 2103 2095 1896 1869 1978 1979 1997 1915 1969 1975 1698 925 381 263 338 460 551 525 587
0 0 0 0 0 0 0 0 0 0 0 0 0 0 0 592 2134 2588 2143 2032 2411 2331 2707 2622 2480 2472 2508 2553 2455 2285 2193 2058 1986 2059 2067 2005 1947 1829 1831 1702 1224 680 390 368 410 457 530 661 697
0 0 0 0 0 0 0 0 0 0 0 0 0 0 0 26 1790 2612 2231 2198 1878 1733 2379 2314 2250 2342 2291 2337 2325 2212 2116 2096 2088 2038 2042 2007 1862 1802 1740 1592 1148 815 816 666 643 551 490 620 604
0 0 0 0 0 0 0 0 0 0 0 0 0 0 0 5 1898 2468 2611 2286 1861 1638 1819 1938 1482 1913 2200 2150 2098 2067 2011 2016 1938 1844 1878 1853 1809 1793 1735 1648 1322 962 1001 1066 880 717 519 458 369
0 0 0 0 0 0 0 0 0 0 0 0 0 0 0 42 1230 2475 2689 2484 2037 1802 1636 1565 1085 972 1162 1558 1968 1974 1964 1911 1738 1756 1780 1732 1762 1753 1684 1476 1401 1003 807 982 944 831 608 461 388
0 0 0 0 0 0 0 0 0 0 0 0 0 0 0 0 433 1872 2224 2450 2036 1809 1693 1390 1154 747 453 557 1372 1679 1709 1757 1699 1749 1725 1203 422 824 1021 431 1209 1308 865 672 837 984 923 655 546
0 0 0 0 0 0 0 0 0 0 0 0 0 0 0 0 37 1379 1961 1944 1912 1596 1605 1474 1620 1116 717 543 1167 638 617 718 713 570 954 532 283 672 225 579 1235 1210 1011 862 859 853 717 322 0
0 0 0 0 0 0 0 0 0 0 0 0 0 0 0 0 0 184 1152 1913 1546 1480 1574 1572 2116 1703 1038 651 1371 451 566 452 557 544 764 931 422 662 214 394 426 499 616 103 109 29 1 0 0
0 0 0 0 0 0 0 0 0 0 0 0 0 0 0 0 0 12 570 1733 1582 1433 1849 1811 2280 2324 2164 1056 989 923 750 808 803 837 1029 1337 560 1062 932 143 435 774 127 182 53 0 11 0 0
0 0 0 0 0 0 0 0 0 0 0 0 0 0 0 0 0 0 199 1113 1389 1812 2615 2486 2427 2695 2677 2311 1419 1474 1015 1071 1271 1213 1409 1518 957 1685 893 1021 226 453 146 155 257 27 161 2 0
0 0 0 0 0 0 0 0 0 0 0 0 0 0 0 0 0 0 0 751 1143 1403 2021 2279 2556 2847 2900 2832 2448 1926 2045 1613 1361 1428 1578 1848 1810 2704 1709 1552 648 657 85 83 147 279 161 123 64
0 0 0 0 0 0 0 0 0 0 0 0 0 0 0 0 0 0 11 856 555 975 1540 1925 3079 2632 3353 3729 3077 2559 2005 1777 1860 1728 2343 1965 2713 2940 2586 1741 1957 1956 1799 2374 1550 1289 743 452 200
0 0 0 0 0 0 0 0 0 0 0 0 0 0 0 0 0 0 108 787 228 33 707 1769 1257 2682 3360 2922 2416 2289 2751 2479 1997 1864 1907 2155 2386 2320 2918 2657 1957 1704 2142 1696 1434 1510 1385 1221 965
0 0 0 0 0 0 0 0 0 0 0 0 0 0 0 0 0 10 64 112 67 616 612 854 978 1465 3366 3323 2373 1816 1745 2678 2834 2507 2136 2016 2068 2212 2473 2025 1400 2152 2848 2186 2021 2035 2011 1801 1375
0 0 0 0 0 0 0 0 0 0 0 0 0 0 0 0 0 12 21 22 38 254 170 260 755 814 3170 2534 2892 1425 1641 2538 3827 2579 2310 1591 1733 2095 2376 2139 2106 2516 2168 2637 2316 2089 1822 2054 1602
0 0 0 0 4 0 0 0 0 0 0 0 0 0 0 0 0 11 5 0 27 146 633 738 634 2076 1949 834 379 538 973 1054 1493 2455 3112 2802 2601 2227 2769 1308 955 1647 1509 2261 2897 2144 1739 1260 1662
0 0 1 0 0 2 0 0 0 0 0 0 0 0 0 0 0 0 0 0 56 285 596 1270 1018 1442 1280 443 855 526 343 294 985 2985 2821 2825 2669 2422 2933 2529 1317 1954 1290 2516 1643 2024 1455 2093 1591
0 0 0 0 1 0 0 0 0 0 0 0 0 0 0 0 0 0 12 92 247 772 1043 1489 1987 2030 1927 1625 1525 1528 1767 1758 1471 2328 2664 3442 3230 3087 2793 2576 2739 1974 1 0 20 204 1316 1121 1310
0 0 0 0 0 7 0 0 0 6 0 0 0 0 0 0 1 64 137 260 463 397 377 480 501 805 1043 1573 2232 2579 1895 2352 2425 3168 2897 2423 2294 2241 2442 1908 2090 1190 0 102 0 1046 1885 1944 1590
0 0 0 0 0 5 5 9 4 8 9 19 4 0 2 28 58 63 50 76 76 101 120 124 124 146 170 243 372 951 785 423 453 967 1003 1433 1075 730 489 833 1455 2064 2496 2018 1611 1695 2408 2128 1804
0 0 0 3 12 5 0 35 32 18 39 76 18 57 76 32 18 15 11 8 9 18 37 54 51 41 31 40 61 91 80 70 66 180 86 79 104 112 138 89 195 456 864 1424 1708 1948 2198 2331 2249
3 3 18 41 41 1 2 9 14 12 18 121 44 43 48 18 9 6 6 0 0 0 0 6 22 17 8 2 0 3 29 46 33 11 0 17 4 5 186 289 91 31 93 121 439 792 1564 1960 1743
8 29 57 57 59 41 34 7 1 0 39 27 66 64 50 39 1 0 0 0 0 0 0 0 0 0 0 0 0 0 0 0 0 1 0 0 0 0 81 4 0 0 0 0 52 24 60 532 892
35 46 30 22 85 118 37 62 111 60 16 81 71 96 61 21 0 0 0 0 0 0 0 0 0 0 0 0 0 0 0 0 0 0 0 0 0 0 0 0 0 0 0 5 19 1 9 65 241
19 87 124 71 167 175 212 82 174 99 77 82 99 87 41 4 0 0 0 0 0 0 0 0 0 0 0 0 0 0 0 0 0 0 0 0 0 1 2 2 3 2 5 5 35 20 24 53 41
46 142 160 287 152 122 134 163 66 51 62 107 86 86 42 0 0 0 0 0 0 0 0 0 0 0 0 0 0 0 0 0 0 1 2 3 5 4 3 3 4 5 10 18 48 47 44 30 53
128 114 317 206 179 257 119 166 8 65 181 83 139 68 11 0 0 0 0 0 0 0 0 0 0 0 0 0 0 0 0 1 2 4 6 7 8 9 12 14 15 14 13 29 31 34 34 28 32

GFSSGP_con_sbcape_108.txt.gz
CAPE
0 0 0 0 0 0 0 0 0 0 0 0 0 0 0 0 1081 2248 2289 2016 2163 1733 2019 2349 2886 2763 2369 2320 2414 2081 1648 1567 1670 1669 1702 1709 1771 1990 2136 1932 1899 2004 1957 1299 997 479 417 197 438
0 0 0 0 0 0 0 0 0 0 0 0 0 0 0 1423 1429 2855 2769 1919 2558 1991 1794 1970 2858 2894 2523 2428 2258 1956 1677 1667 1741 1742 1726 1732 1821 2033 2175 2068 1868 1678 1388 1224 776 276 170 187 333
0 0 0 0 0 0 0 0 0 7 0 0 0 0 0 835 1631 2563 2292 2395 2989 2573 1959 2448 2854 2840 2689 2406 2082 1846 1746 1781 1817 1797 1825 1794 1880 2065 2157 2132 1836 1486 811 633 452 381 618 376 229
0 0 0 0 0 0 0 0 0 4 0 0 0 0 4 352 1398 2235 1809 2145 3093 2569 2090 2445 2723 2740 2671 2380 2066 1831 1778 1853 1774 1782 1855 1837 1887 2022 2104 2070 1787 1338 722 517 587 880 835 738 593
0 0 0 0 0 0 0 0 0 0 1 0 0 0 5 791 1719 2198 1990 2209 2787 2384 2771 2177 2587 2617 2619 2444 2165 1951 1910 1795 1743 1828 1885 1879 1819 1858 1949 1803 1513 1073 729 750 836 852 842 800 748
0 0 0 0 0 0 0 0 0 0 0 0 0 0 0 442 1468 2360 2049 2171 2281 2808 2948 2069 2399 2486 2433 2407 2220 2009 1889 1752 1774 1824 1864 1853 1697 1690 1736 1597 1230 892 834 818 846 804 851 928 907
0 0 0 0 0 0 0 0 0 0 0 0 0 0 0 0 1693 1937 2200 2086 1792 2314 2500 1841 1637 2162 2291 2184 2083 1949 1810 1773 1761 1740 1764 1719 1640 1619 1596 1465 1236 1015 1111 1108 1052 829 685 720 717
0 0 0 0 0 0 0 0 0 0 0 0 0 0 0 311 798 1899 2287 2023 1657 1575 2010 1460 1615 1571 1822 1876 2045 1919 1855 1803 1677 1685 1717 1615 1616 1575 1502 1256 1253 1061 1120 1209 1221 1042 811 695 584
0 0 0 0 0 0 0 0 0 0 0 0 0 0 0 0 99 1263 1772 1876 1688 1635 1731 1379 1251 1280 1105 1283 1753 1853 1843 1815 1677 1737 1692 1193 757 941 869 517 1000 1205 975 1038 1177 1116 952 771 696
0 0 0 0 0 0 0 0 0 0 0 0 0 0 0 0 0 164 1100 1272 1492 1555 1416 1085 1063 734 537 782 1540 1494 1470 1457 1473 1360 1412 978 624 698 317 404 1129 1216 1064 873 803 907 986 765 0
0 0 0 0 0 0 0 0 0 0 0 0 0 0 0 0 0 13 343 618 1841 1885 1498 863 1145 961 596 895 1315 867 981 923 969 1029 1239 839 403 814 256 494 321 679 776 165 269 173 59 0 0
0 0 0 0 0 0 0 0 0 0 0 0 0 0 0 0 0 0 0 182 1814 1466 940 690 368 1604 2338 1460 989 568 803 693 613 618 1142 891 697 1040 640 380 341 404 193 83 30 0 0 0 0
0 0 0 0 0 0 0 0 0 0 0 0 0 0 0 0 0 0 0 0 1819 416 1157 799 165 1976 2415 2501 1696 696 1075 844 790 879 1128 1177 878 1223 1209 865 807 625 213 248 119 36 9 1 0
0 0 0 0 0 0 0 0 0 0 0 0 0 0 0 0 0 0 0 203 993 1723 5 0 581 1854 2827 2888 2732 2605 3183 2581 2432 1864 1303 1681 1824 2001 1819 1900 1666 1156 1122 517 379 225 459 80 41
0 0 0 0 0 0 0 0 0 0 0 0 0 0 0 0 0 0 0 0 994 365 0 6 753 1352 1889 2546 2818 2541 2714 2148 2853 2277 2828 2165 2324 2551 2003 1954 1624 1649 1501 2577 2201 1779 1591 847 531
0 0 0 0 0 0 0 0 0 0 0 0 0 0 0 0 0 0 0 502 1354 1917 1361 1405 455 1544 2459 3556 3436 3095 2894 3103 2548 1929 2193 2508 2861 2631 2871 2640 1892 2072 2782 2066 1641 1462 1211 1325 1179
0 0 0 0 0 0 0 0 0 0 0 0 0 0 0 0 0 0 7 1220 984 665 1580 2050 2294 2940 2798 3580 3367 3281 3585 2252 1711 323 1108 1618 993 1310 842 1039 1183 1766 2053 2426 2421 1844 965 1114 1458
0 0 0 0 0 0 0 0 0 0 0 0 0 0 0 0 0 4 24 681 493 811 1631 2324 2462 3633 3828 3243 3428 2802 3060 3398 3146 2658 2692 1466 1844 740 81 0 202 587 1698 1952 1916 1902 1646 1456 1265
0 0 0 0 0 0 0 0 0 0 0 0 0 0 0 0 0 3 32 371 467 1890 2168 2120 2688 3473 3263 3304 1987 1911 2123 2286 2570 2694 2703 2612 1209 639 4 0 107 1029 1118 1214 645 3 0 92 240
0 0 0 0 0 0 1 0 0 0 1 0 0 0 0 1 5 28 111 147 1073 1830 2247 2380 2531 3145 3063 2800 2774 2522 1857 1246 1556 1952 3105 3092 2794 1950 757 1050 1534 1049 940 46 2 0 0 38 5
0 0 0 0 0 0 0 0 0 0 1 3 1 0 0 4 58 36 40 279 1228 1753 2320 2601 2839 2717 2620 3202 2617 2798 2174 2040 1067 1548 1899 2472 2742 2792 2707 2585 2251 1652 71 35 95 18 0 12 12
0 0 0 0 0 0 3 0 0 0 0 4 8 0 0 0 115 88 178 948 1476 1117 932 863 1073 1395 1150 2122 2492 3254 2654 2384 1168 937 939 915 1029 1476 1097 1684 1646 1250 13 0 15 0 2 64 24
0 0 0 0 2 0 0 9 0 1 2 22 53 2 8 216 194 222 415 645 340 366 282 280 312 299 401 412 551 1085 998 582 457 631 339 459 599 1094 555 417 535 1342 403 162 195 0 0 249 391
0 1 4 5 1 1 0 0 0 16 3 7 82 33 68 189 100 79 123 155 118 110 92 130 136 168 193 177 182 216 198 153 94 122 103 146 27 97 669 84 375 463 600 644 631 1135 981 998 907
4 8 5 11 20 0 1 0 0 0 25 58 41 178 161 138 77 23 0 0 27 29 73 81 93 97 123 125 117 101 124 58 60 40 71 46 8 3 4 10 69 23 57 70 97 135 264 380 571
8 8 1 6 15 1 5 1 0 5 120 37 40 82 78 96 41 10 0 0 0 0 13 29 63 63 57 54 56 53 41 1 2 9 0 0 0 0 8 0 0 0 0 0 0 0 1 38 59
4 5 2 51 59 141 84 8 44 31 73 126 18 55 115 90 82 14 0 0 0 0 3 3 10 18 8 7 26 20 1 0 0 0 1 0 0 0 0 0 0 0 1 0 6 1 7 12 5
19 12 54 52 9 68 169 12 50 41 205 185 148 75 154 64 9 0 0 0 0 0 0 0 0 0 0 0 0 0 0 0 0 0 0 3 4 0 0 1 3 4 5 11 13 7 11 19 13
7 14 36 129 163 238 203 0 49 82 94 208 57 126 69 11 4 2 0 0 0 0 0 0 0 0 0 0 0 0 0 0 0 0 4 7 10 5 0 2 3 0 0 0 1 2 5 14 13
11 49 117 221 109 155 164 123 12 103 42 205 16 211 9 8 3 0 0 0 0 0 0 0 0 0 0 0 0 0 0 0 7 9 11 18 12 7 1 1 0 2 5 10 13 14 16 20 19

GFSSGP_con_sbcape_114.txt.gz
CAPE
0 0 0 0 0 0 0 0 0 0 0 0 0 454 1955 1724 947 515 1302 1260 1695 2074 1990 2182 2271 2376 2301 1951 1739 1587 1510 1399 1351 1347 1425 1533 1321 1288 1352 1542 1811 1920 1055 721 583 222 406 377 262
0 0 0 0 0 0 0 0 0 0 0 0 0 1051 2024 2260 2238 1821 1628 1621 1567 2047 1888 1827 2276 2306 2267 1905 1647 1572 1533 1419 1344 1347 1470 1603 1452 1375 1561 1890 1852 1703 918 647 489 185 358 324 236
0 0 0 0 0 0 0 0 0 0 0 0 0 58 1544 2485 2522 1900 1590 1459 1827 1955 1818 1747 2255 2213 2223 1903 1605 1575 1497 1388 1387 1423 1497 1594 1525 1455 1560 1821 1937 1536 974 554 260 215 414 350 347
0 0 0 0 0 0 0 0 0 0 0 0 0 79 466 1952 2174 1472 1502 1610 1504 1784 1894 2193 2177 2149 2152 1891 1646 1608 1494 1444 1456 1476 1508 1636 1641 1544 1494 1577 1750 1729 1098 522 277 514 669 564 427
0 0 0 0 0 0 0 0 0 0 0 0 0 36 1100 1530 1669 1693 1570 1100 1317 1662 2121 2063 2094 2114 2139 1938 1593 1623 1501 1412 1471 1525 1529 1660 1631 1631 1590 1591 1503 1371 1221 703 543 753 751 594 434
0 0 0 0 0 0 0 0 0 0 0 0 0 440 1036 1449 1823 1795 1529 936 1612 1596 2031 2151 2281 2161 2030 1906 1700 1583 1441 1396 1468 1504 1507 1606 1574 1651 1703 1631 1469 1161 1034 1012 910 991 816 700 660
0 0 0 0 0 0 0 0 0 0 0 0 0 86 176 1327 2263 2249 1946 1246 1777 1565 1694 2039 2120 2130 2026 1777 1607 1544 1420 1376 1409 1405 1445 1493 1553 1634 1599 1453 1247 989 881 990 1016 879 812 729 746
0 0 0 0 0 0 0 0 0 0 0 0 0 0 1000 1357 2111 2606 2172 1856 1973 1452 1437 1795 1970 1929 1625 1574 1714 1591 1438 1369 1266 1356 1399 1353 1396 1439 1421 1038 917 878 855 886 857 777 802 790 795
0 0 0 0 0 0 0 0 0 0 0 0 0 131 594 1223 1275 1484 2289 2392 2101 1596 1415 1545 1630 1413 1319 1480 1627 1638 1571 1467 1353 1448 1429 1082 844 952 1053 886 831 840 895 953 944 836 714 703 771
0 0 0 0 0 0 0 0 0 0 0 0 0 0 81 91 130 914 2595 2698 2323 1506 1316 1121 1363 1191 1266 1594 1550 1288 1312 1189 1096 1148 1176 782 593 619 749 878 937 951 849 980 1051 1072 975 886 265
0 0 0 0 0 0 0 0 0 0 0 0 0 0 0 0 0 0 97 2620 1528 1336 927 710 1045 1108 1180 1284 1298 1251 1140 1036 1003 1051 939 600 451 412 700 404 476 545 736 325 536 573 690 482 274
0 0 0 0 0 0 0 0 0 0 0 0 0 0 0 0 0 0 432 940 674 555 529 370 330 479 610 1109 1288 1322 1375 1180 1072 1030 916 598 372 169 338 185 158 239 267 264 164 129 97 123 121
0 0 0 0 0 0 0 0 0 0 0 0 0 0 0 0 0 42 950 190 233 579 522 250 271 642 731 714 810 1072 1187 1133 1080 1054 1005 710 338 219 163 147 162 230 188 202 96 34 26 11 5
0 0 0 0 0 0 0 0 0 0 0 0 0 0 0 0 0 408 576 264 380 657 565 116 189 381 411 535 604 442 716 631 520 568 759 825 297 118 183 241 229 180 214 159 112 40 25 12 1
0 0 0 0 0 0 0 0 0 0 0 0 0 0 0 0 0 12 805 362 88 260 114 37 196 478 393 359 593 928 318 306 419 360 402 712 524 346 692 613 375 298 357 473 345 228 134 84 29
0 0 0 0 0 0 0 0 0 0 0 0 0 0 0 0 0 0 744 493 174 73 96 135 417 457 7 761 949 1161 1163 505 508 740 548 733 800 739 553 528 560 505 305 51 55 7 3 68 32
0 0 0 0 0 0 0 0 0 0 0 0 0 0 0 0 0 0 852 500 195 64 26 14 19 18 25 671 887 770 1484 1165 780 541 699 1024 1178 818 768 661 439 242 2 2 61 0 0 0 0
0 0 0 0 0 0 0 0 0 0 0 0 0 0 0 0 0 0 1068 584 242 16 5 24 54 42 375 469 365 1374 1820 1297 483 0 136 789 995 783 637 301 6 11 0 0 0 0 0 0 0
0 0 0 0 0 0 0 0 0 0 0 0 0 0 0 0 0 0 1433 645 153 0 97 286 550 696 667 893 720 1228 1953 1630 1151 1051 1267 955 850 739 321 16 0 0 0 0 0 0 0 0 0
0 0 0 0 0 0 0 0 0 0 0 0 0 0 0 0 0 308 1580 1435 509 465 647 660 718 999 865 1514 929 1075 1164 931 863 846 924 1048 874 505 89 9 0 0 0 0 0 0 0 0 0
0 0 0 0 0 0 0 0 0 0 0 0 0 0 0 0 807 1152 1321 1592 1648 1590 1189 1042 989 1036 949 1524 685 352 174 471 446 60 40 93 616 829 197 29 0 55 22 0 0 0 0 0 0
0 0 0 0 0 0 0 0 0 0 0 0 0 0 134 1239 1240 971 670 567 411 142 192 42 15 122 395 782 644 397 168 232 25 0 0 0 0 0 7 139 276 271 15 15 2 0 0 0 0
0 0 0 0 0 0 0 0 0 0 0 0 0 1 1116 1099 719 328 95 27 13 0 0 0 0 0 0 0 0 0 0 0 0 0 0 0 0 0 0 0 0 0 0 0 0 0 0 0 0
0 0 0 0 0 0 0 0 0 0 0 0 1 392 898 508 230 94 44 12 0 0 0 0 0 0 0 0 0 0 0 0 0 0 0 0 0 0 0 0 0 0 0 0 0 0 0 0 0
0 0 0 0 0 0 0 0 0 0 0 0 319 528 304 146 115 88 60 25 0 0 0 0 0 0 0 0 0 0 0 0 0 0 0 0 0 0 0 0 0 0 0 0 0 0 0 0 0
0 0 0 0 0 0 0 0 0 0 2 0 251 148 56 49 55 66 23 7 3 0 0 0 0 0 0 0 0 0 0 0 0 0 0 0 0 0 0 0 0 0 0 0 0 0 0 0 0
0 0 0 0 0 0 0 0 0 1 30 67 35 39 0 0 0 0 0 0 0 0 0 0 0 0 0 0 0 0 0 0 0 0 0 0 0 0 0 0 0 0 0 0 0 0 0 0 0
0 0 0 0 14 0 0 6 24 3 1 12 14 13 1 0 0 0 0 0 0 0 0 0 0 0 0 0 0 0 0 0 0 0 0 0 0 0 0 0 0 0 0 0 0 0 0 0 0
0 0 0 0 0 0 0 0 1 0 0 0 2 2 0 0 0 0 0 0 0 0 0 0 0 0 0 0 0 0 0 0 0 0 0 0 0 0 0 0 0 0 0 0 0 0 0 0 0
2 0 0 0 3 0 0 0 57 5 2 0 0 0 0 0 0 0 0 0 0 0 0 0 0 0 0 0 0 0 0 0 0 0 0 0 0 0 0 0 0 0 0 0 0 0 0 0 0

GFSSGP_con_sbcape_117.txt.gz
CAPE
0 0 0 0 0 0 0 0 0 0 0 0 0 4 261 1098 802 88 977 908 1451 1634 1892 2137 2360 2092 1804 1687 1567 1455 1392 1280 1287 1311 1258 1250 1252 1416 1638 1772 1955 1662 1148 977 357 366 444 335 282
0 0 0 0 0 0 0 0 0 0 0 0 0 1497 1807 1965 2177 1617 1404 1367 1402 1633 1818 1873 2391 2294 1839 1527 1598 1439 1366 1241 1189 1275 1216 1183 1241 1385 1540 1887 1832 1180 854 734 374 398 415 290 283
0 0 0 0 0 0 0 0 0 0 0 0 0 51 2041 2227 2143 1594 1457 1515 1579 1551 1661 1906 2372 2282 1887 1491 1531 1481 1345 1269 1247 1391 1356 1218 1292 1527 1804 1881 1826 1146 802 537 290 318 425 371 329
0 0 0 0 0 0 0 0 0 0 0 0 0 13 595 2263 2148 1764 1537 1681 1570 1566 1492 2211 2281 2138 1913 1449 1423 1567 1436 1380 1359 1430 1422 1272 1268 1454 1681 1913 1873 1358 943 402 223 295 501 524 373
0 0 0 0 0 0 0 0 0 0 0 0 0 0 989 1751 1507 1528 1545 1573 1632 1649 1641 2014 2196 2103 1902 1467 1428 1507 1495 1389 1407 1491 1397 1270 1409 1447 1525 1722 1700 1468 1025 528 356 468 592 514 369
0 0 0 0 0 0 0 0 0 0 0 0 0 0 1241 1597 1502 1500 1371 1244 1630 1823 1851 1915 2173 2056 1849 1689 1692 1636 1489 1451 1487 1522 1547 1518 1556 1595 1606 1628 1573 1425 1182 758 621 652 534 361 352
0 0 0 0 0 0 0 0 0 0 0 0 0 96 305 1888 1565 1370 943 1360 1522 1941 1772 1761 1831 1894 1941 1752 1673 1590 1464 1464 1473 1424 1525 1588 1666 1699 1643 1514 1323 1080 1025 1129 1095 855 644 593 581
0 0 0 0 0 0 0 0 0 0 0 0 0 162 1442 1373 1773 1209 932 1517 1429 1774 1726 1517 1768 1725 1594 1535 1755 1631 1486 1444 1369 1422 1456 1500 1616 1661 1568 1152 1043 910 836 984 947 815 773 695 653
0 0 0 0 0 0 0 0 0 0 0 0 0 0 866 1818 2128 1617 1844 1857 1329 1462 1543 1567 1553 1389 1393 1303 1457 1630 1443 1429 1401 1498 1454 1096 846 1100 1141 967 960 931 872 917 931 825 724 747 799
0 0 0 0 0 0 0 0 0 0 0 0 0 3 1103 2305 2373 2128 2122 2074 1631 1275 1285 1356 1103 1088 1270 1416 1390 1113 1172 1077 937 990 1028 640 490 536 751 854 1069 1070 961 1057 1092 1039 915 816 199
0 0 0 0 0 0 0 0 0 0 0 0 0 0 0 288 2001 2356 2443 2341 1960 1589 1406 1100 1072 1047 1224 1103 1157 1136 1077 866 848 838 775 509 366 548 623 513 789 560 804 420 796 766 715 403 211
0 0 0 0 0 0 0 0 0 0 0 0 0 0 0 12 288 1265 2550 2295 1838 1644 1317 1220 821 942 1136 1128 1098 977 1071 926 851 918 792 476 241 172 309 280 259 293 397 335 192 151 102 119 110
0 0 0 0 0 0 0 0 0 0 0 0 0 0 0 0 1 23 1296 1655 1612 1248 1083 947 938 954 1000 1313 1334 1286 1286 1126 966 998 930 650 405 185 232 297 222 220 237 262 153 55 25 9 3
0 0 0 0 0 0 0 0 0 0 0 0 0 0 0 0 58 670 909 1207 1124 1162 869 616 931 503 101 298 849 1129 1087 1069 960 1038 1035 849 337 226 192 220 227 225 191 119 134 85 16 0 0
0 0 0 0 0 0 0 0 0 0 0 0 0 0 0 0 231 486 808 1013 1176 1072 883 570 904 685 497 746 848 515 574 789 852 674 744 932 452 136 181 279 260 244 246 175 144 152 38 0 1
0 0 0 0 0 0 0 0 0 0 0 0 0 0 0 0 0 501 686 1026 1171 1104 770 581 861 506 368 706 734 899 472 389 460 447 313 674 644 470 488 495 386 386 273 173 118 18 48 29 3
0 0 0 0 0 0 0 0 0 0 0 0 0 0 0 0 0 144 700 835 892 944 768 582 426 402 141 663 721 864 1092 674 556 595 464 431 720 709 553 357 333 314 132 68 30 0 0 0 0
0 0 0 0 0 0 0 0 0 0 0 0 0 0 0 0 0 5 801 823 811 721 683 485 95 9 63 610 643 846 1434 531 244 310 574 737 889 858 548 24 107 20 0 0 0 0 0 0 0
0 0 0 0 0 0 0 0 0 0 0 0 0 0 0 0 0 223 858 925 833 516 150 48 53 32 267 512 788 896 738 432 276 36 98 652 802 722 320 7 0 0 0 0 0 0 0 0 0
0 0 0 0 0 0 0 0 0 0 0 0 0 0 0 0 0 1108 1000 1036 679 390 156 154 382 614 619 656 695 944 688 331 603 489 543 723 765 438 73 0 0 0 0 0 0 0 0 0 0
0 0 0 0 0 0 0 0 0 0 0 0 0 0 0 0 1 1446 1092 777 369 306 380 589 712 966 892 1142 458 250 316 124 0 0 0 7 195 566 184 45 0 7 0 0 0 0 0 0 0
0 0 0 0 0 0 0 0 0 0 0 0 0 0 0 666 805 1665 1526 880 629 668 497 562 964 997 1140 976 516 600 357 43 0 0 0 0 0 0 10 142 71 156 42 39 19 0 0 0 0
0 0 0 0 0 0 0 0 0 0 0 0 0 192 1044 1092 1314 1513 1495 265 68 7 2 0 0 27 96 128 112 38 0 0 0 0 0 0 0 0 0 0 0 0 0 0 0 0 0 0 0
0 0 0 0 0 0 0 0 0 0 0 0 18 857 642 360 227 97 55 60 1 0 0 0 0 0 0 0 0 0 0 0 0 0 0 0 0 0 0 0 0 0 0 0 0 0 0 0 0
0 0 0 0 0 0 0 0 0 0 0 0 513 417 266 175 77 35 11 0 0 0 0 0 0 0 0 0 0 0 0 0 0 0 0 0 0 0 0 0 0 0 0 0 0 0 0 0 0
0 0 0 0 0 0 0 0 0 0 0 0 497 206 157 78 16 8 0 0 0 0 0 0 0 0 0 0 0 0 0 0 0 0 0 0 0 0 0 0 0 0 0 0 0 0 0 0 0
0 0 0 0 0 0 0 0 0 0 22 186 161 176 40 1 0 0 0 0 0 0 0 0 0 0 0 0 0 0 0 0 0 0 0 0 0 0 0 0 0 0 0 0 0 0 0 0 0
0 0 0 0 0 0 0 0 0 0 0 57 100 22 0 0 0 0 0 0 0 0 0 0 0 0 0 0 0 0 0 0 0 0 0 0 0 0 0 0 0 0 0 0 0 0 0 0 0
7 0 0 0 0 0 0 0 0 0 0 13 3 0 0 0 0 0 0 0 0 0 0 0 0 0 0 0 0 0 0 0 0 0 0 0 0 0 0 0 0 0 0 0 0 0 0 0 0
19 0 0 0 0 0 0 0 0 0 0 0 0 0 0 0 0 0 0 0 0 0 0 0 0 0 0 0 0 0 0 0 0 0 0 0 0 0 0 0 0 0 0 0 0 0 0 0 0

GFSSGP_con_sbcape_120.txt.gz
CAPE
0 0 0 0 0 0 0 0 0 0 0 0 0 1 21 593 718 50 724 293 1101 1538 1857 1849 2175 2103 1834 1726 1675 1621 1615 1562 1521 1469 1401 1382 1395 1508 1561 1692 1831 1659 1120 482 323 388 253 202 221
0 0 0 0 0 0 0 0 0 0 0 0 0 58 1024 1455 2013 1582 924 1357 1370 1595 1838 1945 2288 2100 1777 1669 1558 1479 1508 1460 1343 1301 1326 1366 1466 1549 1673 1847 1728 1347 1052 512 285 417 308 257 257
0 0 0 0 0 0 0 0 0 0 0 0 0 0 1208 1484 2121 1633 1263 1477 1534 1623 1684 2002 2340 2102 1800 1450 1528 1416 1346 1337 1222 1205 1191 1290 1471 1605 1750 1815 1579 960 747 533 272 401 308 261 235
0 0 0 0 0 0 0 0 0 0 0 0 0 0 31 1921 1973 1523 1543 1542 1485 1601 1666 1854 2012 2035 1853 1562 1390 1458 1333 1369 1321 1208 1196 1294 1550 1720 1780 1824 1584 1113 675 436 265 451 462 435 275
0 0 0 0 0 0 0 0 0 0 0 0 0 0 27 1687 1602 1503 1630 1400 1380 1453 1861 1749 1999 2028 1907 1703 1430 1580 1457 1378 1414 1341 1228 1231 1413 1588 1750 1777 1710 1299 801 350 324 481 663 691 415
0 0 0 0 0 0 0 0 0 0 0 0 0 0 0 1297 1511 1431 1514 1323 1347 1523 1921 1938 2183 2004 1835 1791 1689 1561 1462 1411 1459 1436 1336 1304 1396 1471 1589 1698 1636 1419 951 587 509 449 504 314 310
0 0 0 0 0 0 0 0 0 0 0 0 0 0 398 1530 1298 1139 1140 1441 1483 1621 1704 1889 1851 1761 1831 1771 1671 1522 1408 1423 1401 1424 1459 1448 1533 1540 1548 1489 1368 1246 1108 1011 846 731 541 509 541
0 0 0 0 0 0 0 0 0 0 0 0 0 0 214 1332 946 825 1107 1482 1673 1470 1444 1578 1690 1485 1428 1497 1718 1541 1477 1455 1301 1398 1436 1494 1604 1587 1576 1118 1100 960 779 839 845 682 593 541 501
0 0 0 0 0 0 0 0 0 0 0 0 0 0 675 1349 760 1302 1265 1306 1333 1414 1302 1249 1406 1070 1125 1127 1345 1533 1402 1426 1330 1389 1353 1110 919 1206 1462 979 1177 1015 822 814 777 681 573 561 621
0 0 0 0 0 0 0 0 0 0 0 0 0 26 1991 1344 1070 1322 1216 1121 1250 1436 1311 1334 1103 914 1028 1352 1126 964 986 985 900 912 896 521 406 548 892 1030 1224 1176 975 908 903 843 712 636 214
0 0 0 0 0 0 0 0 0 0 0 0 0 0 347 2098 1707 1522 1489 1188 1187 1271 1323 1449 1128 875 1132 1252 875 947 950 709 615 601 474 306 249 549 695 543 915 686 891 356 782 697 647 387 164
0 0 0 0 0 0 0 0 0 0 0 0 0 0 0 1476 2179 2077 2056 1674 1443 1325 1337 1273 1194 1069 1091 1144 866 901 866 687 634 615 483 342 219 323 413 308 326 374 326 284 207 219 143 111 80
0 0 0 0 0 0 0 0 0 0 0 0 0 0 0 58 571 815 2338 2031 1593 1586 1351 1355 1203 1317 1261 1157 1041 948 1019 884 748 783 722 446 286 156 227 259 210 204 214 276 239 144 105 53 8
0 0 0 0 0 0 0 0 0 0 0 0 0 0 0 0 0 197 1890 2193 1972 1757 1393 1156 1201 1384 1331 1304 1165 1162 1119 976 823 763 787 626 375 172 139 203 189 213 240 232 260 229 151 74 4
0 0 0 0 0 0 0 0 0 0 0 0 0 0 0 0 9 62 1289 1937 2048 1726 1304 1234 1305 1186 830 408 730 957 1041 1019 899 811 823 825 444 308 161 171 154 190 195 203 157 166 83 26 1
0 0 0 0 0 0 0 0 0 0 0 0 0 0 0 0 1 63 661 1452 1724 1577 1326 1126 1276 1155 373 540 757 617 854 784 644 603 737 969 687 377 140 131 310 246 203 233 224 162 133 25 3
0 0 0 0 0 0 0 0 0 0 0 0 0 0 0 0 0 7 434 945 1352 1466 1390 1097 1108 903 479 767 991 804 640 526 572 455 361 534 750 646 394 400 367 280 145 179 87 0 14 25 0
0 0 0 0 0 0 0 0 0 0 0 0 0 0 0 0 0 0 291 900 1276 1399 1238 934 422 197 682 793 772 1085 1095 639 358 242 262 285 559 687 448 280 284 228 128 49 4 0 0 0 0
0 0 0 0 0 0 0 0 0 0 0 0 0 0 0 0 0 0 363 841 1052 967 989 419 157 82 431 561 885 913 1000 389 133 58 73 289 314 632 263 144 114 25 8 7 0 0 0 0 0
0 0 0 0 0 0 0 0 0 0 0 0 0 0 0 0 0 202 694 901 1049 1014 615 197 220 98 325 436 800 719 661 450 636 425 130 284 606 250 156 87 50 13 0 0 0 0 0 0 0
0 0 0 0 0 0 0 0 0 0 0 0 0 0 0 0 0 425 786 908 925 614 353 286 470 484 385 630 499 470 222 16 3 22 18 19 231 170 60 0 0 0 0 0 0 0 0 0 0
0 0 0 0 0 0 0 0 0 0 0 0 0 0 0 0 0 359 701 774 550 243 291 492 604 752 707 688 682 746 595 59 0 0 0 0 0 5 83 84 62 56 38 21 3 0 0 0 0
0 0 0 0 0 0 0 0 0 0 0 0 0 0 0 30 34 716 542 346 194 153 242 166 325 507 938 691 490 50 0 0 0 0 0 0 0 0 0 0 0 0 0 0 0 0 0 1 2
0 0 0 0 0 0 0 0 0 0 0 0 151 223 451 782 244 87 110 6 1 1 0 0 0 0 0 0 0 0 0 0 0 0 0 0 0 0 0 0 0 0 0 0 0 0 0 0 0
0 0 0 0 0 0 0 0 0 0 0 0 62 235 95 46 91 97 128 22 1 1 0 1 1 1 0 0 0 0 0 0 0 0 0 0 0 0 0 0 0 0 0 0 0 0 0 0 0
0 0 0 0 0 0 0 0 0 0 0 0 301 51 2 43 62 71 10 0 0 0 0 0 0 0 0 0 0 0 0 0 0 0 0 0 0 0 0 0 0 0 0 0 0 0 0 0 0
0 0 0 0 0 0 0 0 0 0 10 98 10 9 30 23 0 1 0 0 0 0 0 0 0 0 0 0 0 0 0 0 0 0 0 0 0 0 0 0 0 0 0 0 0 0 0 0 0
0 0 0 0 0 0 0 0 0 0 17 10 14 25 2 1 0 0 0 0 0 0 0 0 0 0 0 0 0 0 0 0 0 0 0 0 0 0 0 0 0 0 0 0 0 0 0 0 0
0 0 0 0 0 0 0 0 0 0 3 80 57 7 1 0 0 0 0 0 0 0 0 0 0 0 0 0 0 0 0 0 0 0 0 0 0 0 0 0 0 0 0 0 0 0 0 0 0
0 0 0 0 0 0 0 0 0 0 0 0 0 1 0 0 0 0 0 0 0 0 0 0 0 0 0 0 0 0 0 0 0 0 0 0 0 0 0 0 0 0 0 0 0 0 0 0 0

GFSSGP_con_sbcape_123.txt.gz
CAPE
0 0 0 0 0 0 0 0 0 0 0 0 0 0 0 290 1061 467 1659 670 1340 1795 2088 1867 2084 2078 1957 1930 1934 1940 1927 1961 1951 1833 1723 1603 1419 1331 1540 1736 1797 1679 643 370 300 324 250 228 304
0 0 0 0 0 0 0 0 0 0 0 0 0 0 654 506 2219 2018 908 1131 1555 2092 2202 1919 2051 2052 2041 1913 1800 1735 1782 1767 1704 1618 1548 1476 1431 1554 1619 1731 1711 1346 564 302 353 226 172 191 329
0 0 0 0 0 0 0 0 0 0 0 0 0 0 0 1614 2484 2108 1198 1463 1875 2141 2111 2197 2094 1995 1958 1795 1737 1659 1597 1567 1546 1541 1547 1519 1560 1604 1680 1721 1666 1133 659 304 406 318 276 247 196
0 0 0 0 0 0 0 0 0 0 0 0 0 0 0 1611 2426 2084 1567 1675 1929 2087 1995 2200 2078 1913 1843 1788 1675 1575 1498 1451 1429 1441 1488 1564 1609 1639 1706 1615 1392 1057 673 282 419 363 364 263 304
0 0 0 0 0 0 0 0 0 0 0 0 0 0 0 1759 2296 2195 1903 1861 1835 1879 1971 2004 2052 1921 1833 1784 1674 1566 1515 1348 1299 1329 1449 1585 1590 1641 1708 1681 1537 1045 470 344 453 469 683 640 427
0 0 0 0 0 0 0 0 0 0 0 0 0 0 0 1505 2434 2306 1761 1879 1755 1820 1884 1787 1949 1920 1782 1719 1613 1479 1453 1366 1257 1247 1360 1503 1573 1640 1669 1725 1660 1399 830 409 375 437 523 540 388
0 0 0 0 0 0 0 0 0 0 0 0 0 0 0 1663 2266 2230 2004 1934 1684 1797 1885 1854 1650 1645 1859 1708 1532 1436 1379 1368 1232 1128 1173 1268 1418 1535 1626 1665 1605 1356 1134 925 725 563 513 429 518
0 0 0 0 0 0 0 0 0 0 0 0 0 0 0 1913 2040 2171 2113 1872 1752 1811 1969 1970 1746 1217 974 1225 1623 1478 1416 1342 1228 1204 1139 1218 1350 1414 1438 1069 1170 1152 893 755 643 498 426 455 537
0 0 0 0 0 0 0 0 0 0 0 0 0 5 13 1927 1956 2181 2033 1819 1697 1682 1878 1806 1817 1471 853 836 1170 1409 1400 1355 1279 1228 1196 892 445 736 1011 822 1147 1036 843 741 628 569 539 501 393
0 0 0 0 0 0 0 0 0 0 0 0 0 1762 1582 1742 2093 2159 1877 1671 1612 1660 1711 1726 1873 1315 1041 754 1068 741 678 604 572 541 682 512 670 798 642 939 1248 1128 924 797 788 711 518 274 30
0 0 0 0 0 0 0 0 0 0 0 0 0 51 1836 1773 2070 2004 1936 1575 1653 1713 1676 2120 1881 1535 1127 782 1185 1045 925 765 860 875 856 698 678 853 653 605 642 672 655 201 177 157 113 108 111
0 0 0 0 0 0 0 0 0 0 0 0 0 0 0 2492 2129 1968 1718 1704 1789 1691 1810 2180 2078 1717 1630 1503 1102 995 1014 850 641 770 978 734 642 767 605 411 443 658 385 335 213 102 117 174 177
0 0 0 0 0 0 0 0 0 0 0 0 0 0 0 0 2636 2660 2192 1928 2007 2022 2005 2215 2299 1915 1949 2149 1449 1287 1185 1099 724 783 972 793 674 726 717 573 461 477 474 469 431 243 263 261 310
0 0 0 0 0 0 0 0 0 0 0 0 0 0 0 0 1459 2759 3041 2704 2333 2258 2451 2186 1923 1820 2156 2168 1754 1749 1633 1421 1274 981 927 1058 951 923 792 821 640 621 575 553 628 719 739 752 658
0 0 0 0 0 0 0 0 0 0 0 0 0 0 0 0 0 1473 3328 3463 3048 2786 2510 2238 1540 1766 2474 2368 1997 1855 1609 1691 1587 1362 1350 1294 1316 1328 1055 841 773 854 976 1067 994 1069 971 779 819
0 0 0 0 0 0 0 0 0 0 0 0 0 0 0 0 0 0 1631 3577 3409 3312 2772 1957 1900 2601 2617 2324 2012 2029 1924 1947 1920 1828 1681 1567 1520 1500 1483 1315 1061 1104 882 1100 1009 1061 1060 886 1096
0 0 0 0 0 0 0 0 0 0 0 0 0 0 0 0 0 0 68 1927 3044 3286 2856 2061 2801 2448 2417 1880 1995 2311 2436 2349 2239 2115 2047 2038 1976 1714 1659 1279 517 758 726 919 870 817 772 1024 960
0 0 0 0 0 0 0 0 0 0 0 0 0 0 0 0 0 0 0 606 1811 2596 2500 2387 2575 2670 2103 1904 1928 1867 2119 2128 2033 1739 1598 1267 1184 1259 1141 1056 457 553 415 776 800 443 450 649 583
0 0 0 0 0 0 0 0 0 0 0 0 0 0 0 0 0 0 0 232 1295 2096 2279 2327 2533 2249 2290 2075 2032 2219 1603 1670 1660 1391 903 177 7 9 5 59 138 311 311 385 482 301 204 257 125
0 0 0 0 0 0 0 0 0 0 0 0 0 0 0 0 0 0 0 11 1071 1838 2176 2356 2286 1954 2297 2211 2294 2419 1949 1989 1563 1088 465 182 1 0 52 202 89 152 216 199 172 128 120 86 20
0 0 0 0 0 0 0 0 0 0 0 0 0 0 0 0 0 0 0 87 659 1555 2159 1970 1826 1928 1980 2138 2347 1893 1611 1299 1115 874 278 37 0 0 57 233 148 88 158 177 186 115 119 278 79
0 0 0 0 0 0 0 0 0 0 0 0 0 0 0 0 0 0 67 468 892 1268 1771 1590 1361 1586 1725 2002 2230 2300 2279 1903 1316 605 271 217 477 343 134 67 154 240 255 190 105 45 16 1 55
0 0 0 0 0 0 0 0 0 0 0 0 0 0 0 0 0 0 60 610 1116 1004 1036 1225 1537 1695 1690 1779 1962 2442 1902 1106 637 379 137 2 1 0 0 0 0 0 0 0 0 0 0 0 3
0 0 0 0 0 0 0 0 0 0 0 0 0 0 0 0 0 127 654 448 30 3 6 125 79 120 1135 1719 1664 1342 641 539 258 52 5 5 3 0 0 0 0 0 0 0 0 0 0 0 0
2 3 0 0 1 0 0 0 0 0 0 0 0 50 353 655 228 149 151 9 4 3 6 26 18 4 2 7 37 89 99 110 15 8 5 0 0 0 0 0 0 0 0 0 0 0 0 0 0
3 0 0 0 0 0 0 0 0 0 0 0 64 128 55 134 180 241 42 4 20 330 294 102 43 3 0 0 7 4 1 3 5 2 3 0 0 0 0 0 0 0 0 0 0 0 0 0 0
46 8 0 0 0 0 0 0 0 0 0 132 67 5 6 4 19 27 4 14 182 63 37 39 25 3 0 0 1 0 0 0 1 0 0 0 0 0 0 0 0 0 0 0 0 0 0 0 0
78 0 8 25 0 0 0 0 0 0 0 64 29 13 9 7 6 5 3 34 32 25 17 21 2 0 0 0 1 0 0 0 0 0 0 0 0 0 0 0 0 0 0 0 0 0 0 1 0
3 15 0 0 3 0 0 0 0 0 0 120 72 9 6 5 3 2 2 1 0 1 0 0 0 0 0 0 0 0 0 0 0 0 0 0 0 0 0 0 0 0 0 0 0 0 0 2 3
16 3 0 17 4 0 0 0 4 0 136 191 8 7 4 4 2 2 0 0 0 0 0 0 0 0 0 0 0 0 0 0 0 0 0 0 0 0 0 0 0 0 0 0 0 0 3 5 8

GFSSGP_con_sbcape_129.txt.gz
CAPE
0 0 0 0 0 0 0 0 0 0 0 0 0 0 0 0 1219 1991 1725 1146 1127 2115 2122 1610 2492 2719 2756 2475 2127 1810 1771 1812 1894 1805 1653 1363 1399 1660 1766 1966 1476 1264 1098 1044 890 708 583 516 422
0 0 0 0 0 0 0 0 0 0 0 0 0 0 0 0 1405 2137 1419 1075 1513 2232 2155 1424 2436 2620 2671 2432 2097 1913 1900 1942 1937 1792 1615 1346 1415 1626 1736 1867 1393 840 675 771 640 457 377 402 412
0 0 0 0 0 0 0 0 0 0 0 0 0 0 0 0 1451 2341 1787 1229 1968 2404 2123 1876 2473 2528 2592 2489 2191 1996 1993 2019 1836 1756 1647 1420 1418 1656 1802 1914 1522 839 503 363 369 279 289 316 291
0 0 0 0 0 0 0 0 9 0 0 0 0 0 0 0 1495 2446 1490 1345 2097 2185 1899 1790 2284 2387 2430 2453 2323 2199 2073 1975 1818 1752 1608 1472 1525 1690 1768 1824 1569 773 399 404 353 297 333 378 299
0 0 0 0 0 0 0 0 0 0 0 0 0 0 0 50 1078 1783 1315 1669 1855 1611 2199 1581 2171 2273 2342 2353 2271 2174 2063 1877 1759 1700 1610 1551 1642 1730 1761 1772 1491 968 515 541 514 464 476 489 331
0 0 0 0 0 0 0 0 0 0 0 0 0 0 0 3 441 1528 1659 2054 1886 1620 2333 1211 1949 2120 2122 2203 2111 2009 1892 1808 1720 1609 1583 1583 1667 1672 1676 1619 1526 1426 1036 918 707 695 603 668 599
0 0 0 0 0 0 0 0 0 0 0 0 0 0 0 0 29 1933 2010 2187 1943 2000 1885 1156 525 1374 1981 1946 1857 1785 1691 1635 1551 1458 1441 1524 1639 1620 1615 1640 1595 1436 1216 1081 1122 850 676 511 468
0 0 0 0 0 0 0 0 0 0 0 0 0 0 0 0 640 2161 2415 2415 2093 2235 1746 1117 501 370 358 913 1742 1590 1509 1437 1337 1372 1433 1458 1576 1638 1625 1517 1642 1619 1222 1094 1077 922 876 686 563
0 0 0 0 0 0 0 0 0 0 0 0 0 0 0 523 628 1663 2678 2597 2412 2275 2027 1221 662 319 169 196 806 1340 1273 1310 1244 1276 1421 945 64 517 706 510 1584 1707 1192 970 863 789 793 582 366
0 0 0 0 0 0 0 0 0 0 0 0 0 0 0 0 593 816 2430 2914 2673 2377 2192 1422 1164 584 371 355 714 292 232 211 184 143 348 85 74 198 75 356 1665 1308 1010 800 660 547 438 225 7
0 0 0 0 0 0 0 0 0 0 0 0 0 0 0 155 498 835 1261 2354 2689 2465 2255 1719 1966 1898 1046 677 821 445 478 325 279 284 404 466 274 464 144 431 735 769 730 287 172 66 21 1 1
0 0 0 0 0 0 0 0 0 0 0 0 0 0 64 718 504 731 933 1451 2538 2458 2385 2343 2378 2055 2470 1052 1148 717 781 683 687 709 820 943 674 843 630 277 552 445 355 157 56 0 10 0 4
0 0 0 0 0 0 0 0 0 0 0 0 0 0 0 0 605 804 1422 1422 2304 2527 2787 2755 3444 3918 3301 3343 1769 1396 1249 1116 1260 1234 1390 1167 1272 1277 1009 598 413 295 163 257 105 55 80 73 164
0 0 0 0 0 0 0 0 0 0 0 0 0 0 0 0 4 1000 1673 1977 2355 2702 3068 3020 3213 3773 2938 3001 3610 2386 2634 2035 1686 1577 1646 1708 1700 1874 1179 1075 765 412 266 268 612 262 273 303 233
0 0 0 0 0 0 0 0 0 0 0 0 0 0 0 0 0 879 1679 2497 2505 2854 3325 3603 3475 3429 3684 3532 3237 2615 2282 2216 1945 1799 2167 1982 2025 2041 1746 1262 1007 733 579 625 1087 1052 1665 1621 1650
0 0 0 0 0 0 0 0 0 0 0 0 0 0 0 0 0 134 1796 2576 3037 3020 3680 3823 3444 3664 3956 4199 3998 3152 3015 2519 2842 2087 2431 2079 2642 2377 2351 1629 1637 1355 2673 2009 1811 1658 1794 1447 1483
0 0 0 0 0 0 0 0 0 0 0 0 0 0 0 0 0 0 2396 2913 3137 3535 4256 4135 3873 3721 3846 3950 3951 3753 4184 2959 3247 3013 2221 2497 2297 1887 2188 2533 2188 1215 516 0 0 0 18 443 523
0 0 0 0 0 0 0 0 0 0 0 0 0 0 0 0 0 0 676 2461 2488 3277 4340 4905 4526 4538 3773 3759 3709 3196 2881 3017 3873 3854 2537 2348 2504 2035 2303 1382 1036 545 34 94 30 8 14 4 99
0 0 0 0 0 0 0 0 0 0 0 0 0 0 0 0 0 0 0 1392 2788 3389 4129 5283 4697 4921 4073 3754 3234 3290 3391 3209 2704 3123 3035 2722 2350 1920 1678 1129 434 282 0 0 0 0 22 53 91
0 0 0 0 0 0 0 0 0 0 0 0 0 0 0 0 0 0 0 106 1274 2665 3802 3940 4140 4645 4304 3502 3455 3665 3420 3481 3465 3134 2803 2072 1961 1757 1217 782 299 11 0 0 0 6 150 347 627
0 0 0 0 0 0 0 0 0 0 0 0 0 0 0 0 0 0 0 0 34 1341 2748 3596 3417 4326 3869 3941 3737 3807 3433 3351 2830 2824 1632 1666 1485 1332 1175 722 276 125 33 0 0 0 409 604 484
5 0 0 0 1 1 0 0 0 0 0 0 0 0 0 0 0 0 0 0 39 371 1611 2744 3395 3546 3602 3963 4019 3997 3518 2990 3259 2820 2267 1834 1367 846 749 502 205 7 0 81 141 454 739 360 439
10 12 8 0 8 14 9 0 0 0 0 0 0 0 0 0 0 0 0 0 0 75 862 2544 3380 2949 3373 3616 3865 3856 3150 3776 3332 2093 1539 916 450 207 391 650 746 751 558 601 444 224 6 141 14
81 28 36 50 38 152 12 0 0 0 0 0 0 0 0 0 0 0 0 0 0 0 795 2843 3083 2979 3236 3243 3398 3442 2973 2803 2081 1213 1173 716 675 363 237 188 316 340 247 108 2 0 0 0 0
101 142 118 75 111 76 10 2 0 0 0 0 0 0 0 0 0 0 0 0 7 889 2502 2134 2250 2237 3004 1577 1180 2124 1522 1376 548 569 229 141 285 255 235 284 291 64 1 0 0 0 0 0 0
114 134 153 132 117 58 4 0 0 0 0 0 0 0 0 0 0 0 0 867 1422 1705 1559 1013 1206 1267 1673 1273 967 1016 990 717 320 142 17 2 36 154 50 12 2 0 0 0 0 0 0 0 0
64 230 180 160 110 143 7 2 0 0 0 0 0 0 0 0 0 45 1191 1244 940 729 869 820 1064 1247 1156 1038 622 427 256 140 79 47 11 5 0 0 6 0 0 0 0 0 0 0 0 4 7
80 155 244 189 142 95 58 34 0 0 0 0 0 0 0 0 570 816 744 630 574 775 1158 1031 1298 1139 734 405 249 84 55 30 20 5 0 0 0 0 0 0 0 0 0 0 1 0 1 3 4
255 234 190 159 73 142 70 206 3 25 0 0 0 284 657 747 536 408 518 781 1175 1115 1135 1149 719 542 343 202 52 32 7 2 0 0 0 0 0 0 0 0 0 0 0 1 4 8 2 7 18
305 86 337 362 205 136 74 113 41 46 6 31 1010 540 220 224 424 573 701 630 611 587 467 450 352 184 108 48 35 12 4 1 0 0 0 0 0 0 0 0 0 0 0 2 7 12 16 16 18

GFSSGP_con_sbcape_132.txt.gz
CAPE
0 0 0 0 0 0 0 0 0 0 0 0 0 0 0 0 443 845 1156 1562 1480 1629 1702 1841 2612 2859 2779 2417 2016 1722 1672 1793 1826 1569 1360 1432 1518 1641 1759 1466 1621 1705 1692 1257 925 762 652 412 317
0 0 0 0 0 0 0 0 0 0 6 0 0 0 0 48 656 317 1153 1989 1964 1976 1551 1618 2619 2786 2690 2345 1885 1702 1777 1904 1796 1610 1417 1438 1661 1640 1795 1511 1465 1485 1110 958 782 594 534 447 381
0 0 0 0 0 0 0 0 0 0 0 0 0 0 0 0 1653 1133 1126 2342 1977 2042 1764 2244 2658 2680 2583 2266 1918 1819 1865 1915 1800 1645 1408 1428 1680 1712 1789 1612 1368 1011 792 782 647 441 437 401 400
0 0 0 0 0 0 0 0 0 0 1 0 0 0 0 0 2053 1657 1169 2281 2104 1666 1610 2308 2537 2540 2454 2282 2037 1948 1986 1908 1767 1685 1461 1420 1631 1752 1871 1796 1453 1052 548 376 434 573 650 489 339
0 0 0 0 0 0 0 0 0 0 0 0 0 0 0 0 1857 1400 1234 2199 2069 1503 2177 2054 2478 2452 2073 2393 2224 2118 2003 1769 1713 1676 1510 1449 1623 1681 1821 1807 1465 1089 760 669 580 595 585 565 456
0 0 0 0 0 0 0 0 0 0 0 0 0 0 0 230 533 1333 1291 1879 1613 2023 1933 1701 2437 2388 2028 2335 2257 2104 1924 1792 1745 1610 1498 1494 1552 1620 1723 1805 1621 1334 932 880 724 679 591 558 477
0 0 0 0 0 0 0 0 0 0 0 0 0 0 0 2 282 1211 1597 1881 1486 2462 1540 1165 1645 2258 2320 2226 2132 2024 1861 1734 1621 1486 1459 1466 1546 1589 1618 1583 1582 1467 1086 1027 984 754 623 548 546
0 0 0 0 0 0 0 0 0 0 0 0 0 0 0 0 291 1336 1692 2001 1640 2235 1125 749 962 1400 1729 1796 2047 1916 1797 1671 1470 1422 1426 1450 1572 1580 1564 1333 1438 1355 1167 994 1016 812 682 606 566
0 0 0 0 0 0 0 0 0 0 0 0 0 0 0 29 333 1581 1939 2057 1783 2116 1320 587 293 511 312 700 1565 1704 1604 1523 1432 1431 1472 1083 316 798 946 578 1363 1580 1146 852 811 749 730 622 490
0 0 0 0 0 0 0 0 0 0 0 0 0 0 0 61 104 1287 2067 2216 1975 2101 1349 572 305 33 5 18 918 797 872 858 785 641 925 391 223 476 178 463 1594 1682 1265 924 821 696 626 353 4
0 0 0 0 0 0 0 0 0 0 0 0 0 0 0 0 1 86 1378 2132 2155 2068 1744 751 578 333 162 231 365 129 229 245 385 451 604 419 168 864 220 871 697 1039 971 539 597 355 126 0 0
0 0 0 0 0 0 0 0 0 0 0 0 0 0 0 0 0 69 344 1167 1907 1522 2024 1155 789 766 824 948 265 412 410 414 325 456 754 398 982 1930 714 647 758 944 739 495 356 34 6 1 13
0 0 0 0 0 0 0 0 0 0 0 0 0 0 0 10 103 277 469 666 1732 2074 2287 1314 1517 1278 1877 1233 819 800 916 792 722 862 1032 630 1126 2292 1912 1732 1364 695 659 885 711 348 120 149 129
0 0 0 0 0 0 0 0 0 0 0 0 0 0 0 0 6 383 662 590 2254 2285 1751 1362 1554 1656 2542 2324 1801 1916 1914 1396 1692 1420 1438 1554 2088 2460 2226 2287 2088 1452 1223 1155 1057 1182 1680 1430 1560
0 0 0 0 0 0 0 0 0 0 0 0 0 0 0 0 0 0 270 613 2311 1721 0 1972 2675 2992 3913 4449 3033 2184 2855 1753 2094 2829 2104 2103 2909 2620 1637 2141 1973 1895 1865 1992 1552 1420 1303 975 591
0 0 0 0 0 0 0 0 0 0 0 0 0 0 0 0 0 0 0 746 2035 1348 0 163 3211 3202 3917 4382 3984 3042 3249 2957 2166 2069 2357 2458 3111 3082 2611 1469 1313 1680 128 120 25 39 28 50 154
0 0 0 0 0 0 0 0 0 0 0 0 0 0 0 0 0 0 0 666 1680 1899 370 1968 3212 3232 3668 3966 4111 3982 3939 3153 3573 2571 1975 2294 2699 2771 2553 2172 1557 134 107 0 0 0 0 0 0
0 0 0 0 0 0 0 0 0 0 0 0 0 0 0 0 0 0 0 713 2237 609 0 13 2642 3017 3764 3690 4053 3399 3605 3817 3163 2617 2496 3041 2373 2753 2814 1969 815 497 403 23 36 0 76 0 0
0 0 0 0 0 0 0 0 0 0 0 0 0 0 0 0 0 0 0 1467 1983 318 533 273 1520 3462 3294 3661 3772 3675 3425 3375 3322 3320 3161 3045 2944 2843 1727 1215 1193 711 268 83 26 0 0 33 0
0 0 0 0 0 0 0 0 0 0 0 0 0 0 0 0 0 0 0 993 1725 5 0 0 156 2790 3625 3785 3860 3279 3550 3226 3077 3076 2908 2635 2446 2202 1855 856 685 415 1 0 0 6 9 98 0
0 0 0 0 0 0 1 0 0 0 0 0 0 0 0 0 0 0 0 13 1079 223 20 378 2371 3508 4247 3640 3217 4330 3906 2957 2698 2731 2463 2331 1963 1629 1332 1102 469 377 416 129 29 37 314 754 748
2 0 0 0 0 0 4 10 0 0 0 0 0 0 0 0 0 0 0 0 837 2768 3086 3407 3753 4733 3878 3385 3468 4013 3228 2719 2652 2166 2238 1681 1503 955 1080 983 761 751 297 79 51 488 801 761 605
10 0 0 0 0 0 0 57 0 0 0 0 0 0 0 0 0 0 0 0 311 1418 2801 3214 3626 4030 3364 3532 4074 3925 3187 2713 2246 1380 680 409 372 491 639 781 780 852 1044 1033 672 531 489 492 147
20 22 9 11 7 36 0 38 11 1 0 0 0 0 0 0 0 0 0 0 65 859 2514 3552 3351 2537 3495 3817 3995 3695 2690 2055 1242 708 369 320 67 74 193 135 458 520 576 453 248 223 59 0 0
49 25 74 60 44 52 7 1 5 0 0 0 0 0 0 0 0 0 0 0 0 501 2300 3402 2815 2706 3172 3749 3730 3776 2583 1554 996 438 341 332 173 57 47 81 167 241 85 5 10 3 0 0 0
162 105 128 54 49 15 11 40 0 0 0 0 0 0 0 0 0 0 0 0 0 1432 2857 2971 2695 1054 1775 2403 1445 1783 1356 920 748 755 347 212 183 70 41 13 7 12 0 0 0 11 0 2 0
126 113 68 165 101 104 34 19 2 0 0 3 0 0 0 0 0 0 0 0 1999 1914 2269 2024 1502 1058 1363 1398 1325 1276 945 552 431 176 65 52 22 0 0 0 0 0 0 0 1 0 1 13 12
143 121 133 410 301 33 47 183 10 0 9 29 5 0 0 0 0 126 1942 1571 1262 1290 1549 1566 1374 1030 696 673 577 536 325 237 127 63 13 13 0 0 0 0 0 0 0 0 5 0 2 3 9
45 164 135 198 135 60 68 41 18 7 0 35 87 2 0 0 1344 1456 1133 805 910 1038 1430 1464 755 531 387 361 181 105 21 12 3 0 0 0 0 0 0 0 0 0 0 8 4 6 0 19 15
64 213 187 245 70 2 19 31 185 23 165 141 384 995 1266 1188 1043 682 723 912 1188 1050 1228 1138 402 246 82 68 23 13 8 4 0 0 0 0 0 0 5 0 0 0 0 0 0 3 3 8 12